[[{"header":{"parameterUnit":"m.s-1","parameterCategory":1,"la1":30.6,"la2":29.2853,"lo1":-89.7004,"lo2":-87.6739,"dy":0.0162,"dx":0.0183,"nx":112,"ny":82,"refTime":"2023-05-15T06:00:00:Z","depth":0,"parameterNumber":2,"parameterNumberName":"U-component_of_WINDS"},"data":[0.0,0.0,0.0,0.0,0.0,0.0,0.0,0.0,0.0,0.0,0.0,0.0,0.0,0.0,0.0,0.0,0.0,0.0,0.0,0.0,0.0,0.0,0.0,0.0,0.0,0.0,0.0,0.0,0.0,0.0,0.0,0.0,0.0,0.0,0.0,0.0,0.0,0.0,0.0,0.0,0.0,0.0,0.0,0.0,0.0,0.0,0.0,0.0,0.0,0.0,0.0,0.0,0.0,0.0,0.0,0.0,0.0,0.0,0.0,0.0,0.0,0.0,0.0,0.0,0.0,0.0,0.0,0.0,0.0,0.0,0.0,0.0,0.0,0.0,0.0,0.0,0.0,0.0,0.0,0.0,0.0,0.0,0.0,0.0,0.0,0.0,0.0,0.0,0.0,0.0,1.1361,1.4937,1.6356,1.6998,1.6889,1.6048,1.6292,1.8054,0.0,0.0,0.0,0.0,0.0,0.0,0.0,0.0,0.0,0.0,0.0,0.0,0.0,0.0,0.0,0.0,0.0,0.0,0.0,0.0,0.0,0.0,0.0,0.0,0.0,0.0,0.0,0.0,0.0,0.0,0.0,0.0,0.0,0.0,0.0,0.0,0.0,0.0,0.0,0.0,0.0,0.0,0.0,0.0,0.0,0.0,0.0,0.0,0.0,0.0,0.0,0.0,0.0,0.0,0.0,0.0,0.0,0.0,0.0,0.0,0.0,0.0,0.0,0.0,0.0,0.0,0.0,0.0,0.0,0.0,0.0,0.0,0.0,0.0,0.0,0.0,0.0,0.0,0.0,0.0,0.0,0.0,0.0,0.0,0.0,0.0,0.0,0.0,0.0,0.0,0.0,0.0,0.0,0.0,0.0,0.0,0.0,0.0,0.0,0.0,0.0,0.0,0.0,0.0,1.118,1.343,1.6017,1.7027,1.571,1.5061,1.5175,1.6089,0.0,0.0,0.0,0.0,0.0,0.0,0.0,0.0,0.0,0.0,0.0,0.0,0.0,0.0,0.0,0.0,0.0,0.0,0.0,0.0,0.0,0.0,0.0,0.0,0.0,0.0,0.0,0.0,0.0,0.0,0.0,0.0,0.0,0.0,0.0,0.0,0.0,0.0,0.0,0.0,0.0,0.0,0.0,0.0,0.0,0.0,0.0,0.0,0.0,0.0,0.0,0.0,0.0,0.0,0.0,0.0,0.0,0.0,0.0,0.0,0.0,0.0,0.0,0.0,0.0,0.0,0.0,0.0,0.0,0.0,0.0,0.0,0.0,0.0,0.0,0.0,0.0,0.0,0.0,0.0,0.0,0.0,0.0,0.0,0.0,0.0,0.0,0.0,0.0,0.0,0.0,0.0,0.0,0.0,0.0,0.0,0.0,0.0,0.0,0.0,0.0,0.0,0.0,1.2878,1.4139,1.5087,1.6527,1.689,1.5509,1.4349,1.4236,1.5591,1.8026,0.0,0.0,0.0,0.0,0.0,0.0,0.0,0.0,0.0,0.0,0.0,0.0,0.0,0.0,0.0,0.0,0.0,0.0,0.0,0.0,0.0,0.0,0.0,0.0,0.0,0.0,0.0,0.0,0.0,0.0,0.0,0.0,0.0,0.0,0.0,0.0,0.0,0.0,0.0,0.0,0.0,0.0,0.0,0.0,0.0,0.0,0.0,0.0,0.0,0.0,0.0,0.0,0.0,0.0,0.0,0.0,0.0,0.0,0.0,0.0,0.0,0.0,0.0,0.0,0.0,0.0,0.0,0.0,0.0,0.0,0.0,0.0,0.0,0.0,0.0,0.0,0.0,0.0,0.0,0.0,0.0,0.0,0.0,0.0,0.0,0.0,0.0,0.0,0.0,0.0,0.0,0.0,0.0,0.0,0.0,0.0,0.0,0.0,0.0,0.0,0.0,0.0,1.4906,1.6054,1.6509,1.687,1.6521,1.5175,1.3725,1.3572,1.5145,1.66,0.0,0.0,0.0,0.0,0.0,0.0,0.0,0.0,0.0,0.0,0.0,0.0,0.0,0.0,0.0,0.0,0.0,0.0,0.0,0.0,0.0,0.0,0.0,0.0,0.0,0.0,0.0,0.0,0.0,0.0,0.0,0.0,0.0,0.0,0.0,0.0,0.0,0.0,0.0,0.0,0.0,0.0,0.0,0.0,0.0,0.0,0.0,0.0,0.0,0.0,0.0,0.0,0.0,0.0,0.0,0.0,0.0,0.0,0.0,0.0,0.0,0.0,0.0,0.0,0.0,0.0,0.0,0.0,0.0,0.0,0.0,0.0,0.0,0.0,0.0,0.0,0.0,0.0,0.0,0.0,0.0,0.0,0.0,0.0,0.0,0.0,0.0,0.0,0.0,0.0,0.0,0.0,0.0,0.0,0.0,0.0,0.0,0.0,0.0,0.0,0.0,0.0,1.3897,1.4271,1.5715,1.6387,1.5948,1.4002,1.3275,1.3168,1.3816,1.5904,0.0,0.0,0.0,0.0,0.0,0.0,0.0,0.0,0.0,0.0,0.0,0.0,0.0,0.0,0.0,0.0,0.0,0.0,0.0,0.0,0.0,0.0,0.0,0.0,0.0,0.0,0.0,0.0,0.0,0.0,0.0,0.0,0.0,0.0,0.0,0.0,0.0,0.0,0.0,0.0,0.0,0.0,0.0,0.0,0.0,0.0,0.0,0.0,0.0,0.0,0.0,0.0,0.0,0.0,0.0,0.0,0.0,0.0,0.0,0.0,0.0,0.0,0.0,0.0,0.0,0.0,0.0,0.0,0.0,0.0,0.0,0.0,0.0,0.0,0.0,0.0,0.0,0.0,0.0,0.0,0.0,0.0,0.0,0.0,0.0,0.0,0.0,0.0,0.0,0.0,0.0,0.0,0.0,0.0,0.0,0.0,0.0,0.0,0.0,0.0,0.0,0.0,1.5554,1.5827,0.0,1.6516,1.5068,1.3906,1.3238,1.3104,1.3619,0.0,0.0,0.0,0.0,0.0,0.0,0.0,0.0,0.0,0.0,0.0,0.0,0.0,0.0,0.0,0.0,0.0,0.0,0.0,0.0,0.0,0.0,0.0,0.0,0.0,0.0,0.0,0.0,0.0,0.0,0.0,0.0,0.0,0.0,0.0,0.0,0.0,0.0,0.0,0.0,0.0,0.0,0.0,0.0,0.0,0.0,0.0,0.0,0.0,0.0,0.0,0.0,0.0,0.0,0.0,0.0,0.0,0.0,0.0,0.0,0.0,0.0,0.0,0.0,0.0,0.0,0.0,0.0,0.0,0.0,0.0,0.0,0.0,0.0,0.0,0.0,0.0,0.0,0.0,0.0,0.0,0.0,0.0,0.0,0.0,0.0,0.0,0.0,0.0,0.0,0.0,0.0,0.0,0.0,0.0,0.0,0.0,0.0,0.0,0.0,0.0,0.0,1.7176,1.6624,1.6868,0.0,1.6519,1.4359,1.3685,1.3175,1.3057,1.3441,0.0,0.0,0.0,0.0,0.0,0.0,0.0,0.0,0.0,0.0,0.0,0.0,0.0,0.0,0.0,0.0,0.0,0.0,0.0,0.0,0.0,0.0,0.0,0.0,0.0,0.0,0.0,0.0,0.0,0.0,0.0,0.0,0.0,0.0,0.0,0.0,0.0,0.0,0.0,0.0,0.0,0.0,0.0,0.0,0.0,0.0,0.0,0.0,0.0,0.0,0.0,0.0,0.0,0.0,0.0,0.0,0.0,0.0,0.0,0.0,0.0,0.0,0.0,0.0,0.0,0.0,0.0,0.0,0.0,0.0,0.0,0.0,0.0,0.0,0.0,0.0,0.0,0.0,0.0,0.0,0.0,0.0,0.0,0.0,0.0,0.0,0.0,0.0,0.0,0.0,0.0,0.0,0.0,0.0,0.0,0.0,0.0,0.0,0.0,0.0,0.0,0.0,1.7248,1.6675,1.6835,1.8946,1.6247,1.3935,1.3068,1.2939,1.2972,0.0,0.0,0.0,0.0,0.0,0.0,0.0,0.0,0.0,0.0,0.0,0.0,0.0,0.0,0.0,0.0,0.0,0.0,0.0,0.0,0.0,0.0,0.0,0.0,0.0,0.0,0.0,0.0,0.0,0.0,0.0,0.0,0.0,0.0,0.0,0.0,0.0,0.0,0.0,0.0,0.0,0.0,0.0,0.0,0.0,0.0,0.0,0.0,0.0,0.0,0.0,0.0,0.0,0.0,0.0,0.0,0.0,0.0,0.0,0.0,0.0,0.0,0.0,0.0,0.0,0.0,0.0,0.0,0.0,0.0,0.0,0.0,0.0,0.0,0.0,0.0,0.0,0.0,0.0,0.0,0.0,0.0,0.0,0.0,0.0,0.0,0.0,0.0,0.0,0.0,0.0,0.0,0.0,0.0,0.0,0.0,0.0,0.0,0.0,0.0,0.0,0.0,0.0,1.6256,1.657,1.7086,1.8283,1.5971,1.3943,1.3073,1.3328,1.3658,1.3946,0.0,0.0,0.0,0.0,0.0,0.0,0.0,0.0,0.0,0.0,0.0,0.0,0.0,0.0,0.0,0.0,0.0,0.0,0.0,0.0,0.0,0.0,0.0,0.0,0.0,0.0,0.0,0.0,0.0,0.0,0.0,0.0,0.0,0.0,0.0,0.0,0.0,0.0,0.0,0.0,0.0,0.0,0.0,0.0,0.0,0.0,0.0,0.0,0.0,0.0,0.0,0.0,0.0,0.0,0.0,0.0,0.0,0.0,0.0,0.0,0.0,0.0,0.0,0.0,0.0,0.0,0.0,0.0,0.0,0.0,0.0,0.0,0.0,0.0,0.0,0.0,0.0,0.0,0.0,0.0,0.0,0.0,0.0,0.0,0.0,0.0,0.0,0.0,0.0,0.0,0.0,0.0,0.0,0.0,0.0,0.0,0.0,0.0,0.0,0.0,0.0,0.0,1.5901,1.6889,1.7633,1.7983,1.5642,1.3768,1.3043,1.309,1.3373,1.3919,0.0,0.0,0.0,0.0,0.0,0.0,0.0,0.0,0.0,0.0,0.0,0.0,0.0,0.0,0.0,0.0,0.0,0.0,0.0,0.0,0.0,0.0,0.0,0.0,0.0,0.0,0.0,0.0,0.0,0.0,0.0,0.0,0.0,0.0,0.0,0.0,0.0,0.0,0.0,0.0,0.0,0.0,0.0,0.0,0.0,0.0,0.0,0.0,0.0,0.0,0.0,0.0,0.0,0.0,0.0,0.0,0.0,0.0,0.0,0.0,0.0,0.0,0.0,0.0,0.0,0.0,0.0,0.0,0.0,0.0,0.0,0.0,0.0,0.0,0.0,0.0,0.0,0.0,0.0,0.0,0.0,0.0,0.0,0.0,0.0,0.0,0.0,0.0,0.0,0.0,0.0,0.0,0.0,0.0,0.0,0.0,0.0,0.0,0.0,0.0,0.0,0.0,1.5958,1.7389,1.8222,1.7929,1.5424,1.3533,1.3008,1.2524,1.2579,1.3336,0.0,0.0,0.0,0.0,0.0,0.0,0.0,0.0,0.0,0.0,0.0,0.0,0.0,0.0,0.0,0.0,0.0,0.0,0.0,0.0,0.0,0.0,0.0,0.0,0.0,0.0,0.0,0.0,0.0,0.0,0.0,0.0,0.0,0.0,0.0,0.0,0.0,0.0,0.0,0.0,0.0,0.0,0.0,0.0,0.0,0.0,0.0,0.0,0.0,0.0,0.0,0.0,0.0,0.0,0.0,0.0,0.0,0.0,0.0,0.0,-2.0657,0.0,0.0,0.0,0.0,0.0,0.0,0.0,0.0,0.0,0.0,0.0,0.0,0.0,0.0,0.0,0.0,0.0,0.0,0.0,0.0,0.0,0.0,0.0,0.0,0.0,0.0,0.0,0.0,0.0,0.0,0.0,0.0,0.0,0.0,0.0,0.0,0.0,0.0,0.0,0.0,0.0,1.5401,1.695,1.795,1.7976,1.5654,1.3655,1.2611,1.2742,1.2968,1.3059,1.3682,0.0,0.0,0.0,0.0,0.0,0.0,0.0,0.0,0.0,0.0,0.0,0.0,0.0,0.0,0.0,0.0,0.0,0.0,0.0,0.0,0.0,0.0,0.0,0.0,0.0,0.0,0.0,0.0,0.0,0.0,0.0,0.0,0.0,0.0,0.0,0.0,0.0,0.0,0.0,0.0,0.0,0.0,0.0,0.0,0.0,0.0,0.0,0.0,0.0,0.0,0.0,0.0,0.0,0.0,0.0,0.0,0.0,0.0,0.0,0.0,-2.322,0.0,0.0,0.0,0.0,0.0,0.0,0.0,0.0,0.0,0.0,0.0,0.0,0.0,0.0,0.0,0.0,0.0,0.0,0.0,0.0,0.0,0.0,0.0,0.0,0.0,0.0,0.0,0.0,0.0,0.0,0.0,0.0,0.0,0.0,0.0,0.0,0.0,0.0,0.0,0.0,1.4155,1.6458,1.7869,1.7426,1.5111,1.3309,1.2457,1.2076,1.2081,1.2551,1.2893,0.0,0.0,0.0,0.0,0.0,0.0,0.0,0.0,0.0,0.0,0.0,0.0,0.0,0.0,0.0,0.0,0.0,0.0,0.0,0.0,0.0,0.0,0.0,0.0,0.0,0.0,0.0,0.0,0.0,0.0,0.0,0.0,0.0,0.0,0.0,0.0,0.0,0.0,0.0,0.0,0.0,0.0,0.0,0.0,0.0,0.0,0.0,0.0,0.0,0.0,0.0,0.0,0.0,-2.9757,-2.9965,-2.8203,-2.7589,-2.7647,-2.8143,-2.6948,-2.687,-2.7357,-2.4521,0.0,0.0,0.0,0.0,0.0,0.0,0.0,0.0,0.0,0.0,0.0,0.0,0.0,0.0,0.0,0.0,0.0,0.0,0.0,0.0,0.0,0.0,0.0,0.0,-1.8361,-1.8298,0.0,0.0,0.0,0.0,0.0,0.0,0.0,0.0,0.0,0.0,0.0,0.0,1.3386,1.6208,1.7841,1.6904,1.4558,1.2814,1.207,1.1136,1.0822,1.1279,1.1758,1.1337,0.0,0.0,0.0,0.0,0.0,0.0,0.0,0.0,0.0,0.0,0.0,0.0,0.0,0.0,0.0,0.0,0.0,0.0,0.0,0.0,0.0,0.0,0.0,0.0,0.0,0.0,0.0,0.0,0.0,0.0,0.0,0.0,-1.6086,-1.9452,0.0,0.0,0.0,0.0,0.0,0.0,0.0,0.0,0.0,0.0,0.0,0.0,0.0,-2.917,-2.7352,-2.9673,-3.0037,-2.8518,-3.0977,-3.136,-2.9883,-2.9785,-2.964,-2.9434,-2.9077,0.0,-2.7395,-2.5811,0.0,0.0,0.0,0.0,0.0,0.0,0.0,0.0,0.0,0.0,0.0,0.0,0.0,0.0,0.0,0.0,0.0,0.0,0.0,0.0,0.0,0.0,-2.1604,-2.3126,-2.3385,-2.3198,0.0,-1.514,-0.7619,-0.5669,-0.175,0.0,0.0,0.0,0.0,0.0,0.0,0.0,1.5003,1.6755,1.7644,1.7262,1.4948,1.2626,1.0659,1.055,0.993,0.828,0.9354,0.9615,0.857,0.8051,0.0,0.0,0.0,0.0,0.0,0.0,0.0,0.0,0.0,0.0,0.0,0.0,0.0,0.0,0.0,0.0,0.0,0.0,0.0,0.0,0.0,0.0,0.0,0.0,0.0,0.0,0.0,0.0,0.0,-1.4866,-1.9372,-2.2549,-2.2314,-2.2062,0.0,0.0,0.0,0.0,0.0,0.0,0.0,0.0,0.0,-2.8936,-3.071,-3.1397,-3.0891,-3.2957,-3.2584,-2.9764,-2.9842,-2.9738,-2.9467,-2.943,-2.9527,-2.9696,-2.9474,-2.8967,-2.8147,-2.7064,-2.6634,-2.6412,0.0,0.0,0.0,0.0,-2.1805,-2.2396,-2.2372,-2.2516,0.0,-2.1247,0.0,0.0,0.0,0.0,0.0,0.0,0.0,0.0,0.0,0.0,0.0,-2.4656,-2.4819,-2.4666,-2.4595,-1.9921,-1.485,0.0,-0.5867,-0.1198,-0.101,0.0,0.0,0.0,0.0,1.2047,1.3786,1.614,1.7245,1.6168,1.3941,1.1807,1.0029,0.9398,0.8645,0.7654,0.8058,0.7914,0.6998,0.6121,0.4454,0.0,0.0,0.0,0.0,0.0,0.0,0.0,0.0,0.0,0.0,0.0,0.0,0.0,0.0,0.0,0.0,0.0,0.0,0.0,0.0,0.0,0.0,0.0,0.0,0.0,0.0,0.0,0.0,-1.8312,-2.22,-2.4861,-2.5737,-2.6007,0.0,0.0,0.0,0.0,0.0,0.0,-2.9546,-3.0429,-3.108,-3.1465,-3.2711,-3.3422,-3.3557,-3.4893,-3.388,-3.0586,-2.9416,-2.8932,-2.9104,-2.8988,-2.9162,-2.9514,-2.9132,-2.8706,-2.8215,-2.738,-2.6898,-2.6537,-2.4726,-2.4444,-2.4993,-2.4639,-2.5116,-2.5994,-2.6596,-2.6523,-2.6066,-2.5459,0.0,-2.3657,-2.0572,0.0,0.0,0.0,0.0,-1.9587,-2.2168,-2.3364,-2.4129,-2.5026,-2.5114,-2.483,-2.4212,-2.2196,-1.9574,0.0,-0.9808,-0.4604,-0.4411,0.0,0.0,0.0,0.0,1.1434,1.2692,1.5553,1.6809,1.5053,1.2922,1.1024,0.9505,0.847,0.7659,0.7168,0.7078,0.6577,0.5576,0.4277,0.1405,-0.3214,0.0,0.0,0.0,0.0,0.0,0.0,0.0,0.0,0.0,0.0,0.0,0.0,0.0,0.0,0.0,0.0,0.0,0.0,0.0,0.0,0.0,0.0,0.0,0.0,0.0,0.0,0.0,0.0,0.0,-2.6015,-2.7804,0.0,0.0,0.0,0.0,-2.9206,-3.0696,-3.2252,-3.3897,-3.4096,-3.4488,-3.5205,-3.6045,-3.6122,-3.5378,-3.5573,-3.3979,-3.0602,-3.1148,-3.0799,-2.9655,-2.9476,-2.9251,-2.8984,-2.8213,-2.7507,-2.6828,-2.6045,-2.581,-2.5796,-2.4172,-2.3859,-2.4511,-2.5741,-2.5726,-2.5302,-2.6411,-2.6256,-2.5566,-2.5642,-2.5303,-2.4656,-2.3566,-2.2864,0.0,0.0,-2.307,-2.3289,-2.4518,-2.4949,-2.5063,-2.5255,-2.487,-2.4234,-2.3431,-2.1623,-1.9461,0.0,-1.3519,-1.0086,-0.796,0.0,-0.2282,0.1303,0.6124,1.0272,1.2934,1.5539,1.6378,1.4451,1.2367,1.0489,0.8882,0.8226,0.7311,0.5983,0.6122,0.5729,0.4598,0.177,-0.1251,-0.434,-0.3838,0.0,0.0,0.0,0.0,0.0,0.0,0.0,0.0,0.0,0.0,0.0,0.0,0.0,0.0,0.0,0.0,0.0,0.0,0.0,0.0,0.0,0.0,0.0,0.0,0.0,0.0,0.0,0.0,-2.7144,-2.8878,0.0,-2.951,-2.9005,-2.9389,-3.1086,-3.2182,-3.3253,-3.4369,-3.4911,-3.527,-3.5488,-3.5795,-3.5795,-3.5493,-3.5766,-3.4452,-3.1616,-3.0959,-3.0017,-2.8849,-2.8671,-2.8706,-2.8957,-2.8154,-2.7523,-2.6964,-2.5679,-2.5216,-2.5279,-2.4587,-2.4755,-2.5452,-2.5922,-2.6238,-2.6581,-2.7353,-2.7032,-2.6186,-2.5675,-2.5192,-2.4758,-2.4439,-2.4143,-2.3962,-2.4099,-2.427,-2.4506,-2.4949,-2.5187,-2.5269,-2.5197,-2.4789,-2.4142,-2.3217,-2.1961,-2.0523,-1.8956,-1.5865,-1.2775,-1.0454,-0.7777,-0.4266,0.0686,0.5268,0.9223,1.2144,1.4374,1.4872,1.2751,1.0899,0.9211,0.7657,0.7101,0.6384,0.5425,0.574,0.5488,0.4559,0.2198,-0.0713,-0.4345,-0.5991,-0.7389,0.0,0.0,0.0,0.0,0.0,0.0,0.0,0.0,0.0,0.0,0.0,0.0,0.0,0.0,0.0,0.0,0.0,0.0,0.0,0.0,0.0,0.0,0.0,0.0,0.0,0.0,-2.8198,-2.8116,-3.0095,-3.1184,-3.0461,-3.0359,-3.0943,-3.2436,-3.328,-3.4213,-3.5288,-3.5523,-3.5759,-3.6065,-3.5699,-3.5493,-3.5493,-3.5494,-3.4774,-3.3355,-3.1689,-3.0323,-2.9262,-2.8947,-2.8732,-2.8558,-2.7732,-2.7045,-2.6327,-2.5157,-2.4633,-2.4558,-2.4461,-2.4797,-2.5394,-2.5826,-2.6193,-2.6526,-2.7036,-2.6828,-2.623,-2.5625,-2.5187,-2.4879,-2.4814,-2.4741,-2.4666,-2.4623,-2.4836,-2.5045,-2.4812,-2.5031,-2.5106,-2.4302,-2.4015,-2.3602,-2.2394,-2.1412,-2.0448,-1.9311,-1.7342,-1.5122,-1.2802,-1.0337,-0.6753,-0.1159,0.3619,0.7633,1.055,1.3036,1.3715,1.1601,0.9855,0.8426,0.7363,0.6118,0.5359,0.5262,0.509,0.4877,0.4534,0.2158,-0.0757,-0.4264,-0.8073,-1.0804,-1.253,0.0,0.0,0.0,0.0,0.0,0.0,0.0,0.0,0.0,0.0,0.0,0.0,0.0,0.0,0.0,0.0,0.0,0.0,0.0,0.0,0.0,0.0,0.0,-2.4982,-2.8395,-3.0482,-2.8997,-3.1474,-3.2344,-2.9882,-3.1172,-3.248,-3.3301,-3.4105,-3.5247,-3.6844,-3.6076,-3.6076,-3.7118,-3.6084,-3.5493,-3.5493,-3.4865,-3.4915,-3.5605,-3.3464,-3.191,-3.0996,-3.0435,-2.9292,-2.775,-2.6961,-2.5969,-2.4892,-2.4403,-2.4016,-2.3714,-2.3714,-2.3844,-2.4174,-2.5477,-2.5555,-2.5053,-2.5383,-2.5537,-2.5573,-2.5507,-2.5316,-2.5041,-2.4845,-2.4891,-2.4962,-2.479,-2.4986,-2.5082,-2.4264,-2.4543,-2.4542,-2.2633,-2.2564,-2.2486,-2.0901,-1.9903,-1.9078,-1.8247,-1.792,-1.7103,-1.4939,-1.2856,-0.9564,-0.4024,0.1227,0.0,0.8286,1.1589,1.2976,1.1085,0.9395,0.8318,0.8044,0.5551,0.4421,0.5384,0.4227,0.3761,0.4376,0.1312,-0.1773,-0.4566,-1.0157,-1.4308,-1.6949,0.0,0.0,0.0,0.0,0.0,0.0,0.0,0.0,0.0,0.0,0.0,0.0,0.0,0.0,0.0,0.0,0.0,0.0,0.0,0.0,0.0,0.0,-2.9612,-2.9034,-3.0543,-3.1597,-3.1272,-3.1443,-3.1309,-3.0605,-3.0976,-3.1601,-3.2461,-3.3181,-3.4043,-3.5132,-3.5405,-3.5663,-3.5968,-3.5661,-3.5493,-3.5493,-3.5456,-3.5071,-3.4316,-3.3265,-3.2135,-3.0977,-3.0051,-2.8941,-2.775,-2.6961,-2.6093,-2.5207,-2.4501,-2.4229,-2.4266,-2.4134,-2.4192,-2.4425,-2.4941,-2.5233,-2.5376,-2.5407,-2.5469,-2.5498,-2.5282,-2.505,-2.4826,-2.4636,-2.4697,-2.4709,-2.4054,-2.4129,-2.4216,-2.3379,-2.3218,-2.3065,-2.2195,-2.1659,-2.1039,-1.9959,-1.8906,-1.8025,-1.7471,-1.6398,-1.5172,-1.389,-1.2065,-0.8451,-0.1525,0.1543,0.0,0.9179,1.0515,1.0872,1.0367,0.9462,0.8689,0.8128,0.7033,0.59,0.4779,0.3569,0.2589,0.1758,-0.1289,-0.6629,-1.4338,-1.4873,-1.6184,0.0,0.0,0.0,0.0,0.0,0.0,0.0,0.0,0.0,0.0,0.0,0.0,0.0,0.0,0.0,0.0,0.0,0.0,0.0,0.0,0.0,0.0,-2.9862,-3.2273,-3.2235,-3.2741,-3.2905,-3.2265,-3.1758,-3.1309,-3.0937,-3.0898,-3.125,-3.2047,-3.2454,-3.3011,-3.3876,-3.4468,-3.5009,-3.5484,-3.5392,-3.5377,-3.5507,-3.567,-3.5354,-3.4542,-3.3768,-3.2621,-3.1165,-3.0019,-2.8556,0.0,-2.6425,-2.5721,-2.485,-2.4392,-2.4266,0.0,0.0,0.0,0.0,0.0,-2.5241,-2.5483,-2.5469,-2.5461,-2.5468,-2.5183,-2.4946,-2.476,-2.4559,-2.4379,-2.4134,-2.363,-2.3538,-2.3342,-2.2412,-2.2242,-2.199,-2.0707,-2.0267,-1.9792,-1.8518,-1.7608,-1.6781,-1.5962,-1.4828,0.0,-1.2222,-1.1249,-0.847,-0.2056,0.0459,0.3285,0.7896,0.9055,0.9294,0.8836,0.831,0.7739,0.7159,0.6127,0.0,0.0,0.0,0.0098,-0.2567,-0.6493,0.0,0.0,0.0,-1.8027,-2.0376,0.0,0.0,0.0,-2.2503,-2.2808,0.0,0.0,0.0,0.0,0.0,0.0,0.0,0.0,0.0,0.0,0.0,0.0,0.0,0.0,0.0,0.0,-3.26,-3.4296,-3.4358,-3.4466,-3.3945,-3.2363,-3.2109,-3.1758,-3.0976,-3.0898,-3.117,-3.1811,-3.187,-3.2193,-3.2861,0.0,0.0,0.0,0.0,-3.5119,-3.5064,-3.5398,-3.5474,-3.5298,-3.4238,-3.289,-3.1299,-2.9984,-2.803,-2.5742,-2.5742,-2.5189,-2.4284,-2.4284,-2.4284,-2.4303,-2.4478,-2.4723,-2.5027,-2.5307,-2.5447,-2.55,-2.5485,0.0,0.0,-2.5148,-2.4929,-2.4712,-2.4416,-2.3921,-2.3432,-2.3244,-2.2901,-2.2374,-2.1396,-2.1362,-2.1044,-1.8825,-1.8728,-1.8654,-1.6878,-1.6179,-1.5513,-1.4163,-1.3306,-1.2312,-1.0599,-1.0386,-0.8745,-0.3704,-0.0936,0.1969,0.5828,0.7544,0.8063,0.7128,0.0,0.0,0.5938,0.4362,0.359,0.4081,0.0732,-0.3246,-0.7742,-1.2442,-1.562,-1.7078,-1.8047,-1.9704,-2.2113,-2.2495,-2.3021,-2.3617,-2.2607,-2.2729,0.0,0.0,0.0,0.0,0.0,0.0,0.0,0.0,0.0,0.0,0.0,0.0,0.0,0.0,0.0,-3.1105,-3.359,-3.4934,-3.3628,-3.3516,-3.318,-3.2151,-3.1501,-3.1094,-3.0918,-3.0898,-3.0916,-3.0953,-3.1539,-3.1853,-3.173,-3.3051,-3.3651,-3.3333,-3.4703,-3.4438,-3.2362,-3.3945,-3.4319,-3.349,0.0,0.0,-3.039,-2.8681,-2.7199,-2.5941,-2.5941,-2.5471,-2.4685,-2.4685,-2.4737,-2.4845,-2.4771,-2.485,-2.5027,-2.5307,-2.5404,-2.5425,-2.5427,-2.5313,-2.5139,-2.4924,-2.4708,-2.4398,-2.3546,-2.3299,0.0,-2.1689,-2.1362,-2.1229,-2.032,-1.9911,-1.9481,-1.8539,-1.7963,-1.7279,-1.6072,-1.528,-1.4487,-1.3405,-1.2481,-1.1691,-1.1115,-0.9232,-0.6069,-0.087,0.0878,0.3083,0.7185,0.7074,0.6767,0.7205,0.6939,0.6872,0.719,0.6354,0.4817,0.2457,-0.2013,-0.6558,-1.0931,-1.3795,-1.6428,-1.8838,-1.9909,-2.1034,-2.2276,-2.2573,-2.2923,-2.3305,-2.3507,-2.3939,0.0,0.0,0.0,0.0,0.0,0.0,0.0,0.0,0.0,0.0,0.0,-2.6777,-2.8356,0.0,-3.2412,-3.3389,-3.4422,-3.4625,-3.3248,-3.2797,-3.2279,-3.1454,-3.1089,-3.0898,-3.0898,-3.0837,-3.0872,-3.1092,-3.1432,-3.1499,-3.1172,-3.2207,-3.2825,-3.2843,-3.3501,-3.3337,-3.2269,-3.3316,-3.3387,-3.2435,-3.1263,-3.0164,-2.9093,-2.774,-2.6508,-2.5503,-2.5503,-2.5234,-2.4804,-2.4804,-2.4877,-2.501,-2.4972,-2.5053,-2.5216,-2.5381,-2.5442,-2.5448,-2.5324,-2.5214,-2.5051,-2.4747,-2.4313,-2.3791,-2.3179,-2.2547,-2.1868,-2.1034,-2.0626,-2.0294,-1.9668,-1.9254,-1.8694,-1.7539,-1.6859,-1.6104,-1.471,-1.3984,-1.3293,-1.2292,-1.1458,-1.0644,-0.9835,-0.677,-0.3531,-0.0804,0.1483,0.3923,0.6737,0.62,0.5563,0.5602,0.5382,0.5283,0.5385,0.4086,0.2073,-0.0643,-0.543,-0.9442,-1.2361,-1.4664,-1.682,-1.8827,-1.9563,-2.0339,-2.1133,-2.1293,-2.1593,-2.206,-2.2831,-2.3766,0.0,0.0,0.0,0.0,0.0,0.0,0.0,-2.3805,-2.836,-2.8584,-2.9664,-3.1115,-3.3027,-3.3385,-3.3828,-3.5117,-3.4699,-3.3835,-3.2841,-3.223,-3.1607,-3.0777,-3.0818,-3.0898,-3.0858,-3.0769,-3.094,-3.1516,-3.1457,-3.125,-3.094,-3.1538,-3.1955,-3.2123,-3.2222,-3.2297,-3.2317,-3.2559,-3.2253,-3.1378,-3.043,-2.9237,-2.7838,-2.6877,-2.5946,-2.5072,-2.5057,-2.4998,-2.4898,-2.4727,-2.4846,-2.5088,-2.4965,-2.5132,-2.5426,-2.5488,-2.549,-2.5443,-2.524,-2.5003,-2.4755,-2.4557,-2.3826,-2.298,-2.2812,-2.183,-2.0697,-2.0504,-2.0062,-1.9561,-1.9185,-1.8838,-1.8177,-1.6572,-1.5899,-1.514,-1.3469,-1.2802,-1.2223,-1.128,-1.0557,-0.9669,-0.8364,-0.4696,-0.1803,-0.1386,0.1695,0.4433,0.5658,0.5122,0.4423,0.3876,0.3637,0.3257,0.2622,0.0545,-0.1694,-0.3947,-0.7984,-1.1012,-1.2698,-1.4868,-1.667,-1.8115,-1.8643,-1.9246,-2.0002,-2.0035,-2.0366,-2.0909,-2.1812,-2.3067,1.7982,0.8453,-0.1477,-0.557,-1.5239,-2.5087,0.0,-3.1946,-3.2762,-3.3297,-3.4814,-3.5664,-3.4545,-3.426,-3.4226,-3.434,-3.3634,-3.2814,-3.2029,-3.1918,-3.1583,-3.0701,-3.0781,-3.0857,-3.0723,-3.0716,-3.1003,-3.1708,-3.1546,-3.1283,-3.0995,-3.1732,-3.133,-2.9494,-3.1449,-3.1825,-3.0259,-3.0665,-3.0451,-2.9563,-2.8047,-2.7223,-2.7,-2.6009,-2.548,-2.534,-2.5293,-2.5283,-2.5266,-2.4505,-2.467,-2.5379,-2.4602,-2.479,-2.5485,-2.5506,-2.5467,-2.5378,-2.519,-2.4487,-2.3774,-2.4313,-2.3355,-2.1966,-2.1931,-2.1288,-2.0356,-1.9446,-1.914,-1.9034,-1.8735,-1.8261,-1.7538,-1.6453,-1.5535,-1.4521,-1.3065,-1.2272,-1.16,-1.0906,-1.0159,-0.9289,-0.8134,-0.4873,-0.2029,-0.0869,0.2118,0.4403,0.4797,0.3961,0.3382,0.354,0.3103,0.2133,0.0488,-0.1949,-0.4274,-0.6385,-0.7629,-0.9426,-1.1926,-1.3853,-1.5733,-1.7554,-1.8464,-1.9246,-2.0002,-2.024,-2.0552,-2.0909,-2.1368,-2.234,1.2626,0.4314,-0.3928,-1.2481,-2.063,-2.7433,-3.0854,-3.1622,-3.1983,-3.3337,-3.4333,-3.4819,-3.431,-3.4324,-3.4148,0.0,-3.2696,-3.2154,-3.1845,-3.1391,-3.0911,-3.0484,-3.0366,-3.0393,-3.0619,-3.037,-3.0692,-3.193,-3.1347,-3.1017,-3.1213,-3.1098,-3.0413,-2.9053,-3.0129,-3.015,-2.8923,-2.9404,-2.9057,-2.7832,-2.7241,-2.6412,-2.5395,-2.5434,-2.5434,-2.5348,-2.4347,-2.421,-2.4638,-2.3797,-2.366,-2.4007,-2.4135,-2.4412,-2.48,-2.5312,-2.5378,-2.5207,-2.4995,-2.4252,-2.3412,-2.3577,-2.2373,-2.0879,-2.0879,-2.0192,-1.9309,-1.8896,-1.8643,-1.8419,-1.8139,-1.7441,-1.6486,-1.5137,-1.4208,-1.3218,-1.1635,-1.0925,-1.0445,-0.999,-0.9142,-0.8112,-0.6845,-0.2897,0.0158,0.0462,0.3134,0.5003,0.4687,0.3564,0.2772,0.2687,0.176,0.0832,0.0063,-0.2136,-0.4427,-0.6769,-0.7524,-0.8819,-1.0867,-1.2615,-1.407,-1.5216,-1.6051,-1.6767,-1.7456,-1.7658,-1.8173,-1.8945,-1.9921,-2.1016,1.1222,0.3672,-0.3708,-1.3627,-2.0957,-2.61,-2.7473,-2.759,-2.7702,-2.8587,-2.9199,-2.9233,-2.8158,-2.9719,-3.0855,-2.9913,-3.0427,-3.1113,-3.1607,-3.0411,-2.9628,-3.0025,-2.9109,-2.8876,-2.9975,-2.9851,-3.0322,-3.1756,-3.1091,-3.0757,-3.1167,-3.0551,-2.9714,-2.859,-2.8878,-2.8615,-2.7775,-2.8111,-2.7779,-2.6767,-2.6415,-2.5683,-2.4662,-2.5015,-2.4981,-2.4622,-2.3392,-2.3236,-2.3787,-2.2945,-2.2888,-2.3318,-2.3666,-2.4004,-2.4399,-2.499,-2.5163,-2.5014,-2.4474,-2.3787,-2.3078,-2.2594,-2.1369,-2.0063,-2.0082,-1.9396,-1.8566,-1.8413,-1.818,-1.7864,-1.7328,-1.6505,-1.5438,-1.3888,-1.2873,-1.1875,-1.0462,-0.9677,-0.9142,-0.8889,-0.8046,-0.6859,-0.5282,-0.1321,0.1637,0.1654,0.3892,0.5272,0.4506,0.3316,0.2351,0.1813,0.0716,-0.0209,-0.0691,-0.2447,-0.4429,-0.6514,-0.7435,-0.8654,-1.0329,-1.1736,-1.2872,-1.3724,-1.4366,-1.4989,-1.5595,-1.5883,-1.6413,-1.7218,-1.8672,-1.9898,1.6217,0.7264,-0.1858,-0.5815,-1.396,-2.0985,-2.102,-2.0451,-1.951,-1.7983,-1.8645,-1.8067,-1.3583,-1.8241,-2.2721,-2.2625,-2.6095,-2.9414,-3.1164,-2.8815,-2.7546,-2.932,-2.673,-2.5811,0.0,-2.9206,-2.9919,-3.0977,-3.0768,-3.0605,-3.0607,-3.036,-2.9342,-2.7504,-2.7896,-2.7661,-2.6666,-2.6529,-2.6545,-2.6676,-2.5132,-2.479,-2.5527,-2.4707,-2.3806,-2.2885,-2.2827,-2.2851,-2.2863,-2.2003,-2.2686,-2.4159,-2.3139,-2.354,-2.466,-2.4498,-2.4732,-2.4887,-2.3459,-2.2903,-2.2612,-2.1444,-2.0454,-1.9734,-1.9795,-1.9225,-1.8471,-1.789,-1.7715,-1.7434,-1.6182,-1.5352,-1.45,-1.3135,-1.1811,-1.0671,-0.9956,-0.8722,-0.7743,-0.7674,-0.7045,-0.584,-0.3655,-0.0935,0.1301,0.2398,0.4076,0.4898,0.404,0.3041,0.2038,0.1052,0.0382,-0.0699,-0.2466,-0.3706,-0.484,-0.5957,-0.7393,-0.894,-1.0616,-1.1482,-1.2621,-1.406,-1.4474,-1.4989,-1.5595,-1.6046,-1.6331,-1.6463,-1.8004,-1.9258,1.4272,0.7573,0.0655,-0.4109,-0.8587,-1.1516,-1.0412,-0.8833,-0.7372,-0.6672,-0.8912,-1.1609,-1.3483,-1.8521,-2.3517,-2.6914,-2.9016,-3.0757,-3.2244,-3.1153,-3.0379,-3.0898,-2.9039,0.0,0.0,0.0,0.0,-2.9972,-2.9611,-2.9502,-2.9917,-2.8877,-2.808,-2.7673,-2.7098,-2.6512,-2.6017,-2.6138,-2.6017,-2.5628,-2.4093,-2.3525,-2.3755,-2.2304,-2.2049,-2.2678,-2.152,-2.1377,-2.1895,-2.0933,-2.0824,-2.1301,-2.1922,-2.2306,-2.2613,-2.3492,-2.3897,-2.3967,-2.347,-2.2847,-2.2117,-2.1203,-2.0105,-1.9023,-1.8551,-1.794,-1.7358,-1.7166,-1.6728,-1.6066,-1.5071,-1.3914,-1.2692,-1.1429,-1.0255,-0.922,-0.8546,-0.7569,-0.6682,-0.6111,-0.535,-0.4058,-0.1848,0.0908,0.3586,0.5841,0.528,0.4153,0.2938,0.2328,0.1723,0.0981,0.0114,-0.1017,-0.2569,-0.3548,-0.4447,-0.536,-0.671,-0.7999,-0.9176,-1.014,-1.1153,-1.223,-1.2937,-1.3554,-1.4073,-1.4509,-1.54,-1.6748,-1.7535,-1.8707,1.3697,0.9272,0.4958,0.0,-0.1865,-0.1845,0.0404,0.2573,0.43,0.5162,0.2915,0.0119,-0.2218,-1.0655,-1.8165,-2.0961,-2.6295,-3.0578,-3.2031,-3.0776,-3.0189,-3.1519,-2.9403,-2.8221,0.0,0.0,0.0,-2.9356,-2.8854,-2.8629,-2.8972,-2.8126,-2.7308,-2.6617,-2.6056,-2.5484,-2.4911,-2.5192,-2.4926,-2.4085,-2.3534,-2.2746,-2.1769,-2.0978,-2.0944,-2.1468,-2.0345,-2.0134,-2.0565,-1.9916,-1.9813,-2.0175,-2.1059,-2.1462,-2.1643,-2.2476,-2.2713,-2.2646,-2.2752,-2.2329,-2.1481,-2.0362,-1.9318,-1.8311,-1.7411,-1.6896,-1.6507,-1.6025,-1.5401,-1.4598,-1.3479,-1.2193,-1.0917,-0.9904,-0.8735,-0.7719,-0.7115,-0.6087,-0.4957,-0.3998,-0.322,-0.1995,0.0329,0.2939,0.5463,0.7689,0.6526,0.4829,0.3262,0.2322,0.1642,0.126,-0.0,-0.1406,-0.2868,-0.3688,-0.451,-0.5474,-0.6769,-0.7969,-0.9002,-0.9859,-1.0725,-1.16,-1.2349,-1.2895,-1.3312,-1.3821,-1.4763,-1.6101,-1.7084,-1.8173,1.481,1.248,1.0761,0.6787,0.6339,0.7796,1.1186,1.3421,1.533,1.7192,1.6367,1.6017,0.0,0.0,-0.7535,-0.661,-1.8803,-2.9065,-3.0915,-2.8236,-2.7468,0.0,0.0,0.0,0.0,0.0,0.0,-2.897,0.0,-2.7993,-2.773,-2.7903,-2.689,-2.4428,-2.4761,-2.4498,-2.3451,-2.3815,-2.3412,-2.2273,-2.3301,-2.2364,-1.9797,-2.0686,-2.0456,-1.9364,-1.9364,-1.9197,-1.8965,-1.8953,-1.961,-2.0635,-2.0467,-2.0894,-2.1603,-2.1444,-2.1163,-2.091,-2.1322,-2.1259,-2.0711,-1.8965,-1.814,-1.7598,-1.6449,-1.608,-1.5758,-1.4541,-1.3776,-1.2987,-1.1446,-1.0233,-0.9192,-0.8511,-0.7293,-0.6133,-0.5658,-0.4258,-0.2709,-0.1406,-0.0664,0.0545,0.2951,0.5092,0.6863,0.8052,0.7797,0.6783,0.4857,0.3068,0.1933,0.1811,0.0066,-0.1764,-0.3404,-0.4112,-0.4988,-0.6191,-0.7427,-0.8645,-0.9839,-1.0441,-1.1195,-1.2102,-1.259,-1.2989,-1.3328,-1.4046,-1.4489,-1.472,-1.665,-1.7667,1.794,1.671,1.5575,1.5361,1.6611,1.8607,2.1362,2.342,2.5161,2.6506,2.36,1.973,1.6278,0.3996,-0.7791,-1.4413,-2.2883,0.0,-3.4337,-3.2729,0.0,-3.2236,0.0,-2.8293,-2.806,-2.7275,0.0,0.0,-2.7584,-2.7128,-2.5663,-2.5463,-2.4781,-2.3457,-2.2785,-2.2549,-2.2832,-2.3365,-2.2957,-2.162,-2.1912,-2.1038,-1.9212,-1.9448,-1.9335,-1.895,-1.8694,-1.8537,-1.8467,-1.816,-1.8175,-1.8483,-1.8965,-1.9169,-1.9242,-1.9762,-1.9591,-1.9135,-1.9243,-1.9545,-1.9679,-1.8657,-1.7528,-1.6337,-1.515,-1.4315,-1.3584,-1.2927,-1.1815,-1.0566,-0.9491,-0.8341,-0.7288,-0.6408,-0.5357,-0.4397,-0.3925,-0.2758,-0.1304,0.032,0.288,0.5209,0.6592,0.7815,0.892,0.9818,0.8969,0.7404,0.518,0.4557,0.369,0.1976,0.0886,-0.0906,-0.3837,-0.4201,-0.4679,-0.5656,-0.6529,-0.742,-0.8325,-0.8707,-0.959,-1.1047,-1.1632,-1.249,-1.3596,-1.404,-1.4813,-1.5884,-1.638,-1.7005,2.0823,2.08,2.0735,2.1853,2.3421,2.525,2.7362,2.8675,2.9514,2.9703,2.7446,2.4264,2.0577,0.6881,-0.5297,0.0,0.0,0.0,-3.2548,-3.1715,-3.1095,0.0,-3.0222,0.0,-2.8076,-2.6636,-2.5458,0.0,-2.5738,-2.566,-2.4281,-2.3389,-2.2588,-2.1835,-2.1037,-2.1089,-2.2122,-2.2554,-2.22,-2.1089,-2.0863,-2.0235,-1.9202,-1.8905,-1.8838,-1.891,0.0,-1.8098,-1.7749,-1.7289,-1.6985,-1.6838,-1.7262,-1.7418,-1.7463,-1.7873,-1.7816,-1.7486,-1.7018,-1.6783,-1.6705,-1.692,-1.5806,-1.4245,-1.3354,-1.2416,-1.144,-1.0762,-0.9412,-0.7983,-0.7017,-0.5837,-0.4696,-0.3964,-0.2959,-0.2071,-0.1582,-0.0487,0.0976,0.2901,0.559,0.7798,0.8543,0.9544,1.0439,1.1036,1.0286,0.9047,0.7406,0.6073,0.4715,0.3203,0.148,-0.0593,-0.3202,-0.4039,-0.4731,-0.5461,-0.6327,-0.7124,-0.7822,-0.8397,-0.9275,-1.0501,-1.1465,-1.2229,-1.277,-1.393,-1.4736,-1.5187,-1.5934,-1.656,2.3528,2.456,2.5666,2.6779,2.7833,2.8971,3.0461,3.0785,3.0504,2.9496,2.8901,2.8191,2.6965,1.1883,-0.0121,0.0652,0.0,-2.633,-2.7568,-2.7537,-2.8229,-3.0326,-2.9074,-2.7955,-2.7718,-2.5387,-2.3464,-2.2457,-2.3065,-2.3259,-2.2731,-2.1452,-2.0381,-1.9697,-1.9336,-1.9749,-2.1003,-2.1233,-2.1026,-2.0395,-1.9976,-1.9571,-1.9174,-1.8515,-1.8398,-1.8699,-1.8094,0.0,-1.6746,-1.6048,-1.5607,-1.5345,-1.5172,-1.5257,-1.5543,-1.5543,-1.5464,-1.5246,-1.4413,-1.3395,-1.2711,-1.42,-1.3384,-1.1732,-1.1228,-1.0288,-0.9165,-0.8214,-0.6739,-0.5235,-0.4329,-0.3044,-0.189,-0.1454,-0.0481,0.046,0.106,0.2353,0.3931,0.5783,0.7789,0.9312,0.9616,1.0687,1.1628,1.1933,1.158,1.0991,1.0203,0.7552,0.5477,0.4744,0.2171,-0.0248,-0.2059,-0.3682,-0.4875,-0.5501,-0.646,-0.7244,-0.7824,-0.8645,-0.9448,-1.0256,-1.1491,-1.1984,-1.1671,-1.3717,-1.4345,-1.3706,-1.5327,-1.6023,2.637,2.7612,2.8716,3.0223,3.0329,3.0351,3.1555,3.1206,0.0,2.9833,2.8769,2.7646,2.6587,1.8149,0.9956,0.5603,-0.425,-1.3972,-2.151,-2.3673,-2.5181,0.0,-2.6635,-2.5235,-2.3003,-2.1578,0.0,0.0,-1.8995,-1.8773,-1.9071,-1.9086,-1.8453,-1.7006,-1.7223,-1.7691,-1.8421,-1.8861,-1.8951,-1.872,-1.8617,-1.8265,-1.7589,-1.6969,-1.6713,-1.6731,-1.5805,0.0,-1.5095,-1.3668,-1.3021,-1.2882,-1.1853,-1.1468,-1.1492,-1.1492,-1.114,-1.0578,-1.0529,-0.9657,-0.8915,-1.0994,-1.0807,-0.9629,-0.868,-0.7576,-0.6454,-0.5345,-0.3801,-0.2396,-0.1726,-0.0732,0.0154,0.0517,0.1307,0.2286,0.3425,0.5681,0.758,0.79,0.9812,1.13,1.108,1.1934,1.2701,1.2919,1.2558,1.1872,1.0793,0.8843,0.6885,0.5194,0.385,0.1738,-0.1537,-0.3239,-0.4622,-0.5752,-0.6169,-0.6714,-0.7536,-0.7825,-0.8656,-1.011,-1.048,-1.1141,-1.2104,-1.3143,-1.3613,-1.3565,-1.4474,-1.4729,2.8893,3.0192,3.1234,3.2122,3.2177,3.1958,3.1787,0.0,0.0,2.932,2.8668,2.7957,2.6939,1.9827,1.3129,1.0229,0.1035,-0.8133,-1.5031,-1.7886,-2.0126,-2.2374,-2.1838,-2.0536,-1.8614,-1.7171,-1.6177,-1.5717,-1.4307,-1.4461,-1.6671,-1.5933,-1.5056,-1.4306,-1.4378,-1.4534,-1.4832,-1.5078,-1.5139,-1.5067,-1.4715,-1.4565,-1.4511,-1.3867,-1.3978,-1.4633,-1.3482,0.0,-1.2947,-1.114,-1.0154,-0.9754,-0.8762,-0.8362,-0.8362,-0.8362,-0.8145,-0.776,-0.7369,-0.6601,-0.5809,-0.6083,-0.6397,-0.6523,-0.5702,-0.4488,-0.3229,-0.2679,-0.1261,0.0175,0.0681,0.1641,0.266,0.3349,0.4197,0.5151,0.6265,0.7878,0.926,0.9669,1.0724,1.1717,1.2214,1.264,1.3081,1.365,1.3405,1.2961,1.238,1.0969,0.9062,0.6561,0.5118,0.3223,0.0515,-0.1303,-0.3272,-0.561,-0.6172,-0.6744,-0.7472,-0.7768,-0.8482,-0.9713,-1.0354,-1.0758,-1.095,-1.2558,-1.3134,-1.2745,-1.383,-1.415,3.0872,3.216,3.3202,3.347,3.3408,3.2976,3.1921,3.0976,3.0001,2.8802,2.8552,2.8263,2.733,2.1404,1.6374,0.0,0.7154,-0.1343,-0.7306,-1.0309,-1.3371,-1.7327,-1.6294,0.0,-1.4668,-1.2959,0.0,-1.1558,-0.9651,0.0,-1.322,-1.211,-1.1295,-1.1125,-1.0815,-1.0784,-1.1044,-1.074,-1.076,-1.1066,-1.0325,-1.0271,-1.0763,-1.0269,-1.0658,-1.164,-1.0677,0.0,0.0,-0.8133,-0.6987,-0.6278,-0.5369,-0.5051,-0.5051,-0.5051,-0.5027,-0.4879,-0.3975,-0.3327,-0.2654,-0.1196,-0.191,-0.3262,-0.2665,-0.1294,0.0043,0.0174,0.1433,0.2816,0.3268,0.4126,0.5156,0.6158,0.7113,0.8031,0.8977,0.9763,1.0508,1.1284,1.1681,1.2158,1.297,1.3233,1.3503,1.4033,1.4027,1.3873,1.3642,1.2795,1.1202,0.8564,0.674,0.498,0.3164,0.1502,-0.0729,-0.3735,-0.4782,-0.5673,-0.6564,-0.7326,-0.8192,-0.9239,-1.0147,-1.0286,-0.9642,-1.1777,-1.2428,-1.167,-1.3071,-1.3469,3.1974,3.3278,3.4435,3.4831,3.3703,3.2531,3.2563,0.0,2.9077,2.8742,2.8353,2.7847,2.7166,2.6235,2.4854,0.0,0.0,1.2478,0.2854,-0.0112,-0.4435,-1.2937,0.0,0.0,-1.1646,-0.9686,-0.8136,-0.7795,-0.532,0.0,-0.6571,-0.7516,-0.7644,-0.6982,-0.6287,-0.6514,-0.7753,-0.6394,-0.6381,-0.7622,-0.683,-0.6504,-0.6575,-0.6646,-0.6712,-0.684,-0.687,0.0,0.0,-0.429,-0.3233,-0.2475,-0.1092,-0.0605,-0.0605,-0.0605,-0.0485,-0.0316,0.0323,0.0727,0.1182,0.2438,0.1378,-0.0302,0.0304,0.1685,0.3138,0.3652,0.4684,0.5764,0.6317,0.6807,0.7364,0.8442,0.931,1.0192,1.1187,1.1846,1.236,1.274,1.3515,1.3875,1.3213,1.3958,1.4448,1.3923,1.418,1.4173,1.3425,1.3299,1.2718,1.1283,0.9467,0.7705,0.6145,0.5121,0.3677,0.1623,-0.0058,-0.1787,-0.3614,-0.5471,-0.7192,-0.8734,-0.9163,-0.9263,-0.9081,-1.0571,-1.1013,-1.0497,-1.1888,-1.2105,3.3463,3.4398,3.4906,3.4691,3.3993,3.3121,3.2192,0.0,2.9551,2.9007,2.8558,2.8089,2.7379,2.7415,2.6647,0.0,0.0,0.0,1.0081,0.5996,0.1973,-0.2738,-0.2963,0.0,0.0,0.0,-0.3103,0.0781,0.0332,0.0,-0.032,-0.2416,-0.3286,-0.2572,-0.1822,-0.1496,-0.1589,-0.0576,-0.0573,-0.1515,-0.0827,-0.0672,-0.1043,-0.1106,-0.1371,-0.1786,-0.1383,0.0,0.0,-0.0054,0.065,0.0652,0.2078,0.2634,0.2634,0.2634,0.2929,0.3372,0.3624,0.4244,0.5063,0.5549,0.5605,0.5325,0.4409,0.4803,0.5624,0.6134,0.6683,0.7121,0.7389,0.8278,0.9287,0.9969,1.0654,1.1335,1.2031,1.2555,1.3069,1.3781,1.408,1.4308,1.4608,1.4815,1.4817,1.4446,1.508,1.5161,1.3934,1.4199,1.4107,1.3103,1.133,0.9669,0.8317,0.7735,0.6138,0.3059,0.1906,0.0076,-0.2759,-0.3771,-0.5206,-0.7222,-0.7425,-0.7833,-0.8463,-0.9432,-0.9889,-0.9899,-1.084,-1.084,3.3758,3.4567,3.494,3.4418,3.3777,3.2998,3.2019,3.0774,2.9626,2.8964,2.8514,2.8056,2.7428,2.7566,2.682,2.3951,0.0,1.9548,1.4855,1.0661,0.7467,0.5831,0.0,0.2383,0.0,0.097,0.1928,0.6282,0.4944,0.0,0.4877,0.2911,0.1725,0.162,0.2331,0.2929,0.3452,0.434,0.4446,0.3776,0.4499,0.4555,0.41,0.3883,0.3492,0.2987,0.3332,0.0,0.0,0.3886,0.4395,0.4247,0.5288,0.552,0.5367,0.5569,0.5828,0.6091,0.6501,0.7275,0.8084,0.8475,0.9225,0.9785,0.8776,0.8409,0.8388,0.8749,0.9123,0.9468,0.9468,1.0181,1.1033,1.1508,1.1804,1.2174,1.2766,1.3157,1.3591,1.4487,1.4613,1.4765,1.543,1.5358,1.5108,1.479,1.528,1.5302,1.4253,1.4488,1.4512,1.3944,1.2586,1.1297,1.0235,0.9737,0.8249,0.5338,0.4202,0.227,-0.0757,-0.1797,-0.3282,-0.5376,-0.5772,-0.6328,-0.7064,-0.7997,-0.8515,-0.867,-0.9444,-0.9342,3.2389,3.344,3.4469,3.4331,3.291,3.1714,3.233,3.0637,2.8819,2.8485,2.8047,2.7582,2.7181,2.7055,2.6319,2.4223,2.3277,0.0,1.6898,1.4256,1.235,0.0,0.0,0.6727,0.7367,0.7067,0.6768,0.662,0.7868,0.0,0.8664,0.8605,0.7576,0.5428,0.6037,0.6395,0.6378,0.7872,0.8261,0.7477,0.8268,0.8664,0.8605,0.7814,0.7425,0.0,0.0,0.0,0.0,0.7425,0.793,0.8612,0.8664,0.8208,0.7653,0.8358,0.8208,0.7759,0.9158,0.9673,0.987,1.1239,1.1816,1.2279,1.3305,1.2685,1.1644,1.1744,1.2535,1.3342,1.3342,1.2941,1.2696,1.3156,1.2877,1.2743,1.3689,1.3901,1.4117,1.4937,1.536,1.5495,1.5268,1.5474,1.5432,1.4701,1.4382,1.4215,1.4199,1.3854,1.3617,1.3617,1.3227,1.2689,1.1936,1.1089,1.0267,0.9569,0.7472,0.5322,0.3235,0.0525,-0.168,-0.3293,-0.4371,-0.4813,-0.4631,-0.6169,-0.6758,-0.647,-0.7596,-0.7529,3.2958,3.3714,3.4311,3.4298,3.3335,3.2396,3.2424,3.103,2.9639,2.9286,2.9178,2.903,2.8664,2.863,2.7681,2.4733,2.4333,0.0,0.0,0.0,0.0,1.4758,1.1849,0.9933,0.0,0.0,0.9239,0.9896,0.0,0.0,1.0163,1.0537,0.9992,0.8371,0.8547,0.8916,0.9416,1.0806,1.1105,1.0364,1.1572,1.1874,1.1407,1.1167,1.078,0.0,0.0,0.0,0.0,0.9548,0.9607,0.9409,0.9951,1.001,0.9857,1.0529,1.0923,1.1271,1.2164,1.2743,1.3202,1.3611,1.3818,1.3954,1.4316,1.3723,1.2855,1.2907,1.3148,1.3488,1.3789,1.3741,1.3753,1.4283,1.4198,1.4101,1.438,1.4596,1.4783,1.5043,1.5448,1.5849,1.6229,1.6197,1.6013,1.5739,1.5866,1.5609,1.4594,1.4398,1.4092,1.3408,1.28,1.2336,1.2066,1.1329,1.0499,0.9652,0.8465,0.6892,0.4859,0.3754,0.2003,-0.0529,-0.1219,-0.2117,-0.3233,-0.4003,-0.4616,-0.5112,-0.5529,-0.5524,3.326,3.3582,3.3689,3.3763,3.3022,3.2259,3.2193,3.1035,2.9956,2.9873,2.981,2.9659,2.9334,2.9158,2.8148,2.5315,2.4691,2.3824,0.0,0.0,0.0,1.4904,0.0,0.0,0.0,1.166,1.2121,1.1953,0.0,0.0,1.2521,1.2715,1.2474,1.1608,1.1361,1.1527,1.2269,1.31,1.329,1.283,1.3658,1.3835,1.3465,1.3465,1.324,0.0,0.0,0.0,0.0,1.2104,1.1997,1.1617,1.2104,1.2122,1.1966,1.259,1.2984,1.3233,1.3856,1.4343,1.4744,1.4971,1.5197,1.5374,1.5416,1.4893,1.4305,1.4506,1.4565,1.4636,1.4914,1.4999,1.5076,1.5427,1.5441,1.5432,1.5571,1.5525,1.5525,1.5679,1.5846,1.6095,1.6367,1.634,1.6253,1.6073,1.6127,1.5871,1.4947,1.4718,1.4409,1.3803,1.3255,1.2948,1.2901,1.1704,1.0592,0.9713,0.8859,0.7691,0.6135,0.5294,0.3927,0.196,0.1154,0.012,-0.1131,-0.1902,-0.262,-0.3289,-0.3515,-0.3538,0.0,3.3218,3.2867,3.2947,3.2213,3.1522,3.1794,3.0807,0.0,3.0272,3.0062,2.9713,2.9366,2.8884,2.7964,2.6146,2.4788,2.3687,0.0,1.9114,0.0,0.0,1.6651,0.0,1.1592,1.4044,1.5113,1.302,0.0,0.0,1.52,1.4949,1.4789,1.4835,1.4228,1.4136,1.4698,1.4744,1.4744,1.4744,1.4789,1.4846,1.4846,1.4846,1.4789,0.0,0.0,0.0,0.0,1.4698,1.4698,1.4698,1.4698,1.4297,1.3846,1.4503,1.4389,1.3939,1.4595,1.4846,1.4926,1.5499,1.6051,1.6522,1.6522,1.6158,1.5897,1.6371,1.6552,1.6595,1.6552,1.6604,1.6625,1.6625,1.6623,1.6684,1.7078,1.6655,1.6303,1.6709,1.6528,1.6256,1.6005,1.6128,1.6179,1.5945,1.5521,1.5237,1.5237,1.4874,1.4593,1.4593,1.4358,1.4184,1.4184,1.2207,1.0683,1.0008,0.8931,0.7951,0.7175,0.5594,0.4536,0.4035,0.2773,0.1838,0.1354,0.0066,-0.0757,-0.1149,-0.1617,-0.159,3.3682,0.0,3.35,3.3579,3.2781,3.209,0.0,0.0,0.0,0.0,0.0,3.0806,3.0482,2.9699,2.8926,2.8385,2.7639,2.5913,2.2337,0.0,0.0,1.8102,1.8132,1.7831,1.7171,1.6344,1.5509,0.0,0.0,1.4971,1.4846,1.5209,1.5576,1.6003,1.5896,1.5454,1.4698,1.5141,1.541,1.541,1.5876,1.6064,1.6064,1.6064,1.5832,0.0,0.0,0.0,1.4698,1.4698,1.4698,1.4698,1.4698,1.4606,1.4538,1.5141,1.5309,1.5252,1.5876,1.6064,1.6107,1.6238,1.638,1.6522,1.6522,1.6705,1.6853,1.66,1.7076,1.7626,1.7229,1.741,1.7728,1.7728,1.7656,1.7584,1.7691,1.7524,1.7362,1.7458,1.6983,1.6834,1.7517,1.6694,1.615,1.6826,1.6194,1.5672,1.5672,1.5137,1.4754,1.4754,1.4248,1.3895,1.3895,1.2528,1.1573,1.1433,1.02,0.9177,0.8398,0.7697,0.6716,0.5387,0.3785,0.2606,0.1821,0.1274,0.0773,0.0388,0.0,-0.0146,3.2931,3.3189,3.3349,3.3488,3.2672,3.1901,3.218,0.0,0.0,0.0,0.0,3.0891,3.0493,2.914,2.8237,2.877,2.718,0.0,0.0,0.0,1.8519,1.9233,1.8583,1.7955,0.0,0.0,0.0,0.0,0.0,1.586,1.5884,1.6188,1.6604,1.7177,1.7216,1.6912,1.628,1.6348,1.6519,1.676,1.7092,1.7229,1.7229,1.6993,1.6811,0.0,0.0,0.0,1.5884,1.5644,1.5522,1.5522,1.5522,1.5522,1.5567,1.5876,1.5996,1.6051,1.638,1.668,1.6909,1.7146,1.7229,1.7229,1.7229,1.7626,1.7867,1.7076,1.7312,1.7706,1.7666,1.8066,1.8458,1.8458,1.8596,1.8731,1.8731,1.8421,1.8179,1.8179,1.7753,1.7516,1.7897,1.7365,1.6924,1.7014,1.6548,1.6099,1.5844,1.5484,1.5274,1.5274,1.4917,1.4626,1.4405,1.3536,1.2782,1.2316,1.1088,1.0225,0.9817,0.9028,0.8004,0.6754,0.5055,0.4105,0.3985,0.3205,0.2792,0.271,0.2317,0.2022,3.1839,3.1862,3.2166,3.2728,3.2043,3.1243,3.1386,0.0,0.0,0.0,0.0,3.0318,2.9962,2.8107,0.0,2.7913,0.0,0.0,2.192,2.0465,1.9437,1.9239,1.8915,0.0,1.7014,0.0,0.0,0.0,0.0,1.7008,1.7568,1.7475,1.7707,1.8363,1.8201,1.8185,1.8341,1.7747,1.7666,1.8106,1.8106,1.8106,1.8066,1.7626,1.7666,1.8066,0.0,0.0,1.7271,1.6795,1.6552,1.6522,1.6522,1.6552,1.6637,1.6637,1.668,1.6752,1.6752,1.7034,1.7504,1.7947,1.8106,1.8106,1.8106,1.8419,1.8612,1.7787,1.7585,1.7747,1.8145,1.8612,1.9006,1.9006,1.9369,1.969,1.969,1.9311,1.8921,1.8852,1.8614,1.8315,1.8148,1.8158,1.7976,1.7226,1.7014,1.6713,1.6038,1.5948,1.5903,1.5814,1.5799,1.5639,1.5225,1.4732,1.4027,1.3038,1.1853,1.1112,1.1001,0.9896,0.8878,0.8009,0.6484,0.5932,0.6427,0.5377,0.4985,0.5148,0.4701,0.4328,3.1263,2.9666,2.8588,3.0784,3.0812,3.0273,3.0127,0.0,0.0,0.0,0.0,0.0,0.0,2.791,2.6485,0.0,0.0,2.4426,0.0,0.0,2.0804,2.2823,0.0,1.9331,2.1693,0.0,0.0,0.0,0.0,1.8193,1.8783,1.8302,1.846,1.9595,1.8621,1.8535,1.9442,1.8458,1.8027,1.8106,1.8106,1.8106,1.8106,1.8027,1.8027,1.8106,0.0,1.7626,1.7312,1.7188,1.6909,1.6522,1.6522,1.6795,1.7188,1.7188,1.7463,1.7867,1.7867,1.7907,1.7987,1.8066,1.8106,1.8106,1.8106,1.8185,1.8302,1.8574,1.8968,1.9244,1.8855,1.9169,1.9566,1.9566,1.9639,1.969,1.969,1.9889,1.9936,1.9596,1.9363,1.9369,1.9811,1.9043,1.8532,1.8902,1.8485,1.7762,1.6713,1.6562,1.6353,1.5858,1.5799,1.577,1.5712,1.5271,1.4752,1.4256,1.2817,1.1716,1.1032,1.0473,0.9788,0.8911,0.8302,0.7671,0.6988,0.6967,0.6758,0.6414,0.6013,0.5705,2.9854,2.8952,2.7723,2.5789,2.4561,2.3668,0.0,0.0,0.0,0.0,0.0,0.0,0.0,0.0,2.3039,2.1694,0.0,2.3337,2.2307,2.1331,2.094,0.0,0.0,1.9344,0.0,0.0,0.0,0.0,0.0,0.0,1.8959,1.8691,1.8908,1.9788,1.924,1.9207,1.969,1.9207,1.9156,1.9503,1.9142,1.9156,1.9489,1.8807,1.8688,1.893,0.0,1.8145,1.8145,1.7544,1.7353,1.7353,1.7034,1.7271,1.7747,1.7747,1.7907,1.8145,1.8419,1.8535,1.8574,1.8855,1.8968,1.8968,1.8968,1.8968,1.9006,1.9244,1.9281,1.9281,1.9332,1.953,1.969,1.969,1.969,1.969,1.969,1.9839,1.9909,1.9762,1.9612,1.9665,1.9919,1.9478,1.9086,1.904,1.8766,1.8243,1.7356,1.7234,1.6995,1.6338,1.6293,1.6055,1.5477,1.5448,1.5104,1.4214,1.3284,1.2441,1.185,1.1387,1.0822,1.0154,0.9264,0.8697,0.8404,0.8038,0.7811,0.7786,0.7573,0.7397,2.843,2.7827,2.6262,2.1312,2.022,0.0,0.0,0.0,0.0,0.0,0.0,0.0,0.0,2.1787,0.0,1.9297,2.1156,2.2108,2.0549,2.074,2.0795,2.0178,0.0,0.0,0.0,0.0,0.0,0.0,0.0,0.0,1.9275,1.9168,1.9354,1.9929,1.9765,1.9765,1.9929,1.9929,2.0109,2.0468,2.0094,2.0198,2.0654,1.9727,1.9567,1.9878,1.8912,1.865,1.8855,1.8027,1.7827,1.8066,1.7666,1.7827,1.8302,1.8419,1.8458,1.8535,1.893,1.9095,1.9169,1.9566,1.969,1.969,1.969,1.969,1.969,1.969,1.9406,1.9169,1.9603,1.9782,1.9839,1.9839,1.9839,1.9839,1.9839,1.9909,1.998,1.9874,2.0015,2.0139,2.0139,2.0139,1.997,1.9449,1.9321,1.8943,1.8193,1.802,1.7667,1.701,1.6936,1.6603,1.5779,1.5964,1.5705,1.4719,1.3859,1.3138,1.2685,1.2321,1.1861,1.1383,1.0305,0.9832,1.005,0.923,0.9047,0.9412,0.9182,0.8906,2.7473,2.5128,2.2151,1.9594,2.247,0.0,1.6827,1.8331,0.0,1.9282,0.0,0.0,0.0,2.2005,2.1487,2.1624,2.2019,2.1851,2.0549,0.0,2.0683,0.0,0.0,0.0,0.0,0.0,0.0,0.0,0.0,0.0,2.0557,1.9997,1.9937,2.0617,2.0019,1.9989,2.0632,2.0647,2.0348,1.9765,2.0363,2.0662,2.0722,2.0624,2.0594,2.0602,1.9886,1.9332,1.8893,1.8817,1.8496,1.8106,1.8066,1.838,1.8893,1.9406,1.9566,1.9603,1.9639,1.9639,1.9639,1.969,1.969,1.969,1.969,1.969,1.969,1.969,1.969,1.9639,1.969,1.9965,2.0246,2.0246,2.0246,2.0246,2.0246,2.0583,2.0764,2.0348,2.0894,2.146,2.146,2.146,2.1444,2.1395,2.1069,2.0447,1.9401,1.8897,1.8388,1.7697,1.7623,1.7608,1.7516,1.7192,1.6978,1.6877,1.4957,1.3648,1.3163,1.3126,1.2871,1.2389,1.1877,1.1634,1.1616,1.1052,1.1052,1.1542,1.056,1.0079,2.6484,2.4,2.1008,1.8812,2.0053,0.0,0.0,1.2939,1.4651,1.5274,1.6407,0.0,0.0,0.0,1.8624,1.9306,2.0154,2.0398,1.9599,2.0208,0.0,0.0,0.0,0.0,0.0,0.0,0.0,0.0,0.0,0.0,2.0416,1.999,2.0119,2.1063,2.0572,2.0453,2.0722,2.1409,2.1272,2.0318,2.0587,2.1141,2.1889,2.0647,2.0318,2.0677,1.9989,1.9566,1.9369,1.9043,1.8968,1.9095,1.9095,1.9207,1.9406,1.9639,1.969,1.969,1.969,1.969,1.969,1.969,1.969,1.969,1.969,1.969,1.969,1.969,1.969,1.969,1.969,1.9803,2.0,2.0246,2.0314,2.0382,2.0682,2.0862,2.0959,2.0764,2.1023,2.1213,2.1213,2.1213,2.1213,2.1213,2.1086,2.0734,2.0055,1.9808,1.9341,1.8437,1.7936,1.7697,1.7697,1.7552,1.7372,1.7122,1.5799,1.4937,1.4771,1.4126,1.3519,1.3021,1.2494,1.2102,1.1811,1.159,1.1579,1.1774,1.1383,1.1185,2.4173,2.2075,1.9497,1.7199,0.0,0.0,1.0484,1.0338,1.1564,1.2213,1.3769,0.0,0.0,0.0,0.0,0.0,1.905,1.9365,1.9109,1.9817,0.0,0.0,0.0,0.0,0.0,0.0,0.0,0.0,0.0,0.0,0.0,2.0246,2.0557,2.11,2.1039,2.1126,2.1335,2.2117,2.2117,2.1335,2.1461,2.1982,2.2664,2.1051,2.0572,2.0976,2.0079,1.969,1.969,1.9281,1.9369,1.969,1.969,1.969,1.969,1.969,1.969,1.969,1.969,1.969,1.969,1.969,1.969,1.969,1.969,1.969,1.969,1.969,1.969,1.969,1.969,1.9782,2.0,2.0416,2.0516,2.0649,2.1086,2.1181,2.1181,2.1181,2.1323,2.1415,2.1415,2.1415,2.1415,2.1415,2.1275,2.1023,2.0583,2.0516,2.0177,1.9307,1.8665,1.8343,1.8343,1.8343,1.8193,1.7939,1.7169,1.6403,1.5745,1.4824,1.4188,1.3798,1.3286,1.2947,1.2761,1.2611,1.2611,1.2761,1.2413,1.235,2.0416,1.9116,1.7173,1.4379,0.0,0.0,1.0323,1.1726,1.3237,1.0476,0.0,1.6263,1.8319,0.0,0.0,1.9745,1.9403,1.9028,1.9347,0.0,0.0,0.0,0.0,0.0,0.0,0.0,0.0,0.0,0.0,0.0,0.0,2.0946,2.138,2.0752,2.1365,2.2009,2.2709,2.2724,2.2724,2.2709,2.3176,2.3176,2.2694,2.1979,2.1695,2.162,2.0273,1.969,1.969,1.969,1.969,1.969,1.969,1.969,1.969,1.969,1.969,1.969,1.969,1.969,1.969,1.969,1.969,1.969,1.969,1.969,1.9726,1.9726,1.9726,1.9711,1.9711,2.0,2.0416,2.0894,2.0991,2.1118,2.1521,2.1628,2.1628,2.1628,2.1974,2.231,2.231,2.231,2.231,2.231,2.1899,2.146,2.1055,2.0991,2.0797,2.0348,1.9929,1.969,1.969,1.969,1.969,1.969,1.9207,1.7946,1.5835,1.5209,1.4916,1.4916,1.4398,1.4347,1.4916,1.4347,1.4386,1.4852,1.381,1.3593,2.2102,1.8793,1.5661,1.6401,0.0,0.0,0.0,1.1117,0.0,0.0,1.3167,1.6039,1.6908,0.0,0.0,1.8532,1.8942,0.0,0.0,0.0,0.0,0.0,0.0,0.0,0.0,0.0,0.0,0.0,0.0,0.0,0.0,2.0473,2.1151,2.3026,2.2492,2.2524,2.32,2.4021,2.4021,2.3216,2.3823,2.3621,2.2679,2.1912,2.1614,2.162,2.0273,1.969,1.969,1.969,1.969,1.969,1.969,1.969,1.969,1.969,1.969,1.969,1.969,1.969,1.969,1.969,1.969,1.969,1.969,1.9909,2.0124,2.0124,2.0364,2.0599,2.0599,2.0698,2.0829,2.0959,2.0991,2.1197,2.1945,2.2106,2.2106,2.2106,2.2209,2.231,2.231,2.231,2.231,2.231,2.1899,2.1337,2.0616,2.0261,2.005,1.9909,1.9782,1.969,1.969,1.969,1.969,1.969,1.9207,1.8607,1.796,1.7078,1.642,1.6049,1.5516,1.5133,1.4916,1.4736,1.4736,1.4903,1.4586,1.4509,1.8426,1.5792,0.0,1.2742,1.1099,0.9813,1.0106,0.0,0.0,0.0,0.0,1.5402,1.5856,1.696,0.0,1.8081,0.0,0.0,0.0,0.0,0.0,0.0,0.0,0.0,0.0,0.0,0.0,0.0,0.0,0.0,0.0,2.0803,2.1651,2.3638,2.3001,2.3127,2.4107,2.4551,2.4408,2.373,2.4601,2.4265,2.284,2.1964,2.1751,2.2024,2.0946,2.0333,2.0094,2.0094,2.0094,2.0064,1.9794,1.969,1.969,1.969,1.969,1.969,1.969,1.969,1.9726,1.9874,1.9929,1.9929,1.9929,2.0089,2.0314,2.0314,2.0516,2.0748,2.0959,2.0991,2.1023,2.1213,2.1244,2.1446,2.2152,2.231,2.231,2.231,2.231,2.231,2.231,2.231,2.231,2.231,2.1899,2.1413,2.0894,2.028,1.9929,1.9929,1.9782,1.969,1.969,1.969,1.969,1.969,1.9406,1.9207,1.9207,1.8182,1.7477,1.7127,1.6829,1.6501,1.6166,1.6166,1.6049,1.5865,1.5633,1.5646,1.2109,1.1477,1.1013,0.6289,0.7503,0.0,0.8345,0.9658,1.1144,1.1546,0.0,1.4656,1.5265,1.6678,1.7882,1.8269,0.0,0.0,0.0,0.0,0.0,0.0,0.0,0.0,0.0,0.0,0.0,0.0,0.0,0.0,0.0,2.16,2.2535,2.3138,2.3099,2.3743,2.5051,2.4404,2.4083,2.4193,2.5219,2.4824,2.3138,2.2293,2.2094,2.245,2.1869,2.1231,2.0617,2.0617,2.0617,2.0557,1.9929,1.972,1.9765,1.9705,1.9756,1.9837,1.9777,1.9782,1.9889,2.0261,2.0348,2.0348,2.0348,2.0382,2.0416,2.0416,2.0449,2.0583,2.0991,2.1134,2.1229,2.1568,2.1628,2.1718,2.2209,2.231,2.231,2.231,2.231,2.231,2.231,2.231,2.2282,2.2237,2.1869,2.1582,2.1491,2.0797,2.028,2.0246,1.9909,1.969,1.969,1.969,1.969,1.969,1.969,1.969,1.969,1.8765,1.8224,1.8185,1.8185,1.8145,1.8106,1.8066,1.7787,1.7381,1.6811,1.6851,1.5783,1.2829,0.0,1.0024,1.033,1.0627,1.024,1.1668,1.2769,1.1771,1.2893,1.4402,1.5628,1.6846,1.7857,1.8515,0.0,0.0,0.0,0.0,0.0,0.0,0.0,0.0,0.0,0.0,0.0,0.0,0.0,0.0,2.1623,2.1959,2.2563,2.3537,2.3669,2.3817,2.4045,2.3863,2.3782,0.0,2.37,2.3619,2.3553,2.3466,2.2471,2.0799,2.0888,2.0543,1.9914,1.9914,1.9914,1.9884,1.975,2.0019,2.0423,1.9884,2.0243,2.0865,2.0343,2.0431,2.0731,2.0829,2.0862,2.0862,2.0862,2.107,2.1321,2.1321,2.1598,2.1869,2.1974,2.202,2.2049,2.2135,2.1869,2.1718,2.2209,2.231,2.231,2.231,2.231,2.231,2.231,2.231,2.2163,2.1794,2.1658,2.1352,2.0667,2.0416,2.0193,1.9874,1.9747,1.969,1.969,1.969,1.969,1.969,1.969,1.969,1.969,1.9479,1.9169,1.8727,1.8727,1.8535,1.8106,1.7666,1.7626,1.7907,1.7383,1.7437,1.4857,1.2924,0.0,1.076,0.0,1.1564,1.1546,1.3082,1.4293,1.3726,1.4412,1.5405,1.6367,1.7429,1.8232,0.0,0.0,0.0,0.0,0.0,0.0,0.0,0.0,0.0,0.0,0.0,0.0,0.0,0.0,2.1392,2.2281,2.2037,2.2523,2.4046,2.3477,2.346,2.4079,2.3729,2.3729,2.4079,2.3836,2.3654,2.3547,2.3254,2.2232,2.0646,2.1022,2.1031,2.0791,2.0543,2.0487,2.0457,2.0366,2.0404,2.0466,2.0102,2.0478,2.107,2.0506,2.0449,2.0715,2.115,2.115,2.1039,2.1213,2.143,2.1582,2.1582,2.1794,2.2032,2.2237,2.231,2.231,2.231,2.2106,2.2003,2.2254,2.231,2.231,2.231,2.231,2.231,2.231,2.231,2.2209,2.1957,2.1928,2.1705,2.1007,2.0748,2.0465,2.0035,1.9803,1.969,1.969,1.969,1.969,1.969,1.969,1.969,1.969,1.969,1.9566,1.9281,1.9281,1.9169,1.8855,1.8574,1.8458,1.8496,1.8224,1.8224,1.3293,1.2933,1.331,1.0406,1.0994,0.0,1.26,1.3953,1.5354,1.5931,1.6244,1.6579,1.7245,1.8137,1.8768,0.0,0.0,0.0,0.0,0.0,0.0,0.0,0.0,0.0,0.0,0.0,0.0,0.0,0.0,2.1645,2.2562,2.2148,2.2595,2.4069,2.3054,2.3004,2.4103,2.3511,2.3511,2.4133,2.4133,2.3849,2.338,2.2673,2.1897,2.1135,2.1547,2.1759,2.1804,2.1396,2.1257,2.1245,2.1211,2.1001,2.0774,2.0705,2.0944,2.1277,2.0769,2.0577,2.0682,2.146,2.1507,2.1308,2.1777,2.1817,2.1751,2.1867,2.1817,2.1794,2.2209,2.231,2.231,2.231,2.231,2.231,2.231,2.231,2.231,2.231,2.231,2.231,2.231,2.231,2.231,2.231,2.231,2.2135,2.1658,2.1244,2.0829,2.0348,1.9929,1.969,1.969,1.969,1.969,1.969,1.969,1.969,1.969,1.969,1.969,1.969,1.969,1.969,1.969,1.9603,1.9369,1.9043,1.893,1.8968,1.6431,0.0,1.2767,0.0,1.149,1.2519,0.0,0.0,1.5429,0.0,1.6449,1.6755,1.793,1.8469,1.9085,0.0,0.0,0.0,0.0,0.0,0.0,0.0,0.0,0.0,0.0,0.0,0.0,0.0,2.2123,2.2185,2.2343,2.2866,2.2979,2.2615,2.3021,2.3038,2.2598,2.2513,2.2513,2.2598,2.2598,2.2885,2.3393,2.2892,2.2244,2.154,2.1839,2.1657,2.1135,2.107,2.1037,2.1085,2.1712,2.2271,2.2674,2.228,2.2425,2.27,2.2025,2.1617,2.1521,2.2032,2.218,2.2269,2.295,2.2697,2.2343,2.2967,2.2697,2.2209,2.2282,2.231,2.231,2.231,2.231,2.231,2.231,2.231,2.231,2.231,2.231,2.231,2.231,2.231,2.231,2.231,2.231,2.2135,2.1658,2.1244,2.0829,2.0348,1.9929,1.969,1.969,1.969,1.969,1.969,1.969,1.969,1.969,1.969,1.969,1.969,1.969,1.969,1.969,1.9244,1.9207,1.9566,1.9132,1.9169,1.7593,1.5769,1.4142,0.0,1.378,1.4791,1.5226,1.6079,1.6927,1.7617,1.7744,1.7959,1.8515,1.8987,1.9619,0.0,0.0,0.0,0.0,0.0,0.0,0.0,0.0,0.0,0.0,0.0,0.0,0.0,2.2682,2.2919,2.2919,2.2835,2.2835,2.2919,2.2835,2.2632,2.231,2.231,2.231,2.231,2.231,2.2699,2.3393,2.318,2.2936,2.2608,2.2654,2.2313,2.1754,2.1902,2.1811,2.1648,2.2489,2.2949,2.3103,2.3208,2.3518,2.3819,2.3243,2.2998,2.2959,2.3392,2.3379,2.3307,2.384,2.3494,2.2987,2.3308,2.2868,2.231,2.231,2.231,2.231,2.231,2.231,2.231,2.231,2.231,2.231,2.231,2.231,2.231,2.231,2.2649,2.2784,2.2361,2.2649,2.2693,2.2082,2.1598,2.1275,2.1054,2.0449,2.0035,2.0035,1.9854,1.969,1.969,1.969,1.969,1.969,1.969,1.969,1.969,1.969,1.969,1.969,1.9442,1.9479,1.969,1.9442,1.9479,1.8506,0.0,1.6312,1.5206,1.5696,1.6549,0.0,0.0,1.7891,0.0,1.8862,1.897,1.9208,1.9691,2.0245,2.093,0.0,0.0,0.0,0.0,0.0,0.0,0.0,0.0,0.0,0.0,0.0,0.0,2.3088,2.3325,2.3122,2.2598,2.2564,2.3105,2.2598,2.231,2.231,2.231,2.231,2.231,2.2496,2.297,2.368,2.3866,2.3951,2.3938,2.344,2.2993,2.2586,2.2578,2.2503,2.2427,2.3321,2.3714,2.3777,2.4263,2.453,2.4589,2.4232,2.4017,2.3967,2.4351,2.4288,2.4097,2.4413,2.3968,2.3427,2.3613,2.3004,2.2395,2.2767,2.2733,2.2581,2.2581,2.2733,2.2767,2.2395,2.231,2.231,2.231,2.2462,2.253,2.2344,2.2919,2.3139,2.2412,2.2784,2.2919,2.2378,2.1794,2.1491,2.1582,2.083,2.0314,2.0314,2.0019,1.9818,1.9726,1.969,1.969,1.969,1.969,1.969,1.969,1.969,1.969,1.969,1.969,1.969,1.969,1.969,1.969,0.0,1.9371,0.0,1.6707,1.6191,1.6287,0.0,0.0,1.7179,1.8926,1.91,1.9149,1.9983,2.0448,2.093,2.1568,0.0,0.0,0.0,0.0,0.0,0.0,0.0,0.0,0.0,0.0,0.0,0.0,2.3376,2.3088,2.2395,2.2327,2.2327,2.2361,2.2327,2.231,2.231,2.231,2.231,2.231,2.3004,2.3714,2.4472,2.5169,2.549,2.5423,2.4005,2.338,2.3291,2.2603,2.2709,2.3401,2.4154,2.485,2.5495,2.5791,2.5504,2.4943,2.4808,2.4379,2.3967,2.4351,2.4475,2.4475,2.4475,2.3968,2.3545,2.4269,2.341,2.2632,2.4002,2.3849,2.3342,2.3342,2.3866,2.3985,2.2598,2.231,2.231,2.231,2.2868,2.3122,2.2429,2.2919,2.3139,2.2412,2.2344,2.2344,2.231,2.1554,2.1181,2.1552,2.083,2.0314,2.0314,2.028,2.0089,1.9711,1.969,1.969,1.969,1.969,1.969,1.969,1.969,1.969,1.969,1.969,1.969,1.969,1.969,1.969,0.0,0.0,0.0,1.9098,1.8499,1.8323,1.8711,1.8656,1.9072,2.064,2.0611,2.0547,2.1412,2.116,2.0979,2.1615,0.0,0.0,0.0,0.0,0.0,0.0,0.0,0.0,0.0,0.0,0.0,0.0,0.0,2.3765,2.3054,2.2564,2.231,2.231,2.231,2.231,2.231,2.231,2.231,2.231,2.2581,2.3088,2.3816,2.4543,2.5152,2.5575,2.505,2.4543,2.4103,2.4323,2.4355,2.4364,2.4957,2.5479,2.5896,2.6301,2.5983,2.5463,2.5866,2.5262,2.4404,2.5019,2.4881,2.4608,2.505,2.4357,2.3646,2.4864,2.3799,2.2547,2.3528,2.3596,2.3393,2.3393,2.3241,2.2936,2.2412,2.231,2.231,2.231,2.2902,2.3308,2.3054,2.4019,2.4408,2.319,2.341,2.3359,2.2429,2.202,2.1886,2.2032,2.1275,2.0764,2.0764,2.0227,1.9839,1.9726,1.969,1.969,1.969,1.969,1.969,1.969,1.969,1.969,1.969,1.969,1.969,1.969,1.969,1.969,2.1613,0.0,0.0,0.0,2.0526,2.0122,1.9855,0.0,2.0427,2.1728,2.1476,2.1411,2.2854,2.2161,2.1537,2.1988,2.2575,0.0,0.0,0.0,0.0,0.0,0.0,0.0,0.0,0.0,0.0,0.0,0.0,0.0,2.3444,2.2936,2.2564,2.231,2.231,2.231,2.231,2.231,2.231,2.231,2.2564,2.3054,2.3782,2.4526,2.527,2.5981,2.5981,2.5541,2.4881,2.5118,2.5161,2.5112,2.5462,2.5849,2.6262,2.659,2.6387,2.6048,2.6522,2.6048,2.527,2.5524,2.5439,2.522,2.522,2.4543,2.4019,2.5253,2.4188,2.2953,2.4188,2.4137,2.3816,2.4086,2.3393,2.2801,2.3308,2.3021,2.2682,2.2682,2.346,2.4052,2.3799,2.4797,2.5186,2.3934,2.4201,2.4052,2.2835,2.2534,2.2505,2.2637,2.1793,2.1247,2.1359,2.0605,2.0015,1.9711,1.969,1.969,1.969,1.969,1.969,1.969,1.969,1.969,1.969,1.969,1.969,1.969,1.969,1.969,0.0,0.0,0.0,0.0,0.0,0.0,1.9785,0.0,2.1068,2.1948,2.1614,2.1814,2.4042,2.3464,2.2665,2.2704,2.3231,0.0,0.0,0.0,0.0,0.0,0.0,0.0,0.0,0.0,0.0,0.0,2.5625,2.4983,2.3528,2.3444,2.3088,2.2361,2.2344,2.2327,2.231,2.231,2.2327,2.2344,2.3054,2.3782,2.454,2.5236,2.5981,2.6657,2.6657,2.6268,2.5592,2.4847,2.4966,2.5609,2.5625,2.6065,2.6657,2.6657,2.6657,2.6657,2.6657,2.664,2.6522,2.5812,2.6048,2.6353,2.4929,2.4489,2.4644,2.5389,2.4543,2.39,2.6065,2.5524,2.4611,2.5423,2.4475,2.3782,2.5236,2.4441,2.346,2.3427,2.4594,2.5355,2.4644,2.5118,2.5372,2.4659,2.454,2.4286,2.3528,2.3029,2.292,2.338,2.2348,2.1771,2.2067,2.1423,2.0599,1.9747,1.969,1.969,1.969,1.969,1.969,1.969,1.969,1.969,1.969,1.969,1.969,1.969,1.969,1.969,2.2128,0.0,0.0,0.0,0.0,0.0,0.0,0.0,2.287,2.2842,2.3529,2.4062,2.3751,2.3839,2.3851,2.3422,2.3508,0.0,0.0,0.0,0.0,0.0,0.0,0.0,0.0,0.0,0.0,0.0,2.5896,2.5423,2.5017,2.4475,2.3849,2.3122,2.3105,2.2835,2.231,2.231,2.2581,2.3105,2.3291,2.3782,2.4523,2.4726,2.5203,2.5913,2.5913,2.6099,2.637,2.6167,2.5896,2.5659,2.6184,2.6184,2.5913,2.5913,2.5913,2.5913,2.5913,2.5558,2.5099,2.4864,2.4932,2.4915,2.3985,2.4069,2.4644,2.5389,2.4543,2.3663,2.4797,2.4002,2.3359,2.5186,2.4475,2.3511,2.3917,2.4526,2.4831,2.4289,2.4509,2.4898,2.5236,2.5456,2.5541,2.5338,2.5304,2.5033,2.4272,2.4062,2.4062,2.4171,2.3129,2.2326,2.2099,2.111,2.0261,1.9711,1.969,1.969,1.969,1.969,1.969,1.969,1.969,1.969,1.969,1.969,1.969,1.969,1.969,1.969,0.0,0.0,0.0,0.0,0.0,0.0,2.195,2.2867,2.361,0.0,2.3784,2.4549,2.4667,2.45,2.4469,2.4667,2.4698,2.4715,0.0,0.0,0.0,0.0,0.0,0.0,0.0,2.6691,2.6691,2.6691,2.6302,2.593,2.5625,2.4881,2.4154,2.341,2.3393,2.3054,2.231,2.231,2.2682,2.3393,2.3393,2.3782,2.4506,2.4506,2.4898,2.5609,2.5609,2.6031,2.6691,2.6691,2.6268,2.5676,2.6404,2.6048,2.522,2.5828,2.5862,2.5642,2.5947,2.5575,2.4898,2.4608,2.4506,2.4371,2.3613,2.4032,2.4787,2.5079,2.4632,2.4115,2.4345,2.3798,2.3539,2.5178,2.4913,2.4378,2.4706,2.5575,2.5951,2.474,2.5014,2.5541,2.5981,2.6065,2.6065,2.6065,2.6065,2.5795,2.505,2.4949,2.4869,2.466,2.3734,2.3014,2.2651,2.1713,2.0946,2.055,2.0528,2.0528,2.0528,2.0528,2.0528,2.0528,2.0528,2.0393,2.0109,1.9824,1.969,1.969,1.969,1.969,0.0,0.0,0.0,0.0,0.0,0.0,2.1226,2.2536,2.3897,0.0,2.3392,2.4367,2.6044,2.5404,2.4958,2.6078,2.638,2.6225,2.5394,0.0,0.0,0.0,0.0,0.0,2.6708,2.6758,2.6758,2.6758,2.6808,2.6536,2.5825,2.521,2.4526,2.3752,2.3633,2.3277,2.2604,2.2491,2.2863,2.3718,2.3718,2.4109,2.4805,2.4737,2.5079,2.5727,2.5675,2.608,2.6741,2.6723,2.6282,2.5676,2.6319,2.5778,2.4763,2.5998,2.6133,2.5812,2.637,2.6201,2.5609,2.4847,2.4611,2.4489,2.3689,2.4236,2.4988,2.4599,2.4682,2.484,2.4531,2.4307,2.4413,2.5393,2.5508,2.5552,2.6286,2.6743,2.6554,2.4883,2.5641,2.659,2.6674,2.6623,2.6607,2.6674,2.6691,2.6454,2.5812,2.5727,2.5514,2.4972,2.4279,2.3705,2.3437,2.2724,2.2141,2.1734,2.1695,2.1695,2.1695,2.1695,2.1695,2.1695,2.162,2.1306,2.0722,2.0094,1.9765,1.969,1.969,1.969,0.0,0.0,0.0,0.0,0.0,0.0,2.2481,2.4013,2.5296,0.0,2.5523,2.6455,2.592,2.6213,2.6463,2.6522,2.7315,2.742,2.6043,0.0,0.0,0.0,0.0,0.0,2.6759,2.6987,2.7178,2.7178,2.747,2.7477,2.7002,2.715,2.6743,2.569,2.508,2.47,2.4545,2.3636,2.4028,2.5656,2.5656,2.6053,2.6743,2.6156,2.6079,2.6488,2.621,2.6488,2.7158,2.6824,2.6256,2.5625,2.5761,2.5642,2.5355,2.5033,2.5575,2.642,2.5981,2.6116,2.6353,2.5625,2.5389,2.5198,2.4116,2.4361,2.4923,2.4471,2.4401,2.4566,2.5102,2.4357,2.395,2.5968,2.5473,2.459,2.4749,2.5135,2.5322,2.4988,2.5405,2.5998,2.659,2.6201,2.6031,2.6607,2.6691,2.664,2.6488,2.6488,2.6303,2.5818,2.5053,2.4256,2.3484,2.2724,2.2141,2.1734,2.1695,2.1695,2.1695,2.1695,2.1695,2.1695,2.1171,2.0842,2.0722,2.0572,2.0228,1.969,1.969,1.969,0.0,0.0,0.0,2.0928,0.0,0.0,0.0,2.4277,2.5521,2.4782,2.5688,2.6564,2.6385,2.6826,2.7258,2.7416,2.8255,2.8488,2.7426,2.8217,2.8638,0.0,0.0,0.0,2.8168,2.8178,2.804,2.7624,2.7783,2.7811,2.7589,2.7783,2.7459,2.6532,2.6156,2.5752,2.5358,2.439,2.4764,2.6497,2.6048,2.6048,2.6416,2.6451,2.6365,2.6125,2.6365,2.6935,2.7601,2.7388,2.7087,2.6662,2.5678,2.4834,2.4223,2.4825,2.527,2.5642,2.6015,2.615,2.6115,2.5948,2.5634,2.5261,2.4863,2.4743,2.4822,2.5321,2.5033,2.4813,2.5793,2.5172,2.4685,2.6285,2.5744,2.4843,2.4843,2.5052,2.5127,2.4733,2.4854,2.5287,2.6031,2.615,2.615,2.615,2.615,2.6285,2.664,2.6048,2.5614,2.5607,2.4891,2.4196,2.3539,2.3158,2.2869,2.2637,2.2652,2.2652,2.2652,2.2652,2.2652,2.2652,2.2024,2.1695,2.1695,2.1365,2.0677,1.969,2.0034,2.0198,0.0,0.0,0.0,0.0,0.0,2.305,0.0,0.0,0.0,2.5008,2.5579,0.0,0.0,0.0,0.0,0.0,0.0,0.0,0.0,2.9719,0.0,0.0,0.0,0.0,2.9814,2.9645,2.9285,2.8629,2.8506,2.8443,2.8482,2.8396,2.8021,2.7344,2.7184,2.6819,2.615,2.5283,2.5638,2.7095,2.6232,2.5913,2.609,2.6632,2.6544,2.6003,2.6783,2.7468,2.7992,2.7914,2.7888,2.7709,2.6013,2.4677,2.3867,2.5317,2.5538,2.5347,2.6512,2.6546,2.6113,2.6432,2.6068,2.5542,2.5656,2.5301,2.5064,2.6264,2.5929,2.5474,2.6548,2.6117,2.5605,2.641,2.586,2.5144,2.5084,2.5067,2.4898,2.4337,2.4281,2.4509,2.527,2.5879,2.6116,2.5676,2.5609,2.5879,2.6607,2.5642,2.4996,2.5169,2.4686,2.4116,2.3636,2.3595,2.3595,2.3595,2.3595,2.3595,2.3595,2.3595,2.3595,2.3595,2.2996,2.2664,2.2529,2.1829,2.0946,1.9899,2.0587,2.0842,0.0,0.0,0.0,0.0,2.0685,0.0,0.0,0.0,2.6235,2.5997,0.0,0.0,0.0,0.0,0.0,0.0,0.0,0.0,3.0396,3.1674,3.1904,2.9936,0.0,0.0,0.0,3.0925,3.1088,3.1016,3.0631,3.0435,3.0559,3.0155,2.9726,2.9296,2.8655,2.824,2.808,2.7041,2.7094,2.8224,2.7389,2.7371,2.8036,2.7425,2.7325,2.766,2.8058,2.8278,2.8314,2.796,2.7826,2.772,2.6915,2.6896,2.7257,2.6823,2.7007,2.7536,2.7712,2.7712,2.7659,2.767,2.7371,2.6842,2.6231,2.6182,2.638,2.6554,2.6518,2.6606,2.7438,2.6539,2.5605,2.641,2.5438,2.4241,2.3961,2.3674,2.3552,2.3894,2.3733,2.3748,2.4492,2.4678,2.4932,2.5507,2.5609,2.5879,2.6607,2.6539,2.6132,2.5281,2.5118,2.4658,2.3666,2.3595,2.3595,2.3595,2.3595,2.3595,2.3595,2.3595,2.3595,2.3595,2.2996,2.2398,2.1799,2.1141,2.0752,2.0617,2.1276,2.1276,0.0,0.0,0.0,0.0,0.0,0.0,2.3629,0.0,2.6523,0.0,0.0,0.0,0.0,0.0,0.0,0.0,3.0605,0.0,0.0,0.0,3.173,0.0,0.0,0.0,0.0,0.0,0.0,0.0,3.0937,3.0932,3.0531,3.0741,3.0601,2.9977,2.9655,2.9247,2.8749,2.7828,2.7828,2.8731,2.7911,2.7711,2.8057,2.8184,2.8094,2.7863,2.8482,2.8749,2.8731,2.8562,2.8503,2.848,2.8185,2.7583,2.6841,2.6819,2.7004,2.7323,2.7738,2.7897,2.7926,2.8129,2.8204,2.8002,2.6767,2.6819,2.72,2.6741,2.6943,2.7475,2.8301,2.764,2.6759,2.6631,2.5731,2.4681,2.3865,2.3455,2.3199,2.3198,2.2969,2.3004,2.3714,2.456,2.5236,2.5558,2.5609,2.5879,2.6607,2.5665,2.5023,2.5163,2.4198,2.3537,2.3621,2.3266,2.3221,2.358,2.3595,2.3595,2.3595,2.3595,2.3595,2.3595,2.2996,2.2712,2.2802,2.2434,2.2072,2.1614,2.1272,2.0976,1.6872,0.0,0.0,0.0,0.0,0.0,0.0,0.0,0.0,0.0,0.0,0.0,0.0,0.0,0.0,0.0,0.0,3.1205,0.0,3.1571,0.0,0.0,0.0,0.0,0.0,0.0,0.0,0.0,0.0,3.1924,3.1219,3.1531,3.1366,3.0558,3.0522,3.0044,2.8994,2.8429,2.8429,2.8975,2.8172,2.7915,2.8136,2.8521,2.8484,2.8154,2.876,2.8994,2.8994,2.8994,2.8994,2.8994,2.8994,2.8127,2.6939,2.7291,2.7404,2.7476,2.8022,2.8201,2.8228,2.8489,2.8749,2.8773,2.7622,2.7677,2.8007,2.742,2.7677,2.8264,2.8847,2.8246,2.7328,2.6741,2.5823,2.4827,2.3901,2.3455,2.3164,2.3041,2.2627,2.2598,2.3528,2.4255,2.4831,2.5236,2.5304,2.5558,2.6302,2.5179,2.455,2.5147,2.3817,2.306,2.3563,2.3191,2.3116,2.3565,2.3595,2.3595,2.3595,2.3595,2.3595,2.3595,2.3161,2.3071,2.334,2.3391,2.3026,2.23,2.1736,2.1212,0.0,0.0,0.0,1.8993,0.0,0.0,0.0,0.0,2.5661,0.0,0.0,0.0,0.0,0.0,0.0,0.0,0.0,0.0,0.0,0.0,0.0,0.0,0.0,0.0,0.0,0.0,0.0,0.0,0.0,0.0,3.3705,3.2981,3.2192,3.1384,3.1347,3.0595,2.9012,2.8957,2.8957,2.8975,2.8172,2.8209,2.892,2.8172,2.8246,2.8957,2.8975,2.8994,2.8994,2.8994,2.8994,2.8994,2.8994,2.8957,2.892,2.8915,2.8934,2.8934,2.8952,2.8952,2.897,2.8994,2.8994,2.8975,2.8938,2.8938,2.8957,2.892,2.8938,2.8957,2.8975,2.7842,2.6631,2.6612,2.5383,2.415,2.3774,2.3455,2.3323,2.3788,2.3021,2.2767,2.4218,2.3325,2.2902,2.4306,2.4557,2.478,2.5541,2.5796,2.575,2.5259,2.4665,2.4153,2.3638,2.358,2.358,2.3595,2.3595,2.3595,2.3595,2.3595,2.3595,2.3595,2.358,2.3281,2.2739,2.3176,2.3064,2.2412,2.301,2.2592,0.0,0.0,1.9177,1.9056,0.0,0.0,0.0,0.0,0.0,0.0,0.0,0.0,0.0,0.0,0.0,0.0,0.0,0.0,0.0,0.0,0.0,0.0,0.0,0.0,0.0,0.0,0.0,0.0,3.3361,0.0,0.0,3.3368,3.3103,3.2474,3.1765,3.087,2.9806,2.925,2.8994,2.8994,2.87,2.8741,2.8975,2.8723,2.8741,2.8994,2.8994,2.8994,2.8994,2.8994,2.8994,2.8994,2.8994,2.8994,2.8994,2.8994,2.8994,2.8994,2.8994,2.8994,2.8994,2.8994,2.8994,2.8883,2.8374,2.8594,2.8906,2.8356,2.8594,2.8994,2.8994,2.859,2.7934,2.6851,2.619,2.5393,2.3991,2.361,2.3458,2.3163,2.3246,2.3442,2.3723,2.3359,2.3359,2.4371,2.4915,2.5321,2.5575,2.5499,2.5411,2.5221,2.4058,2.3341,2.3565,2.3595,2.3595,2.3595,2.3595,2.3595,2.3595,2.3595,2.3595,2.3595,2.3595,2.345,2.3111,2.3304,2.3353,2.3264,2.2761,2.229,1.5659,1.7614,0.0,1.942,2.1164,0.0,2.2978,0.0,0.0,0.0,0.0,0.0,0.0,0.0,0.0,0.0,0.0,0.0,0.0,3.4521,0.0,0.0,0.0,0.0,0.0,0.0,0.0,3.3671,3.3641,3.3562,0.0,0.0,3.3508,3.29,3.2207,3.1292,3.021,2.9696,2.9292,2.8994,2.8994,2.8994,2.8994,2.8994,2.8994,2.8994,2.8994,2.8994,2.8994,2.8994,2.8994,2.8994,2.8994,2.8994,2.8994,2.8994,2.8994,2.8994,2.8994,2.8994,2.8994,2.8994,2.8994,2.8883,2.8374,2.8594,2.8906,2.8374,2.8613,2.8994,2.8994,2.8572,2.7897,2.6851,2.6374,2.5724,2.4046,2.4037,2.4094,2.3267,2.366,2.4041,2.3841,2.3782,2.3934,2.4438,2.4898,2.5304,2.5575,2.5535,2.5486,2.5486,2.4335,2.3672,2.3891,2.3879,2.3794,2.3595,2.3595,2.3595,2.3595,2.3595,2.3576,2.3489,2.3758,2.3646,2.3195,2.368,2.3815,2.3687,2.2932,2.2572]},{"header":{"parameterUnit":"m.s-1","parameterCategory":1,"la1":30.6,"la2":29.2853,"lo1":-89.7004,"lo2":-87.6739,"dy":0.0162,"dx":0.0183,"nx":112,"ny":82,"refTime":"2023-05-15T06:00:00:Z","depth":0,"parameterNumber":3,"parameterNumberName":"V-component_of_WINDS"},"data":[0.0,0.0,0.0,0.0,0.0,0.0,0.0,0.0,0.0,0.0,0.0,0.0,0.0,0.0,0.0,0.0,0.0,0.0,0.0,0.0,0.0,0.0,0.0,0.0,0.0,0.0,0.0,0.0,0.0,0.0,0.0,0.0,0.0,0.0,0.0,0.0,0.0,0.0,0.0,0.0,0.0,0.0,0.0,0.0,0.0,0.0,0.0,0.0,0.0,0.0,0.0,0.0,0.0,0.0,0.0,0.0,0.0,0.0,0.0,0.0,0.0,0.0,0.0,0.0,0.0,0.0,0.0,0.0,0.0,0.0,0.0,0.0,0.0,0.0,0.0,0.0,0.0,0.0,0.0,0.0,0.0,0.0,0.0,0.0,0.0,0.0,0.0,0.0,0.0,0.0,2.1367,1.6301,0.2958,-0.9134,-1.8033,-1.9041,-1.7093,-1.2178,0.0,0.0,0.0,0.0,0.0,0.0,0.0,0.0,0.0,0.0,0.0,0.0,0.0,0.0,0.0,0.0,0.0,0.0,0.0,0.0,0.0,0.0,0.0,0.0,0.0,0.0,0.0,0.0,0.0,0.0,0.0,0.0,0.0,0.0,0.0,0.0,0.0,0.0,0.0,0.0,0.0,0.0,0.0,0.0,0.0,0.0,0.0,0.0,0.0,0.0,0.0,0.0,0.0,0.0,0.0,0.0,0.0,0.0,0.0,0.0,0.0,0.0,0.0,0.0,0.0,0.0,0.0,0.0,0.0,0.0,0.0,0.0,0.0,0.0,0.0,0.0,0.0,0.0,0.0,0.0,0.0,0.0,0.0,0.0,0.0,0.0,0.0,0.0,0.0,0.0,0.0,0.0,0.0,0.0,0.0,0.0,0.0,0.0,0.0,0.0,0.0,0.0,0.0,0.0,1.9074,0.7793,-0.1931,-1.064,-1.7993,-1.9807,-1.9423,-1.6881,0.0,0.0,0.0,0.0,0.0,0.0,0.0,0.0,0.0,0.0,0.0,0.0,0.0,0.0,0.0,0.0,0.0,0.0,0.0,0.0,0.0,0.0,0.0,0.0,0.0,0.0,0.0,0.0,0.0,0.0,0.0,0.0,0.0,0.0,0.0,0.0,0.0,0.0,0.0,0.0,0.0,0.0,0.0,0.0,0.0,0.0,0.0,0.0,0.0,0.0,0.0,0.0,0.0,0.0,0.0,0.0,0.0,0.0,0.0,0.0,0.0,0.0,0.0,0.0,0.0,0.0,0.0,0.0,0.0,0.0,0.0,0.0,0.0,0.0,0.0,0.0,0.0,0.0,0.0,0.0,0.0,0.0,0.0,0.0,0.0,0.0,0.0,0.0,0.0,0.0,0.0,0.0,0.0,0.0,0.0,0.0,0.0,0.0,0.0,0.0,0.0,0.0,0.0,1.7971,1.1864,0.3138,-0.545,-1.296,-1.8982,-2.0781,-2.005,-1.6358,-1.5193,0.0,0.0,0.0,0.0,0.0,0.0,0.0,0.0,0.0,0.0,0.0,0.0,0.0,0.0,0.0,0.0,0.0,0.0,0.0,0.0,0.0,0.0,0.0,0.0,0.0,0.0,0.0,0.0,0.0,0.0,0.0,0.0,0.0,0.0,0.0,0.0,0.0,0.0,0.0,0.0,0.0,0.0,0.0,0.0,0.0,0.0,0.0,0.0,0.0,0.0,0.0,0.0,0.0,0.0,0.0,0.0,0.0,0.0,0.0,0.0,0.0,0.0,0.0,0.0,0.0,0.0,0.0,0.0,0.0,0.0,0.0,0.0,0.0,0.0,0.0,0.0,0.0,0.0,0.0,0.0,0.0,0.0,0.0,0.0,0.0,0.0,0.0,0.0,0.0,0.0,0.0,0.0,0.0,0.0,0.0,0.0,0.0,0.0,0.0,0.0,0.0,0.0,1.3188,0.6082,0.0685,-0.7911,-1.5072,-1.9423,-2.1338,-2.0505,-1.6241,-1.704,0.0,0.0,0.0,0.0,0.0,0.0,0.0,0.0,0.0,0.0,0.0,0.0,0.0,0.0,0.0,0.0,0.0,0.0,0.0,0.0,0.0,0.0,0.0,0.0,0.0,0.0,0.0,0.0,0.0,0.0,0.0,0.0,0.0,0.0,0.0,0.0,0.0,0.0,0.0,0.0,0.0,0.0,0.0,0.0,0.0,0.0,0.0,0.0,0.0,0.0,0.0,0.0,0.0,0.0,0.0,0.0,0.0,0.0,0.0,0.0,0.0,0.0,0.0,0.0,0.0,0.0,0.0,0.0,0.0,0.0,0.0,0.0,0.0,0.0,0.0,0.0,0.0,0.0,0.0,0.0,0.0,0.0,0.0,0.0,0.0,0.0,0.0,0.0,0.0,0.0,0.0,0.0,0.0,0.0,0.0,0.0,0.0,0.0,0.0,0.0,0.0,0.0,1.2295,0.5658,0.048,-0.9271,-1.6229,-1.833,-2.0838,-2.1595,-1.9915,-1.8703,0.0,0.0,0.0,0.0,0.0,0.0,0.0,0.0,0.0,0.0,0.0,0.0,0.0,0.0,0.0,0.0,0.0,0.0,0.0,0.0,0.0,0.0,0.0,0.0,0.0,0.0,0.0,0.0,0.0,0.0,0.0,0.0,0.0,0.0,0.0,0.0,0.0,0.0,0.0,0.0,0.0,0.0,0.0,0.0,0.0,0.0,0.0,0.0,0.0,0.0,0.0,0.0,0.0,0.0,0.0,0.0,0.0,0.0,0.0,0.0,0.0,0.0,0.0,0.0,0.0,0.0,0.0,0.0,0.0,0.0,0.0,0.0,0.0,0.0,0.0,0.0,0.0,0.0,0.0,0.0,0.0,0.0,0.0,0.0,0.0,0.0,0.0,0.0,0.0,0.0,0.0,0.0,0.0,0.0,0.0,0.0,0.0,0.0,0.0,0.0,0.0,0.0,1.0295,0.2578,0.0,-1.1245,-1.7258,-1.9229,-2.1185,-2.1702,-2.0286,0.0,0.0,0.0,0.0,0.0,0.0,0.0,0.0,0.0,0.0,0.0,0.0,0.0,0.0,0.0,0.0,0.0,0.0,0.0,0.0,0.0,0.0,0.0,0.0,0.0,0.0,0.0,0.0,0.0,0.0,0.0,0.0,0.0,0.0,0.0,0.0,0.0,0.0,0.0,0.0,0.0,0.0,0.0,0.0,0.0,0.0,0.0,0.0,0.0,0.0,0.0,0.0,0.0,0.0,0.0,0.0,0.0,0.0,0.0,0.0,0.0,0.0,0.0,0.0,0.0,0.0,0.0,0.0,0.0,0.0,0.0,0.0,0.0,0.0,0.0,0.0,0.0,0.0,0.0,0.0,0.0,0.0,0.0,0.0,0.0,0.0,0.0,0.0,0.0,0.0,0.0,0.0,0.0,0.0,0.0,0.0,0.0,0.0,0.0,0.0,0.0,0.0,1.5947,0.8198,0.0479,0.0,-1.3023,-1.8052,-2.0005,-2.1499,-2.173,-2.0404,0.0,0.0,0.0,0.0,0.0,0.0,0.0,0.0,0.0,0.0,0.0,0.0,0.0,0.0,0.0,0.0,0.0,0.0,0.0,0.0,0.0,0.0,0.0,0.0,0.0,0.0,0.0,0.0,0.0,0.0,0.0,0.0,0.0,0.0,0.0,0.0,0.0,0.0,0.0,0.0,0.0,0.0,0.0,0.0,0.0,0.0,0.0,0.0,0.0,0.0,0.0,0.0,0.0,0.0,0.0,0.0,0.0,0.0,0.0,0.0,0.0,0.0,0.0,0.0,0.0,0.0,0.0,0.0,0.0,0.0,0.0,0.0,0.0,0.0,0.0,0.0,0.0,0.0,0.0,0.0,0.0,0.0,0.0,0.0,0.0,0.0,0.0,0.0,0.0,0.0,0.0,0.0,0.0,0.0,0.0,0.0,0.0,0.0,0.0,0.0,0.0,0.0,1.1309,0.6152,-0.0147,-0.8634,-1.4501,-1.8577,-2.0414,-2.1642,-2.1804,0.0,0.0,0.0,0.0,0.0,0.0,0.0,0.0,0.0,0.0,0.0,0.0,0.0,0.0,0.0,0.0,0.0,0.0,0.0,0.0,0.0,0.0,0.0,0.0,0.0,0.0,0.0,0.0,0.0,0.0,0.0,0.0,0.0,0.0,0.0,0.0,0.0,0.0,0.0,0.0,0.0,0.0,0.0,0.0,0.0,0.0,0.0,0.0,0.0,0.0,0.0,0.0,0.0,0.0,0.0,0.0,0.0,0.0,0.0,0.0,0.0,0.0,0.0,0.0,0.0,0.0,0.0,0.0,0.0,0.0,0.0,0.0,0.0,0.0,0.0,0.0,0.0,0.0,0.0,0.0,0.0,0.0,0.0,0.0,0.0,0.0,0.0,0.0,0.0,0.0,0.0,0.0,0.0,0.0,0.0,0.0,0.0,0.0,0.0,0.0,0.0,0.0,0.0,1.1277,0.5868,-0.0895,-1.0082,-1.509,-1.8253,-1.9382,-2.092,-2.0635,-1.793,0.0,0.0,0.0,0.0,0.0,0.0,0.0,0.0,0.0,0.0,0.0,0.0,0.0,0.0,0.0,0.0,0.0,0.0,0.0,0.0,0.0,0.0,0.0,0.0,0.0,0.0,0.0,0.0,0.0,0.0,0.0,0.0,0.0,0.0,0.0,0.0,0.0,0.0,0.0,0.0,0.0,0.0,0.0,0.0,0.0,0.0,0.0,0.0,0.0,0.0,0.0,0.0,0.0,0.0,0.0,0.0,0.0,0.0,0.0,0.0,0.0,0.0,0.0,0.0,0.0,0.0,0.0,0.0,0.0,0.0,0.0,0.0,0.0,0.0,0.0,0.0,0.0,0.0,0.0,0.0,0.0,0.0,0.0,0.0,0.0,0.0,0.0,0.0,0.0,0.0,0.0,0.0,0.0,0.0,0.0,0.0,0.0,0.0,0.0,0.0,0.0,0.0,0.9936,0.4803,-0.1698,-1.0646,-1.5039,-1.7943,-1.952,-2.0747,-2.0495,-1.8222,0.0,0.0,0.0,0.0,0.0,0.0,0.0,0.0,0.0,0.0,0.0,0.0,0.0,0.0,0.0,0.0,0.0,0.0,0.0,0.0,0.0,0.0,0.0,0.0,0.0,0.0,0.0,0.0,0.0,0.0,0.0,0.0,0.0,0.0,0.0,0.0,0.0,0.0,0.0,0.0,0.0,0.0,0.0,0.0,0.0,0.0,0.0,0.0,0.0,0.0,0.0,0.0,0.0,0.0,0.0,0.0,0.0,0.0,0.0,0.0,0.0,0.0,0.0,0.0,0.0,0.0,0.0,0.0,0.0,0.0,0.0,0.0,0.0,0.0,0.0,0.0,0.0,0.0,0.0,0.0,0.0,0.0,0.0,0.0,0.0,0.0,0.0,0.0,0.0,0.0,0.0,0.0,0.0,0.0,0.0,0.0,0.0,0.0,0.0,0.0,0.0,0.0,0.7913,0.338,-0.2399,-1.0508,-1.4446,-1.7558,-2.0127,-2.0843,-2.0833,-2.0053,0.0,0.0,0.0,0.0,0.0,0.0,0.0,0.0,0.0,0.0,0.0,0.0,0.0,0.0,0.0,0.0,0.0,0.0,0.0,0.0,0.0,0.0,0.0,0.0,0.0,0.0,0.0,0.0,0.0,0.0,0.0,0.0,0.0,0.0,0.0,0.0,0.0,0.0,0.0,0.0,0.0,0.0,0.0,0.0,0.0,0.0,0.0,0.0,0.0,0.0,0.0,0.0,0.0,0.0,0.0,0.0,0.0,0.0,0.0,0.0,0.7826,0.0,0.0,0.0,0.0,0.0,0.0,0.0,0.0,0.0,0.0,0.0,0.0,0.0,0.0,0.0,0.0,0.0,0.0,0.0,0.0,0.0,0.0,0.0,0.0,0.0,0.0,0.0,0.0,0.0,0.0,0.0,0.0,0.0,0.0,0.0,0.0,0.0,0.0,0.0,0.0,0.0,0.8103,0.3487,-0.2045,-0.9458,-1.3728,-1.6713,-1.835,-1.981,-1.9874,-1.8058,-1.9005,0.0,0.0,0.0,0.0,0.0,0.0,0.0,0.0,0.0,0.0,0.0,0.0,0.0,0.0,0.0,0.0,0.0,0.0,0.0,0.0,0.0,0.0,0.0,0.0,0.0,0.0,0.0,0.0,0.0,0.0,0.0,0.0,0.0,0.0,0.0,0.0,0.0,0.0,0.0,0.0,0.0,0.0,0.0,0.0,0.0,0.0,0.0,0.0,0.0,0.0,0.0,0.0,0.0,0.0,0.0,0.0,0.0,0.0,0.0,0.0,0.2543,0.0,0.0,0.0,0.0,0.0,0.0,0.0,0.0,0.0,0.0,0.0,0.0,0.0,0.0,0.0,0.0,0.0,0.0,0.0,0.0,0.0,0.0,0.0,0.0,0.0,0.0,0.0,0.0,0.0,0.0,0.0,0.0,0.0,0.0,0.0,0.0,0.0,0.0,0.0,0.0,0.8255,0.2939,-0.279,-0.912,-1.3369,-1.6289,-1.7791,-1.9515,-2.0107,-1.9143,-1.9479,0.0,0.0,0.0,0.0,0.0,0.0,0.0,0.0,0.0,0.0,0.0,0.0,0.0,0.0,0.0,0.0,0.0,0.0,0.0,0.0,0.0,0.0,0.0,0.0,0.0,0.0,0.0,0.0,0.0,0.0,0.0,0.0,0.0,0.0,0.0,0.0,0.0,0.0,0.0,0.0,0.0,0.0,0.0,0.0,0.0,0.0,0.0,0.0,0.0,0.0,0.0,0.0,0.0,0.3654,0.1439,0.0062,-0.1627,-0.3028,-0.4081,-0.313,-0.3121,-0.3784,-0.2686,0.0,0.0,0.0,0.0,0.0,0.0,0.0,0.0,0.0,0.0,0.0,0.0,0.0,0.0,0.0,0.0,0.0,0.0,0.0,0.0,0.0,0.0,0.0,0.0,1.0021,0.9173,0.0,0.0,0.0,0.0,0.0,0.0,0.0,0.0,0.0,0.0,0.0,0.0,0.8284,0.2278,-0.3711,-0.9226,-1.3166,-1.6037,-1.7726,-1.9484,-2.0679,-2.1101,-2.0365,-2.0558,0.0,0.0,0.0,0.0,0.0,0.0,0.0,0.0,0.0,0.0,0.0,0.0,0.0,0.0,0.0,0.0,0.0,0.0,0.0,0.0,0.0,0.0,0.0,0.0,0.0,0.0,0.0,0.0,0.0,0.0,0.0,0.0,1.6803,1.4263,0.0,0.0,0.0,0.0,0.0,0.0,0.0,0.0,0.0,0.0,0.0,0.0,0.0,0.7953,0.7265,0.5902,0.4355,0.2558,0.1082,-0.1301,-0.4466,-0.4717,-0.5762,-0.7407,-0.7995,0.0,-0.6011,-0.6018,0.0,0.0,0.0,0.0,0.0,0.0,0.0,0.0,0.0,0.0,0.0,0.0,0.0,0.0,0.0,0.0,0.0,0.0,0.0,0.0,0.0,0.0,1.0771,0.7126,0.5668,0.509,0.0,1.0454,1.5884,1.7709,2.0002,0.0,0.0,0.0,0.0,0.0,0.0,0.0,0.7977,0.2169,-0.3791,-0.9667,-1.3051,-1.5662,-1.7566,-1.943,-2.0819,-2.1571,-2.2445,-2.2929,-2.2923,-2.1678,0.0,0.0,0.0,0.0,0.0,0.0,0.0,0.0,0.0,0.0,0.0,0.0,0.0,0.0,0.0,0.0,0.0,0.0,0.0,0.0,0.0,0.0,0.0,0.0,0.0,0.0,0.0,0.0,0.0,1.756,1.4075,1.0336,1.1186,1.1423,0.0,0.0,0.0,0.0,0.0,0.0,0.0,0.0,0.0,0.7618,0.6668,0.6245,0.6285,0.4632,0.3137,0.1886,-0.0326,-0.2733,-0.5196,-0.5721,-0.6681,-0.8027,-0.8941,-0.9064,-0.874,-0.8794,-0.8912,-0.8837,0.0,0.0,0.0,0.0,0.0714,0.1419,0.3045,0.4122,0.0,0.6042,0.0,0.0,0.0,0.0,0.0,0.0,0.0,0.0,0.0,0.0,0.0,0.4793,0.3986,0.4072,0.5284,0.977,1.403,0.0,1.8752,2.1099,2.103,0.0,0.0,0.0,0.0,1.2259,0.7681,0.1519,-0.438,-0.9571,-1.2887,-1.5387,-1.6941,-1.8644,-2.0243,-2.1614,-2.2756,-2.3652,-2.4204,-2.3251,-2.2652,0.0,0.0,0.0,0.0,0.0,0.0,0.0,0.0,0.0,0.0,0.0,0.0,0.0,0.0,0.0,0.0,0.0,0.0,0.0,0.0,0.0,0.0,0.0,0.0,0.0,0.0,0.0,0.0,1.564,1.1495,0.7187,0.7319,0.7151,0.0,0.0,0.0,0.0,0.0,0.0,0.6415,0.5365,0.5271,0.6402,0.5694,0.5593,0.6068,0.413,0.2666,0.1536,-0.1477,-0.3938,-0.5855,-0.6759,-0.7678,-0.8672,-0.9255,-1.0095,-1.0972,-1.0854,-1.1004,-1.106,-0.8756,-0.7357,-0.6405,-0.4345,-0.3586,-0.3365,-0.1161,0.0174,0.1195,0.2732,0.0,0.7459,0.9538,0.0,0.0,0.0,0.0,0.9606,0.7905,0.6151,0.4636,0.3796,0.3865,0.4714,0.6828,0.9882,1.2712,0.0,1.7877,2.0765,2.1206,0.0,0.0,0.0,0.0,1.1738,0.7035,0.0645,-0.534,-1.0201,-1.3207,-1.5455,-1.6973,-1.8269,-1.9822,-2.1739,-2.2794,-2.3917,-2.5151,-2.4255,-2.3826,-2.4005,0.0,0.0,0.0,0.0,0.0,0.0,0.0,0.0,0.0,0.0,0.0,0.0,0.0,0.0,0.0,0.0,0.0,0.0,0.0,0.0,0.0,0.0,0.0,0.0,0.0,0.0,0.0,0.0,0.0,0.6426,0.5279,0.0,0.0,0.0,0.0,0.5216,0.3701,0.3319,0.4538,0.3885,0.4387,0.6287,0.6356,0.6369,0.6318,0.4368,0.2376,0.0467,-0.252,-0.5292,-0.7877,-0.8731,-0.9646,-1.0478,-1.0199,-1.0905,-1.2297,-1.1801,-1.1223,-1.0553,-0.9828,-0.8684,-0.7202,-0.6061,-0.5117,-0.4177,-0.2834,-0.1319,0.0112,0.0336,0.2325,0.5185,0.8519,0.8834,0.0,0.0,0.8397,0.6788,0.5886,0.5019,0.4419,0.4453,0.54,0.6892,0.8994,1.1377,1.3817,0.0,1.8954,2.1264,2.2169,0.0,2.1265,2.0564,1.6164,1.1064,0.586,-0.0509,-0.67,-1.2342,-1.4352,-1.6151,-1.8311,-1.8807,-1.9953,-2.2135,-2.3048,-2.4094,-2.5427,-2.5309,-2.491,-2.4303,-2.3893,0.0,0.0,0.0,0.0,0.0,0.0,0.0,0.0,0.0,0.0,0.0,0.0,0.0,0.0,0.0,0.0,0.0,0.0,0.0,0.0,0.0,0.0,0.0,0.0,0.0,0.0,0.0,0.0,0.5399,0.4187,0.0,0.1547,0.2601,0.3089,0.231,0.2039,0.2398,0.3537,0.3978,0.4878,0.6257,0.6312,0.6312,0.6338,0.4233,0.2334,0.0552,-0.2437,-0.5225,-0.7865,-0.8697,-0.9675,-1.0611,-1.0247,-1.0703,-1.1654,-1.1033,-1.1359,-1.2058,-1.0754,-1.0002,-0.939,-0.7311,-0.642,-0.5893,-0.3359,-0.1772,-0.0514,0.157,0.3877,0.6058,0.7239,0.767,0.7786,0.8239,0.7189,0.577,0.5019,0.4271,0.3889,0.433,0.5496,0.7209,0.9736,1.1986,1.4105,1.6119,1.817,1.9766,2.0298,2.0801,2.0738,1.9636,1.4773,0.9719,0.5567,-0.1068,-0.6974,-1.1232,-1.3163,-1.4741,-1.6234,-1.7142,-1.8541,-2.0606,-2.1998,-2.3308,-2.4601,-2.5119,-2.5127,-2.4639,-2.403,-2.2407,0.0,0.0,0.0,0.0,0.0,0.0,0.0,0.0,0.0,0.0,0.0,0.0,0.0,0.0,0.0,0.0,0.0,0.0,0.0,0.0,0.0,0.0,0.0,0.0,0.0,0.0,0.6705,0.439,0.2898,0.1703,0.0665,0.0861,0.0945,0.0566,0.1162,0.2093,0.3165,0.4126,0.5185,0.6359,0.6295,0.6338,0.6338,0.4201,0.2203,0.0509,-0.2842,-0.562,-0.7909,-0.9127,-0.9963,-1.0394,-1.0094,-1.0314,-1.0905,-1.01,-1.0647,-1.1845,-1.07,-1.0208,-0.9875,-0.7711,-0.6835,-0.6307,-0.3379,-0.1582,-0.0114,0.2242,0.4271,0.5973,0.6475,0.6745,0.7015,0.7235,0.6308,0.5039,0.4487,0.402,0.392,0.4669,0.6211,0.8184,1.0621,1.2676,1.4518,1.6061,1.7267,1.8263,1.907,1.9544,1.9612,1.8949,1.3508,0.8185,0.4587,-0.2211,-0.8079,-1.1601,-1.3019,-1.4304,-1.579,-1.6583,-1.7947,-2.0165,-2.1616,-2.2944,-2.4168,-2.4671,-2.4774,-2.4495,-2.2958,-2.0755,-1.7812,0.0,0.0,0.0,0.0,0.0,0.0,0.0,0.0,0.0,0.0,0.0,0.0,0.0,0.0,0.0,0.0,0.0,0.0,0.0,0.0,0.0,0.0,0.0,1.0221,0.7212,0.4556,0.3432,0.1374,0.0071,0.0196,0.0068,0.0,0.0,0.1042,0.2156,0.3304,0.427,0.5311,0.6461,0.6363,0.6338,0.6338,0.4204,0.2136,0.0155,-0.3739,-0.6565,-0.8233,-1.011,-1.0661,-1.01,-0.9813,-0.9903,-1.0184,-0.9185,-0.9159,-0.9762,-0.9762,-0.9332,-0.8501,-0.7305,-0.6253,-0.5097,-0.2892,-0.0724,0.1284,0.2007,0.3277,0.4754,0.6195,0.6091,0.5706,0.6411,0.5597,0.4423,0.4224,0.4328,0.4659,0.5538,0.7659,0.9953,1.1645,1.3488,1.5108,1.6073,1.6349,1.6954,1.8614,1.8275,1.7987,1.8533,1.2459,0.0,0.2813,-0.4019,-0.9912,-1.3567,-1.3994,-1.4929,-1.7153,-1.7213,-1.8241,-2.0819,-2.2,-2.3094,-2.4197,-2.4027,-2.386,-2.3765,-2.071,-1.8068,-1.5875,0.0,0.0,0.0,0.0,0.0,0.0,0.0,0.0,0.0,0.0,0.0,0.0,0.0,0.0,0.0,0.0,0.0,0.0,0.0,0.0,0.0,0.0,0.6294,0.5907,0.3818,0.2002,0.1024,0.0412,0.0,0.0067,0.0,0.0,0.0,0.1666,0.2829,0.3151,0.4897,0.6048,0.6342,0.6288,0.6338,0.6338,0.4196,0.2145,0.015,-0.2983,-0.5811,-0.8228,-0.9259,-0.9895,-1.01,-0.9813,-0.9626,-0.9487,-0.8978,-0.858,-0.8355,-0.8844,-0.8626,-0.7877,-0.6975,-0.5191,-0.2947,-0.1777,0.0056,0.2119,0.3385,0.4812,0.619,0.7122,0.6907,0.6333,0.6445,0.5404,0.427,0.407,0.4408,0.5061,0.6207,0.799,0.9923,1.1757,1.3485,1.4858,1.5594,1.5292,1.5239,1.6263,1.6992,1.7326,1.7002,1.0808,0.0,0.1474,-0.4903,-0.9493,-1.0596,-1.179,-1.2821,-1.3595,-1.5081,-1.6662,-1.8313,-2.1047,-2.2724,-2.298,-2.3617,-2.2928,-2.0765,-1.8866,-1.698,0.0,0.0,0.0,0.0,0.0,0.0,0.0,0.0,0.0,0.0,0.0,0.0,0.0,0.0,0.0,0.0,0.0,0.0,0.0,0.0,0.0,0.0,0.5535,0.2894,0.1407,0.0929,0.0574,0.007,0.0,0.0,0.0,0.0,0.0136,0.0489,0.2056,0.3179,0.356,0.5613,0.6805,0.6817,0.688,0.6957,0.6902,0.438,0.2317,0.0754,-0.2584,-0.5167,-0.7052,-0.8254,-0.9004,0.0,-0.9163,-0.9045,-0.9045,-0.8878,-0.8533,0.0,0.0,0.0,0.0,0.0,-0.3941,-0.2062,-0.1001,0.0611,0.2452,0.3932,0.5416,0.675,0.745,0.7164,0.6523,0.6442,0.5272,0.4168,0.4255,0.4982,0.5995,0.7231,0.9077,1.1027,1.2608,1.3819,1.4782,1.5214,1.4699,0.0,1.4501,1.5341,1.5358,1.3556,0.8405,0.3372,-0.0466,-0.5852,-0.9624,-1.0484,-1.149,-1.2506,-1.3536,-1.5261,0.0,0.0,0.0,-2.2441,-2.2097,-2.2276,0.0,0.0,0.0,-1.5671,-1.3939,0.0,0.0,0.0,-0.6826,-0.4952,0.0,0.0,0.0,0.0,0.0,0.0,0.0,0.0,0.0,0.0,0.0,0.0,0.0,0.0,0.0,0.0,0.1922,-0.0224,-0.2553,-0.1354,-0.0148,-0.0141,-0.007,0.0,0.0,0.0,0.034,0.125,0.2298,0.3313,0.4326,0.0,0.0,0.0,0.0,0.7625,0.7693,0.466,0.2558,0.1541,-0.2319,-0.4549,-0.5378,-0.7129,-0.8038,-0.8055,-0.8055,-0.8245,-0.854,-0.854,-0.848,-0.8368,-0.7777,-0.674,-0.532,-0.3895,-0.2843,-0.1839,-0.0389,0.0,0.0,0.4152,0.5584,0.6853,0.7581,0.7199,0.6498,0.6446,0.534,0.4248,0.4646,0.5774,0.7092,0.8234,1.0328,1.2405,1.3607,1.4314,1.4722,1.4859,1.4457,1.3855,1.3206,1.3596,1.2783,0.9226,0.5745,0.1812,-0.3018,-0.6974,-0.9957,-1.1575,0.0,0.0,-1.4979,-1.6423,-1.7646,-1.86,-2.0964,-2.2047,-2.1417,-2.0504,-1.8865,-1.642,-1.5619,-1.4448,-1.2831,-1.215,-1.1166,-0.9843,-0.702,-0.4469,0.0,0.0,0.0,0.0,0.0,0.0,0.0,0.0,0.0,0.0,0.0,0.0,0.0,0.0,0.0,0.2039,-0.0513,-0.2443,-0.2868,-0.1977,-0.1231,-0.1053,-0.0412,0.0,0.0,0.0,0.0337,0.1216,0.2275,0.3559,0.5168,0.5902,0.6923,0.8157,0.7139,0.6772,0.7249,0.4469,0.255,0.1316,0.0,0.0,-0.5359,-0.6162,-0.6844,-0.7316,-0.7316,-0.7184,-0.702,-0.702,-0.6686,-0.6195,-0.6637,-0.6253,-0.532,-0.3895,-0.2502,-0.111,0.0388,0.2215,0.4207,0.5697,0.6794,0.7576,0.8107,0.7739,0.0,0.6683,0.5924,0.5195,0.5208,0.6087,0.7235,0.8254,0.9855,1.1545,1.2957,1.394,1.4487,1.4312,1.4045,1.3568,1.2619,1.2943,1.1659,0.6839,0.4086,0.0128,-0.6642,-0.8697,-0.94,-0.9018,-1.0584,-1.1842,-1.2267,-1.4701,-1.6661,-1.7761,-1.9565,-2.0643,-2.0776,-1.9429,-1.7928,-1.6376,-1.5346,-1.4187,-1.2861,-1.2129,-1.1366,-1.0559,-0.8848,-0.7205,0.0,0.0,0.0,0.0,0.0,0.0,0.0,0.0,0.0,0.0,0.0,0.73,0.4111,0.0,0.0778,-0.1385,-0.2483,-0.3334,-0.423,-0.3158,-0.2045,-0.1373,-0.0543,0.0,0.0,0.0404,0.128,0.272,0.379,0.513,0.6839,0.7658,0.8337,0.9031,0.8043,0.7543,0.7822,0.4608,0.2701,0.2055,-0.0614,-0.2573,-0.3766,-0.4518,-0.5393,-0.63,-0.63,-0.6409,-0.6588,-0.6588,-0.6145,-0.5487,-0.5479,-0.5097,-0.4333,-0.3229,-0.1835,-0.0278,0.1549,0.3152,0.47,0.6573,0.7317,0.7616,0.8208,0.7708,0.6895,0.6683,0.6012,0.5533,0.6013,0.6771,0.7743,0.8985,1.013,1.1224,1.2398,1.3155,1.3527,1.324,1.3356,1.3145,1.2091,1.2214,1.0476,0.4618,0.184,-0.1706,-0.7548,-0.8772,-0.9212,-0.9462,-1.0913,-1.2079,-1.2609,-1.4859,-1.6885,-1.8407,-1.8782,-1.9146,-1.959,-1.8108,-1.6601,-1.511,-1.4344,-1.3398,-1.2263,-1.1864,-1.1181,-1.0228,-0.934,-0.8067,0.0,0.0,0.0,0.0,0.0,0.0,0.0,0.377,0.5064,0.7726,0.6238,0.3476,0.0,-0.0947,-0.1995,-0.4545,-0.4107,-0.393,-0.5275,-0.4029,-0.2418,-0.1209,-0.0403,0.0067,0.0269,0.0873,0.2164,0.4219,0.5264,0.6571,0.829,0.9267,0.9846,0.9898,0.886,0.8353,0.8508,0.4793,0.2893,0.2814,0.0066,-0.1532,-0.2008,-0.3062,-0.4109,-0.5101,-0.5269,-0.5542,-0.5977,-0.5936,-0.5508,-0.482,-0.4178,-0.3476,-0.2672,-0.2006,-0.0946,0.0555,0.2764,0.4072,0.5093,0.7042,0.757,0.7522,0.8134,0.757,0.6775,0.686,0.6325,0.6027,0.7078,0.7803,0.8573,0.981,1.0623,1.1357,1.2128,1.2581,1.2768,1.2472,1.2863,1.289,1.1619,1.0737,0.8303,0.2735,-0.0115,-0.3236,-0.7646,-0.8566,-0.9273,-1.0436,-1.1448,-1.2593,-1.3975,-1.5596,-1.7202,-1.8769,-1.7932,-1.7623,-1.8219,-1.6731,-1.5343,-1.4089,-1.3483,-1.2678,-1.1606,-1.1509,-1.0829,-0.9694,-0.9147,-0.8056,-1.4757,-1.1067,-0.4756,0.2792,0.6234,0.9693,0.0,1.4057,0.9394,0.8302,0.4893,0.1168,-0.2113,-0.345,-0.443,-0.567,-0.5628,-0.5197,-0.4501,-0.3496,-0.2208,-0.0335,-0.0067,0.0337,0.1073,0.1274,0.21,0.4104,0.5208,0.6507,0.816,0.8577,0.928,1.0444,0.8427,0.7494,0.8037,0.4651,0.2865,0.2716,0.0122,-0.1129,-0.1297,-0.2734,-0.3524,-0.3674,-0.4346,-0.4288,-0.3776,-0.3717,-0.3248,-0.2556,-0.2477,-0.1625,-0.0389,-0.0278,0.0278,0.1274,0.3484,0.5038,0.6204,0.7317,0.7758,0.7832,0.7928,0.7696,0.7459,0.7709,0.7685,0.7739,0.8341,0.9204,0.9973,1.0083,1.1081,1.2077,1.2562,1.3045,1.3285,1.2826,1.318,1.3023,1.1351,0.7362,0.3699,0.1528,-0.0688,-0.3777,-0.8394,-0.9331,-0.9618,-0.9727,-1.0732,-1.2416,-1.4914,-1.5877,-1.6527,-1.6963,-1.6269,-1.6163,-1.6875,-1.5385,-1.4544,-1.46,-1.3662,-1.2678,-1.1606,-1.1104,-1.0472,-0.9694,-0.8687,-0.7529,0.2598,0.0839,-0.037,1.1588,1.5266,1.5999,1.6233,1.4162,1.172,0.9796,0.6596,0.3353,0.0674,-0.1874,-0.3589,0.0,-0.4232,-0.4591,-0.4263,-0.2884,-0.1282,0.0532,0.2723,0.3597,0.2275,0.346,0.4861,0.6062,0.7309,0.8675,0.9991,1.003,1.0176,1.0575,0.9139,0.822,0.7818,0.4987,0.3246,0.2557,0.0535,-0.0865,-0.1664,-0.2393,-0.2954,-0.3337,-0.3584,-0.3295,-0.2698,-0.2659,-0.2278,-0.1626,-0.1107,-0.032,0.0487,0.011,0.1274,0.3207,0.4576,0.5822,0.6991,0.7832,0.8143,0.8119,0.8119,0.8158,0.8246,0.8314,0.8545,0.8884,0.9442,0.9868,1.0252,1.0697,1.1001,1.1289,1.1788,1.2187,1.2448,1.2392,1.2935,1.2918,1.1336,0.9551,0.658,0.1411,-0.3512,-0.7178,-0.8723,-0.9406,-0.9994,-1.0582,-1.1111,-1.2277,-1.4375,-1.4729,-1.5188,-1.5947,-1.5257,-1.5047,-1.5519,-1.4134,-1.3178,-1.2768,-1.1931,-1.1045,-1.0078,-0.9638,-0.916,-0.8683,-0.7054,-0.5927,1.1672,0.9322,0.6111,1.8416,2.2572,2.249,1.8012,1.699,1.6236,1.3789,1.1135,0.8521,0.6178,0.3124,0.0539,-0.0718,-0.1928,-0.2927,-0.3811,-0.1527,0.1099,0.3554,0.7258,0.876,0.6645,0.7098,0.756,0.7697,0.8915,1.0068,1.0808,1.0969,1.0815,1.0477,0.9592,0.868,0.7572,0.5337,0.3719,0.2813,0.1269,-0.0056,-0.1131,-0.1475,-0.1966,-0.2479,-0.2407,-0.1982,-0.1403,-0.1403,-0.0999,-0.0305,0.0516,0.1363,0.2135,0.1857,0.2923,0.458,0.5819,0.6821,0.7722,0.8447,0.8633,0.8568,0.8524,0.8585,0.8756,0.903,0.9363,0.975,1.0258,1.0515,1.071,1.0997,1.1092,1.1122,1.1368,1.1791,1.2187,1.2348,1.2752,1.2699,1.1523,1.0385,0.7539,0.134,-0.5381,-0.9561,-0.9037,-0.9496,-1.0181,-1.0984,-1.1305,-1.1951,-1.3185,-1.3531,-1.3942,-1.4631,-1.4207,-1.3984,-1.4151,-1.3034,-1.2056,-1.1263,-1.063,-0.9874,-0.9004,-0.8445,-0.8005,-0.7666,-0.5664,-0.4457,0.1526,0.6231,1.0957,1.9788,2.5446,2.8619,2.7642,2.6652,2.486,2.1242,1.9056,1.6996,1.4251,1.2074,0.8608,0.2228,0.0968,-0.0128,-0.2795,0.088,0.5479,0.981,1.362,1.5895,0.0,1.2172,0.929,0.8228,0.9114,0.965,0.9577,1.0454,1.0752,1.0147,0.9266,0.8325,0.7333,0.5578,0.4323,0.3571,0.2475,0.1625,0.1003,0.0108,-0.0364,-0.0499,-0.0498,-0.005,0.0599,0.0624,0.1139,0.1954,0.2739,0.3939,0.5354,0.6051,0.5483,0.4725,0.7172,0.811,0.8398,0.9213,0.9375,0.9255,0.9125,0.8914,0.891,0.9865,1.0176,1.027,1.0761,1.1464,1.1795,1.078,1.1556,1.2384,1.1813,1.2514,1.3211,1.3093,1.2776,1.2383,1.1954,0.7619,0.3434,0.1049,-0.5193,-0.9561,-0.9403,-0.9793,-1.0129,-1.0219,-1.0931,-1.1424,-1.1476,-1.2611,-1.312,-1.2631,-1.2804,-1.2886,-1.2764,-1.2099,-1.1464,-1.0936,-1.0516,-0.9874,-0.9004,-0.8088,-0.74,-0.6903,-0.4951,-0.3482,0.8746,1.711,2.5011,2.8336,2.8989,2.8504,2.7301,2.5836,2.3561,1.9516,1.3401,0.9029,0.9886,0.5884,0.1902,0.0117,0.0633,0.0537,-0.1619,0.1905,0.625,1.0264,1.5278,0.0,0.0,0.0,0.0,1.2262,1.2265,1.2069,1.1335,1.1157,1.0779,1.0141,1.0064,0.9388,0.7892,0.6335,0.5057,0.4116,0.2267,0.1181,0.083,0.0195,0.0289,0.0891,0.0987,0.1448,0.206,0.2431,0.2973,0.3708,0.471,0.5873,0.713,0.8204,0.8345,0.8019,0.8892,0.9405,0.9674,0.9663,0.9969,1.0275,0.9916,1.0254,1.0847,1.1148,1.1659,1.2107,1.1988,1.2364,1.2637,1.2202,1.2276,1.2518,1.2729,1.3176,1.3625,1.3806,1.3846,1.3485,1.2185,1.0645,0.6274,-0.3475,-0.7437,-0.9439,-0.9763,-0.9886,-1.0029,-1.0187,-1.0449,-1.0812,-1.1354,-1.1516,-1.1661,-1.1831,-1.1507,-1.1423,-1.1692,-1.0921,-1.0492,-1.0491,-0.9704,-0.8929,-0.8125,-0.7274,-0.6656,-0.6179,-0.3647,-0.2297,1.5079,2.2247,2.8854,3.0937,2.9433,2.7242,2.6481,2.5005,2.3199,2.1096,1.5172,1.0878,1.2579,0.8629,0.4235,0.1512,0.2416,0.2541,0.007,0.3847,0.8443,1.2655,1.758,2.0504,0.0,0.0,0.0,1.4877,1.4308,1.3655,1.2522,1.1867,1.1242,1.0552,1.0793,1.0231,0.876,0.7582,0.6273,0.4955,0.3046,0.219,0.2336,0.1789,0.2155,0.3161,0.3268,0.3686,0.4231,0.4552,0.5216,0.6024,0.7046,0.8292,0.9636,1.0721,1.1262,1.1353,1.0549,1.0531,1.0886,1.0543,1.0874,1.1386,1.1092,1.145,1.2103,1.2577,1.3154,1.3613,1.3479,1.3542,1.3602,1.3324,1.3073,1.2975,1.3382,1.3752,1.4095,1.4295,1.423,1.3762,1.2554,1.0778,0.6014,-0.4417,-0.7344,-0.8667,-0.9474,-0.9767,-0.9943,-1.0078,-1.0137,-1.0334,-1.0797,-1.0711,-1.0689,-1.0801,-1.0832,-1.0819,-1.0728,-1.0435,-1.0177,-0.9995,-0.9054,-0.8294,-0.7686,-0.6592,-0.5741,-0.5115,-0.2629,-0.135,1.9654,2.1617,2.3342,2.7736,2.692,2.5107,2.5421,2.4338,2.3719,2.5368,2.3159,2.0969,0.0,0.0,1.4552,0.6057,0.6155,0.6046,0.2501,0.6714,1.2015,0.0,0.0,0.0,0.0,0.0,0.0,1.6224,0.0,1.4495,1.3226,1.2716,1.2113,1.1391,1.1415,1.0907,0.9834,0.9082,0.7833,0.6072,0.4794,0.4601,0.5351,0.4776,0.5148,0.6198,0.6198,0.6517,0.6997,0.7086,0.7824,0.8919,0.9762,1.1168,1.2852,1.3596,1.4275,1.4506,1.2248,1.1724,1.2018,1.1851,1.2121,1.2494,1.2508,1.2507,1.2817,1.4042,1.458,1.4874,1.5121,1.496,1.4639,1.4095,1.3862,1.3775,1.3829,1.4261,1.4614,1.46,1.3832,1.3133,1.2909,0.8149,0.2773,-0.1933,-0.4991,-0.7242,-0.8585,-0.9374,-0.9831,-0.9894,-1.0019,-1.0002,-0.9817,-1.0177,-1.0171,-0.958,-1.0656,-1.0868,-0.9882,-1.0441,-1.0303,-0.9413,-0.8612,-0.7998,-0.7618,-0.5998,-0.4708,-0.3772,-0.1897,-0.054,2.138,2.4088,2.6573,2.6607,2.4511,2.2274,2.1643,1.9914,1.8533,1.8907,1.3694,1.0107,1.3599,1.3279,1.0973,0.6379,0.9772,0.0,0.7455,0.985,0.0,1.8145,0.0,2.2911,2.3441,2.2887,0.0,0.0,1.7913,1.6624,1.5041,1.3969,1.3176,1.267,1.2957,1.2499,1.1197,1.0038,0.8755,0.7339,0.7014,0.6734,0.6475,0.6319,0.6658,0.7369,0.7743,0.7964,0.8222,0.986,1.0706,1.1105,1.2853,1.4055,1.4899,1.544,1.5936,1.6271,1.5652,1.4728,1.3779,1.3431,1.3572,1.3892,1.3822,1.419,1.4759,1.5338,1.5967,1.6427,1.6193,1.5938,1.563,1.5188,1.4719,1.4382,1.4396,1.4704,1.4904,1.4645,1.3125,1.177,1.1417,0.7256,0.2621,-0.1293,-0.3556,-0.5655,-0.7977,-0.8526,-0.902,-0.9823,-0.9882,-0.9861,-0.9803,-0.9546,-0.9234,-0.8879,-0.8824,-0.8842,-0.8928,-0.886,-0.8904,-0.9106,-0.8413,-0.7616,-0.6742,-0.5708,-0.4318,-0.2587,-0.093,0.0482,2.3433,2.4462,2.5153,2.2828,2.0003,1.7192,1.4934,1.3831,1.3373,1.3851,1.0193,0.8119,1.182,1.2286,1.1106,0.0,0.0,0.0,1.1766,1.3056,1.5504,0.0,2.0578,0.0,2.2433,2.2251,2.1648,0.0,1.9132,1.7801,1.6532,1.5408,1.4599,1.418,1.4391,1.3893,1.258,1.1492,1.0529,0.9722,0.918,0.8956,0.9056,0.8816,0.9137,0.9949,0.0,1.0874,1.1362,1.2852,1.3816,1.4509,1.568,1.6602,1.7312,1.7564,1.7816,1.7949,1.7777,1.7079,1.6132,1.5301,1.5065,1.5077,1.5228,1.5679,1.6262,1.6811,1.7425,1.7825,1.7367,1.6953,1.6513,1.59,1.5223,1.4738,1.474,1.4875,1.489,1.4418,1.301,1.1561,1.0549,0.739,0.3981,0.0917,-0.1469,-0.3678,-0.5812,-0.727,-0.8463,-0.937,-0.9613,-0.9689,-0.9638,-0.9233,-0.8898,-0.8655,-0.8511,-0.8453,-0.8462,-0.8397,-0.8351,-0.8353,-0.7661,-0.6744,-0.5652,-0.4593,-0.3099,-0.1195,0.0348,0.1631,2.4793,2.3205,2.1064,1.7893,1.4799,1.1558,0.7807,0.8033,0.9181,1.0084,1.0305,1.1034,1.3371,1.4225,1.3808,1.1485,0.0,1.6056,1.6077,1.6628,1.7811,2.0072,2.0076,2.0404,2.1753,2.1971,2.169,2.0851,1.9699,1.8668,1.792,1.6987,1.6357,1.6022,1.5939,1.536,1.4233,1.3527,1.3011,1.2621,1.1533,1.1414,1.2215,1.1795,1.212,1.3033,1.3635,0.0,1.5144,1.5909,1.6958,1.8127,1.8323,1.901,1.9805,1.9805,1.9793,1.969,1.939,1.9042,1.8495,1.715,1.6455,1.6222,1.6645,1.7037,1.7512,1.8235,1.8768,1.9039,1.8564,1.7947,1.726,1.6616,1.5735,1.5071,1.5158,1.5071,1.4799,1.4136,1.3092,1.1759,1.0045,0.8017,0.5829,0.345,0.0708,-0.1643,-0.3168,-0.5847,-0.7895,-0.8692,-0.922,-0.9489,-0.9386,-0.9171,-0.8932,-0.8677,-0.885,-0.871,-0.8138,-0.8312,-0.8034,-0.7214,-0.6502,-0.5588,-0.4422,-0.301,-0.1413,0.0359,0.178,0.2933,2.2324,1.9878,1.7169,1.4578,1.1947,0.9279,0.6348,0.7564,0.0,0.8554,1.0613,1.3039,1.5042,1.6851,1.8241,1.8914,2.0661,2.2038,2.2372,2.1315,2.1129,0.0,2.1762,2.1458,2.2903,2.2739,0.0,0.0,2.1189,2.0309,1.9322,1.8838,1.8615,1.8722,1.8229,1.7691,1.7103,1.6468,1.5761,1.5025,1.4809,1.4594,1.4435,1.4686,1.4917,1.5131,1.6014,0.0,1.6764,1.8556,1.9488,1.9836,2.1165,2.1796,2.196,2.196,2.1746,2.1569,2.22,2.1313,1.9676,1.8208,1.7636,1.7552,1.7996,1.8404,1.8744,1.911,1.9556,1.9876,1.9729,1.8638,1.7695,1.8215,1.7079,1.601,1.6464,1.5932,1.512,1.4178,1.2559,1.096,0.976,0.8049,0.599,0.3401,0.157,-0.0259,-0.2393,-0.4628,-0.6534,-0.7922,-0.8698,-0.9153,-0.9308,-0.9275,-0.9022,-0.8488,-0.8337,-0.793,-0.7182,-0.6984,-0.6493,-0.5691,-0.5111,-0.4221,-0.2962,-0.1614,0.0059,0.1997,0.311,0.4258,1.9124,1.7432,1.5488,1.185,1.0377,0.8788,0.4538,0.0,0.0,0.7378,1.0434,1.3787,1.4932,1.7084,1.8751,1.8937,2.1557,2.3454,2.3145,2.4061,2.4743,2.4849,2.4254,2.4045,2.4589,2.4409,2.4097,2.3746,2.3348,2.2374,2.0679,2.0393,2.0348,2.0431,1.9972,1.9641,1.9417,1.9127,1.8779,1.8359,1.8091,1.7987,1.808,1.7991,1.8053,1.8233,1.9076,0.0,1.9747,2.1174,2.1901,2.2168,2.2976,2.329,2.329,2.329,2.316,2.3024,2.3194,2.2285,2.0948,2.0055,1.9258,1.8679,1.8946,1.9249,1.9559,1.9682,1.9901,1.9999,1.95,1.8756,1.8067,1.7853,1.6989,1.6213,1.6215,1.5714,1.4964,1.4068,1.2724,1.1315,1.0024,0.8327,0.6593,0.4867,0.288,0.1105,-0.0243,-0.1786,-0.3893,-0.6914,-0.7994,-0.8679,-0.9067,-0.8988,-0.8869,-0.8722,-0.8456,-0.7724,-0.6438,-0.6015,-0.5072,-0.3464,-0.3339,-0.2459,-0.0766,0.0137,0.1526,0.3296,0.4394,0.5432,1.5815,1.4911,1.3753,0.9756,0.9187,0.8375,0.3285,0.5951,0.8887,0.6782,1.0181,1.3785,1.4455,1.6349,1.7791,0.0,2.0486,2.2773,2.3172,2.5516,2.6965,2.6428,2.646,0.0,2.6326,2.5991,0.0,2.5362,2.4978,0.0,2.2111,2.196,2.193,2.1951,2.1692,2.1511,2.1444,2.1424,2.1348,2.1257,2.0823,2.0828,2.1237,2.0938,2.0918,2.1216,2.189,0.0,0.0,2.3289,2.378,2.4058,2.4217,2.4285,2.4285,2.4285,2.417,2.3981,2.3752,2.2944,2.2009,2.1901,2.0791,1.9495,1.9585,1.9743,1.9883,1.9882,1.987,1.9722,1.9018,1.8611,1.8129,1.7151,1.6756,1.6466,1.5948,1.5548,1.5007,1.4059,1.3031,1.1843,1.0363,0.8635,0.718,0.6321,0.4288,0.2634,0.2008,0.1401,-0.044,-0.4316,-0.6203,-0.7595,-0.8576,-0.8858,-0.9014,-0.9129,-0.7881,-0.6584,-0.5363,-0.438,-0.2961,-0.1032,-0.1178,-0.0382,0.142,0.2156,0.3272,0.4745,0.5888,0.6863,1.2675,1.1458,1.0282,0.8362,0.7781,0.684,0.371,0.0,0.9799,0.7433,1.004,1.3208,1.4597,1.5223,1.645,0.0,0.0,2.087,2.5544,2.5605,2.5813,2.7586,0.0,0.0,2.7605,2.6612,2.6003,2.6107,2.5027,0.0,2.3695,2.3659,2.37,2.3761,2.3671,2.3488,2.3171,2.3056,2.2816,2.2453,2.2339,2.2314,2.2374,2.2801,2.3026,2.309,2.357,0.0,0.0,2.4332,2.4554,2.4583,2.5015,2.5188,2.5188,2.5188,2.4722,2.4158,2.4666,2.3797,2.2547,2.3193,2.1753,1.9783,1.992,1.9752,1.9535,1.9465,1.9323,1.9151,1.9017,1.8328,1.7561,1.7026,1.7236,1.7389,1.6743,1.638,1.5749,1.4337,1.3165,1.1903,1.037,0.8807,0.7481,0.6604,0.5622,0.4605,0.3472,0.413,0.3828,0.1536,-0.2055,-0.5271,-0.769,-0.9287,-0.9968,-0.957,-0.5293,-0.2959,-0.3341,-0.0915,0.0708,0.1286,0.1574,0.216,0.3083,0.4487,0.5703,0.6752,0.7906,0.8957,1.1278,1.0271,0.9027,0.6273,0.4249,0.3262,0.4739,0.0,0.8753,0.8799,1.1538,1.4005,1.4405,1.504,1.625,0.0,0.0,0.0,2.2642,2.5716,2.7351,2.6048,2.7615,0.0,0.0,0.0,2.6715,2.5554,2.5388,0.0,2.4471,2.453,2.4547,2.4475,2.4522,2.4466,2.4245,2.3997,2.388,2.3917,2.3696,2.3682,2.3883,2.4115,2.4141,2.4035,2.4355,0.0,0.0,2.4668,2.4816,2.4913,2.5011,2.5057,2.5057,2.5057,2.4749,2.4377,2.4617,2.3765,2.2604,2.2892,2.1871,2.0592,2.0967,2.0199,1.9295,1.9753,1.9409,1.8919,1.8879,1.8271,1.7558,1.718,1.7133,1.7044,1.656,1.6142,1.5575,1.4522,1.3479,1.2328,1.0958,0.9713,0.8555,0.744,0.6754,0.601,0.5003,0.5522,0.57,0.4997,0.21,-0.0591,-0.2523,-0.392,-0.4378,-0.3629,-0.2251,-0.0934,0.0278,0.1457,0.2975,0.4871,0.4287,0.4824,0.6553,0.6822,0.7485,0.8529,0.9382,1.0197,1.016,0.8779,0.695,0.4761,0.2955,0.2669,0.6007,0.7602,0.8776,1.0186,1.2546,1.4373,1.4354,1.4967,1.6115,1.813,0.0,2.0599,2.0447,2.5116,2.7156,2.3386,0.0,2.9454,0.0,2.7776,2.6727,2.4964,2.5143,0.0,2.452,2.4594,2.4666,2.4713,2.4773,2.4749,2.4563,2.4303,2.4284,2.4535,2.4274,2.4283,2.4503,2.4519,2.4459,2.4329,2.4481,0.0,0.0,2.4538,2.4611,2.4716,2.4614,2.4643,2.4717,2.4612,2.4512,2.4428,2.4261,2.3612,2.283,2.2667,2.1864,2.1104,2.1585,2.0553,1.929,1.9536,1.9235,1.8784,1.8784,1.8273,1.7657,1.7304,1.6937,1.6528,1.605,1.568,1.5227,1.4487,1.3627,1.2666,1.1522,1.0654,0.9764,0.8756,0.7997,0.7298,0.6684,0.6641,0.6729,0.6876,0.544,0.4196,0.3449,0.3023,0.286,0.302,0.26,0.3227,0.5219,0.5041,0.5952,0.82,0.7288,0.7642,0.9375,0.9119,0.9416,1.0241,1.0864,1.1485,0.9135,0.6273,0.3319,0.4063,0.5212,0.6452,0.739,0.9075,1.0703,1.1509,1.2634,1.3752,1.4529,1.4843,1.5658,1.7599,1.7303,0.0,2.0317,2.3493,2.3979,0.0,0.0,2.8293,2.3726,2.5058,2.5706,2.4492,2.4038,0.0,2.3804,2.3805,2.4029,2.4484,2.4441,2.4289,2.4011,2.3872,2.3823,2.3896,2.3842,2.3804,2.3805,2.3871,2.3913,0.0,0.0,0.0,0.0,2.3913,2.3874,2.3823,2.3804,2.4007,2.4271,2.3934,2.4007,2.4238,2.3702,2.3497,2.3394,2.279,2.1876,2.1056,2.1396,2.07,1.9572,1.8524,1.8496,1.8792,1.8792,1.8311,1.7717,1.7379,1.6781,1.6093,1.527,1.5104,1.4876,1.4052,1.347,1.283,1.1928,1.1398,1.0957,1.0535,0.934,0.8499,0.8489,0.7679,0.7089,0.7089,0.7791,0.864,0.9623,1.0897,1.0962,0.9322,0.9826,1.0616,1.1568,1.0456,1.0175,1.0941,1.0683,1.0685,1.0977,1.1363,1.1705,1.1978,1.2456,1.3041,0.8908,0.6401,0.4061,0.5049,0.4611,0.4553,0.6966,0.8025,0.9203,1.161,1.3451,1.4871,1.5482,1.5626,1.6387,1.8553,1.8337,0.0,0.0,0.0,0.0,2.2297,2.5851,2.7665,0.0,0.0,2.5383,2.3891,0.0,0.0,2.3374,2.3122,2.3257,2.3805,2.3805,2.369,2.3454,2.2912,2.2768,2.3008,2.2468,2.2332,2.2509,2.252,2.2729,0.0,0.0,0.0,0.0,2.3485,2.3482,2.3583,2.3444,2.344,2.3505,2.3104,2.29,2.273,2.2287,2.1961,2.1757,2.1573,2.1278,2.0884,2.0256,1.9599,1.9058,1.8692,1.869,1.8736,1.8466,1.8234,1.8004,1.7638,1.6846,1.6079,1.5831,1.4984,1.4214,1.3967,1.3488,1.2891,1.1954,1.1931,1.1687,1.0616,1.0601,1.0529,0.9937,0.953,0.9283,0.9215,0.913,0.917,0.9427,0.9591,0.979,1.0038,0.9825,1.017,1.1241,1.106,1.1507,1.2743,1.2107,1.2319,1.3465,1.2991,1.3035,1.3582,1.386,1.4114,0.899,0.7062,0.5411,0.6029,0.5378,0.5326,0.7803,0.8753,0.9878,1.245,1.4219,1.544,1.5927,1.6246,1.7165,1.9337,1.9377,1.9552,0.0,0.0,0.0,2.5177,0.0,0.0,0.0,2.5293,2.4445,2.3458,0.0,0.0,2.2358,2.2135,2.216,2.2538,2.2663,2.2623,2.2363,2.191,2.1795,2.2001,2.1543,2.1406,2.1549,2.1549,2.1711,0.0,0.0,0.0,0.0,2.2409,2.2444,2.2555,2.2409,2.2443,2.2505,2.2139,2.1933,2.1807,2.1439,2.1164,2.0959,2.0797,2.0632,2.0403,1.9731,1.9148,1.8812,1.9076,1.9154,1.9075,1.8833,1.844,1.8047,1.7825,1.6925,1.605,1.5915,1.4992,1.4164,1.3994,1.3415,1.2803,1.2389,1.2425,1.2248,1.1571,1.1663,1.1584,1.106,1.0644,1.0373,1.0307,1.0125,0.998,0.9944,0.9691,0.992,1.0835,1.0465,1.0732,1.1911,1.2031,1.2647,1.3945,1.3525,1.3789,1.4781,1.4209,1.4134,1.4535,1.4642,1.4737,0.0,0.8052,0.7136,0.6853,0.7289,0.8226,0.9569,1.0834,0.0,1.3876,1.4906,1.5716,1.6194,1.6845,1.7901,1.9792,2.0163,2.0682,0.0,2.4575,0.0,0.0,2.4342,0.0,2.5002,2.3961,2.3162,2.313,0.0,0.0,2.1017,2.0957,2.0926,2.0894,2.1194,2.1256,2.0991,2.0959,2.0959,2.0959,2.0926,2.091,2.091,2.091,2.0926,0.0,0.0,0.0,0.0,2.0991,2.0991,2.0991,2.0991,2.1195,2.1423,2.1102,2.1133,2.1362,2.1039,2.091,2.0829,2.0382,2.0,1.969,1.969,1.9256,1.8862,1.951,1.9639,1.9603,1.9639,1.8768,1.7906,1.7906,1.699,1.6041,1.5649,1.5128,1.4615,1.4208,1.3325,1.2758,1.3194,1.2887,1.2697,1.3144,1.2457,1.1904,1.1904,1.1158,1.0651,1.0651,1.0869,1.1032,1.1032,1.0991,1.116,1.1666,1.1586,1.207,1.3284,1.3178,1.3558,1.4549,1.4781,1.4966,1.5096,1.5097,1.5079,1.5015,1.507,1.5131,1.0863,0.0,0.7965,0.7444,0.7946,0.8899,0.0,0.0,0.0,0.0,0.0,1.7341,1.7866,1.811,1.8428,1.9146,1.8819,1.9616,2.293,0.0,0.0,2.5377,2.4729,2.3663,2.1879,2.2913,2.3321,0.0,0.0,2.0989,2.1006,2.0648,2.0299,1.9939,2.0074,2.0416,2.0991,2.0649,2.0449,2.0449,2.0139,2.0015,2.0015,2.0015,2.0174,0.0,0.0,0.0,2.0991,2.0991,2.0991,2.0991,2.0991,2.1055,2.1054,2.0649,2.0501,2.0518,2.0139,2.0015,1.998,1.9874,1.9782,1.969,1.969,1.9302,1.8965,1.9522,1.9132,1.8574,1.8968,1.8589,1.804,1.804,1.7199,1.6397,1.6282,1.5504,1.4828,1.4714,1.4187,1.3754,1.3871,1.3399,1.3078,1.3265,1.3055,1.2861,1.2861,1.2312,1.1947,1.1947,1.1641,1.1454,1.1454,1.148,1.1573,1.1685,1.1733,1.2013,1.2687,1.2874,1.3325,1.4125,1.4636,1.497,1.5105,1.5749,1.6095,1.6148,1.6758,1.6738,1.2476,1.0864,0.9327,0.8661,0.9138,1.0212,1.1633,0.0,0.0,0.0,0.0,1.8287,1.887,1.9841,2.0515,2.0239,2.114,0.0,0.0,0.0,2.5607,2.4506,2.4661,2.4155,0.0,0.0,0.0,0.0,0.0,2.03,2.0058,1.9814,1.9441,1.891,1.8954,1.92,1.9662,1.9656,1.9513,1.928,1.9066,1.8968,1.8968,1.9207,1.9339,0.0,0.0,0.0,2.0058,2.0296,2.0413,2.0413,2.0413,2.0413,2.0379,2.0139,2.0019,2.0,1.9782,1.953,1.9281,1.9043,1.8968,1.8968,1.8968,1.8574,1.8341,1.9132,1.8893,1.8496,1.8535,1.8145,1.7747,1.7747,1.7115,1.6499,1.6499,1.5873,1.5254,1.5254,1.4635,1.4184,1.4428,1.3999,1.3643,1.3655,1.3641,1.3509,1.3235,1.2935,1.276,1.276,1.2517,1.2437,1.2633,1.2403,1.2237,1.2156,1.2643,1.3029,1.3267,1.3769,1.4366,1.4994,1.4785,1.5056,1.5834,1.611,1.6464,1.6874,1.7307,1.7088,1.401,1.2954,1.1787,1.0319,1.0721,1.1915,1.3484,0.0,0.0,0.0,0.0,1.9222,2.002,2.1665,0.0,2.2104,0.0,0.0,2.5328,2.5272,2.4991,2.4078,2.421,0.0,2.3634,0.0,0.0,0.0,0.0,1.9479,1.8922,1.8822,1.8577,1.8124,1.8121,1.8027,1.7867,1.8458,1.8535,1.8106,1.8106,1.8106,1.8145,1.8574,1.8535,1.8145,0.0,0.0,1.893,1.9406,1.9639,1.969,1.969,1.9639,1.9566,1.9566,1.953,1.9442,1.9442,1.9169,1.8688,1.8263,1.8106,1.8106,1.8106,1.7787,1.7585,1.8419,1.8612,1.8458,1.8066,1.7585,1.7188,1.7188,1.6837,1.6522,1.6522,1.6061,1.5736,1.5819,1.4939,1.4373,1.4893,1.4508,1.4108,1.42,1.415,1.39,1.3398,1.3323,1.3286,1.321,1.3198,1.3357,1.3769,1.3323,1.3023,1.2981,1.3635,1.4096,1.4208,1.4881,1.5533,1.6063,1.5092,1.5254,1.6634,1.6427,1.6694,1.7379,1.7545,1.7198,1.5163,1.6699,1.7605,1.2751,1.2527,1.3637,1.437,0.0,0.0,0.0,0.0,0.0,0.0,2.2702,2.2521,0.0,0.0,2.5852,0.0,0.0,2.5349,2.2724,0.0,2.345,2.0948,0.0,0.0,0.0,0.0,1.9595,1.8947,1.8462,1.822,1.8193,1.814,1.7666,1.6752,1.7747,1.8185,1.8106,1.8106,1.8106,1.8106,1.8185,1.8185,1.8106,0.0,1.8574,1.8893,1.9006,1.9281,1.969,1.969,1.9406,1.9006,1.9006,1.8727,1.8341,1.8341,1.8302,1.8224,1.8145,1.8106,1.8106,1.8106,1.8027,1.7907,1.7626,1.7229,1.6951,1.7353,1.7034,1.6637,1.6637,1.6552,1.6522,1.6522,1.6034,1.5787,1.6298,1.5471,1.4862,1.5408,1.4678,1.4156,1.4636,1.4313,1.4002,1.3962,1.3959,1.3783,1.3248,1.3198,1.3232,1.3301,1.357,1.3878,1.4194,1.3685,1.3598,1.4184,1.4481,1.4929,1.5513,1.545,1.5729,1.6363,1.7028,1.749,1.7743,1.8644,1.8659,1.7585,1.8892,1.9958,1.789,1.8424,1.9772,0.0,0.0,0.0,0.0,0.0,0.0,0.0,0.0,2.6503,2.9722,0.0,2.6032,2.7425,2.5648,2.3668,0.0,0.0,2.2649,0.0,0.0,0.0,0.0,0.0,0.0,1.807,1.7814,1.7555,1.7278,1.7248,1.6993,1.6522,1.6993,1.74,1.7715,1.7387,1.74,1.7702,1.7692,1.7504,1.7271,0.0,1.8066,1.8066,1.865,1.8855,1.8855,1.9169,1.893,1.8458,1.8458,1.8302,1.8066,1.7787,1.7666,1.7626,1.7353,1.7229,1.7229,1.7229,1.7229,1.7188,1.6951,1.6909,1.6909,1.6879,1.668,1.6522,1.6522,1.6522,1.6522,1.6522,1.6281,1.6194,1.6436,1.6095,1.5783,1.6058,1.5703,1.5318,1.5281,1.5061,1.4839,1.4563,1.4525,1.4324,1.377,1.3672,1.3652,1.3573,1.3547,1.3901,1.4783,1.4689,1.4827,1.5304,1.5043,1.5383,1.6409,1.5806,1.6102,1.7327,1.7436,1.7752,1.8231,1.8743,1.854,1.9907,2.0969,2.2331,2.2855,2.3363,0.0,0.0,0.0,0.0,0.0,0.0,0.0,0.0,2.7267,0.0,3.3423,2.9388,2.6348,2.7897,2.5048,2.2694,2.241,0.0,0.0,0.0,0.0,0.0,0.0,0.0,0.0,1.7356,1.7183,1.6973,1.6722,1.6584,1.6584,1.6722,1.6722,1.6873,1.7174,1.6861,1.6948,1.7408,1.7377,1.7085,1.6753,1.7406,1.7544,1.7353,1.8185,1.838,1.8145,1.8535,1.838,1.7907,1.7787,1.7747,1.7666,1.7271,1.7118,1.7034,1.6637,1.6522,1.6522,1.6522,1.6522,1.6522,1.6522,1.6795,1.7034,1.6595,1.638,1.6281,1.6281,1.6281,1.6281,1.6281,1.6194,1.6107,1.6238,1.6064,1.5876,1.5876,1.5876,1.5743,1.5332,1.5368,1.534,1.4931,1.4987,1.489,1.4337,1.4274,1.4243,1.4145,1.3877,1.4141,1.5109,1.5459,1.5797,1.6163,1.563,1.5884,1.7035,1.6176,1.6445,1.7854,1.7544,1.7661,1.8177,1.8316,1.806,2.1272,2.3742,2.6516,2.6002,2.3991,0.0,2.6286,2.6671,0.0,2.8858,0.0,0.0,0.0,2.8807,2.8514,3.0038,2.7931,2.6864,2.9077,0.0,2.4432,0.0,0.0,0.0,0.0,0.0,0.0,0.0,0.0,0.0,1.7402,1.6854,1.6804,1.73,1.6798,1.6773,1.7313,1.7325,1.7074,1.6584,1.7087,1.7338,1.7388,1.7383,1.7358,1.7287,1.6835,1.6879,1.7312,1.7394,1.7706,1.8106,1.8145,1.7827,1.7312,1.6795,1.6637,1.6595,1.6552,1.6552,1.6552,1.6522,1.6522,1.6522,1.6522,1.6522,1.6522,1.6522,1.6522,1.6552,1.6522,1.6095,1.5676,1.5676,1.5676,1.5676,1.5676,1.5231,1.5017,1.5543,1.4767,1.4003,1.4003,1.4003,1.3993,1.3961,1.4413,1.4788,1.482,1.5303,1.5429,1.4916,1.4853,1.484,1.4828,1.5143,1.5354,1.5465,1.5287,1.5359,1.5827,1.5782,1.5966,1.6367,1.6574,1.677,1.6901,1.7182,1.7182,1.6952,1.7489,1.7725,2.3534,2.585,2.8262,2.8021,2.7727,0.0,0.0,3.1826,3.142,3.0468,3.0695,0.0,0.0,0.0,3.0392,3.045,2.8782,2.7693,2.8121,2.6099,0.0,0.0,0.0,0.0,0.0,0.0,0.0,0.0,0.0,0.0,1.6313,1.6405,1.6585,1.6754,1.6958,1.7162,1.7388,1.726,1.7149,1.7049,1.7275,1.7739,1.8367,1.7325,1.7049,1.735,1.6773,1.6637,1.6837,1.7146,1.7229,1.7118,1.7118,1.6993,1.6795,1.6552,1.6522,1.6522,1.6522,1.6522,1.6522,1.6522,1.6522,1.6522,1.6522,1.6522,1.6522,1.6522,1.6522,1.6522,1.6522,1.6324,1.6051,1.5676,1.5588,1.5499,1.5096,1.488,1.4744,1.5017,1.4652,1.4376,1.4376,1.4376,1.4376,1.4376,1.456,1.4858,1.5251,1.5476,1.5592,1.5402,1.5117,1.4916,1.4916,1.5057,1.5234,1.5485,1.5938,1.6301,1.6477,1.6394,1.6547,1.6892,1.6655,1.6581,1.6789,1.6942,1.6926,1.6815,1.7035,1.7142,2.5473,2.7261,2.9043,2.9198,0.0,0.0,3.4292,3.4622,3.4067,3.2883,3.2242,0.0,0.0,0.0,0.0,0.0,2.8918,2.7785,2.6914,2.5364,0.0,0.0,0.0,0.0,0.0,0.0,0.0,0.0,0.0,0.0,0.0,1.6616,1.6945,1.6708,1.7343,1.7727,1.7903,1.7751,1.7751,1.7903,1.7691,1.8041,1.8933,1.7664,1.7262,1.7601,1.6848,1.6522,1.6522,1.6909,1.6837,1.6522,1.6522,1.6522,1.6522,1.6522,1.6522,1.6522,1.6522,1.6522,1.6522,1.6522,1.6522,1.6522,1.6522,1.6522,1.6522,1.6522,1.6522,1.6522,1.6522,1.638,1.6051,1.5454,1.532,1.5141,1.456,1.4422,1.4422,1.4422,1.4247,1.4107,1.4107,1.4107,1.4107,1.4107,1.4283,1.4652,1.5231,1.532,1.5413,1.5635,1.5524,1.5392,1.5392,1.5392,1.5539,1.5802,1.658,1.6986,1.6884,1.6978,1.7135,1.7425,1.7082,1.6949,1.7089,1.72,1.72,1.7089,1.7007,1.7076,2.6727,2.7814,2.9009,2.9646,0.0,0.0,3.43,3.4053,3.404,3.6535,0.0,3.2091,3.189,0.0,0.0,2.8329,2.771,2.6924,2.5675,0.0,0.0,0.0,0.0,0.0,0.0,0.0,0.0,0.0,0.0,0.0,0.0,1.7576,1.794,1.7413,1.7928,1.8468,1.897,1.8983,1.8983,1.897,1.827,1.827,1.8958,1.8442,1.8204,1.8141,1.7011,1.6522,1.6522,1.6522,1.6522,1.6522,1.6522,1.6522,1.6522,1.6522,1.6522,1.6522,1.6522,1.6522,1.6522,1.6522,1.6522,1.6522,1.6522,1.6522,1.6479,1.6479,1.6479,1.6466,1.6466,1.6051,1.5454,1.4835,1.4698,1.4514,1.3909,1.3779,1.3779,1.3779,1.3334,1.2881,1.2881,1.2881,1.2881,1.2881,1.342,1.4003,1.4606,1.4698,1.4971,1.5543,1.6139,1.6522,1.6522,1.6522,1.6522,1.6522,1.6993,1.718,1.6907,1.7419,1.7697,1.7697,1.8021,1.8037,1.7697,1.8037,1.8005,1.77,1.744,1.7635,2.7415,2.9642,3.1758,3.1339,0.0,0.0,0.0,3.4216,0.0,0.0,3.1986,2.985,2.8848,0.0,0.0,2.6102,2.5952,0.0,0.0,0.0,0.0,0.0,0.0,0.0,0.0,0.0,0.0,0.0,0.0,0.0,0.0,1.6801,1.7051,1.7117,1.7337,1.7677,1.8208,1.8101,1.8101,1.822,1.8362,1.8621,1.8945,1.7507,1.7347,1.8141,1.7011,1.6522,1.6522,1.6522,1.6522,1.6522,1.6522,1.6522,1.6522,1.6522,1.6522,1.6522,1.6522,1.6522,1.6522,1.6522,1.6522,1.6522,1.6522,1.6194,1.5864,1.5864,1.5555,1.5242,1.5242,1.5107,1.4926,1.4744,1.4698,1.4433,1.3382,1.3152,1.3152,1.3152,1.3017,1.2881,1.2881,1.2881,1.2881,1.2881,1.342,1.419,1.5186,1.5688,1.602,1.6194,1.638,1.6522,1.6522,1.6522,1.6522,1.6522,1.6993,1.7276,1.7193,1.7228,1.7455,1.7824,1.7461,1.7408,1.7697,1.7797,1.7797,1.7682,1.7616,1.768,2.9204,3.0994,0.0,3.2766,3.416,3.5383,3.4955,0.0,0.0,0.0,0.0,2.9745,2.8459,2.8226,0.0,2.5703,0.0,0.0,0.0,0.0,0.0,0.0,0.0,0.0,0.0,0.0,0.0,0.0,0.0,0.0,0.0,1.6548,1.6764,1.6706,1.6788,1.7113,1.7757,1.7512,1.741,1.7479,1.771,1.7873,1.7845,1.7315,1.7614,1.848,1.7576,1.7061,1.6861,1.6861,1.6861,1.6835,1.6609,1.6522,1.6522,1.6522,1.6522,1.6522,1.6522,1.6522,1.6479,1.6238,1.6139,1.6139,1.6139,1.5908,1.5588,1.5588,1.532,1.5005,1.4744,1.4698,1.4652,1.4376,1.4329,1.4061,1.3113,1.2881,1.2881,1.2881,1.2881,1.2881,1.2881,1.2881,1.2881,1.2881,1.342,1.4039,1.4767,1.5632,1.6139,1.6139,1.638,1.6522,1.6522,1.6522,1.6522,1.6522,1.6795,1.6993,1.6993,1.7329,1.763,1.7969,1.7579,1.7541,1.7876,1.7876,1.7981,1.817,1.7905,1.792,3.1545,3.1967,3.2212,3.3934,3.4926,0.0,3.5096,3.4534,3.3796,3.2606,0.0,3.09,2.964,2.8598,2.7535,2.6334,0.0,0.0,0.0,0.0,0.0,0.0,0.0,0.0,0.0,0.0,0.0,0.0,0.0,0.0,0.0,1.6574,1.6828,1.6126,1.6249,1.6625,1.7378,1.7008,1.6785,1.6627,1.6534,1.6353,1.6126,1.7339,1.8213,1.8671,1.8269,1.7815,1.73,1.73,1.73,1.725,1.6722,1.6547,1.6584,1.6534,1.6504,1.6498,1.6448,1.638,1.625,1.5688,1.5543,1.5543,1.5543,1.5499,1.5454,1.5454,1.541,1.5231,1.4698,1.4525,1.4387,1.3873,1.3779,1.3637,1.3017,1.2881,1.2881,1.2881,1.2881,1.2881,1.2881,1.2881,1.2929,1.2968,1.3467,1.3815,1.3956,1.4903,1.5632,1.5676,1.6194,1.6522,1.6522,1.6522,1.6522,1.6522,1.6522,1.6522,1.6522,1.7422,1.7987,1.8027,1.8027,1.8066,1.8106,1.8145,1.8419,1.8803,1.8266,1.8309,3.0976,3.1954,0.0,3.4389,3.5154,3.531,3.457,3.3887,3.3049,3.1693,3.0936,3.0025,2.834,2.6829,2.5621,2.4907,0.0,0.0,0.0,0.0,0.0,0.0,0.0,0.0,0.0,0.0,0.0,0.0,0.0,0.0,1.5495,1.5663,1.5653,1.5431,1.5371,1.5467,1.569,1.5646,1.5592,0.0,1.6137,1.6082,1.5442,1.568,1.5954,1.6396,1.7219,1.7237,1.671,1.671,1.671,1.6685,1.6572,1.6798,1.7137,1.6685,1.6465,1.6375,1.5965,1.5466,1.5062,1.4926,1.488,1.488,1.488,1.4549,1.4179,1.4179,1.3826,1.3467,1.3334,1.3296,1.3248,1.3104,1.3467,1.3637,1.3017,1.2881,1.2881,1.2881,1.2881,1.2881,1.2881,1.2881,1.3055,1.3552,1.3732,1.4133,1.5084,1.5454,1.5776,1.6238,1.6423,1.6522,1.6522,1.6522,1.6522,1.6522,1.6522,1.6522,1.6522,1.671,1.7034,1.7463,1.7463,1.7666,1.8106,1.8535,1.8574,1.8302,1.856,1.8536,3.1323,3.219,0.0,3.4923,0.0,3.4562,3.4506,3.364,3.2483,3.1196,3.0215,2.9126,2.7647,2.5962,2.4752,0.0,0.0,0.0,0.0,0.0,0.0,0.0,0.0,0.0,0.0,0.0,0.0,0.0,0.0,1.4771,1.4958,1.4725,1.4627,1.4663,1.4246,1.4236,1.4684,1.447,1.447,1.4684,1.5112,1.4997,1.443,1.5611,1.5785,1.5277,1.7024,1.7106,1.6025,1.6341,1.6443,1.6418,1.584,1.6013,1.65,1.6205,1.5855,1.5591,1.5593,1.541,1.505,1.4468,1.4468,1.4663,1.4376,1.405,1.3815,1.3815,1.3552,1.3238,1.2968,1.2881,1.2881,1.2881,1.3152,1.3286,1.2978,1.2881,1.2881,1.2881,1.2881,1.2881,1.2881,1.2881,1.3017,1.3324,1.3372,1.3695,1.4641,1.5005,1.5421,1.6008,1.6324,1.6522,1.6522,1.6522,1.6522,1.6522,1.6522,1.6522,1.6522,1.6522,1.6637,1.6909,1.6909,1.7034,1.7353,1.7626,1.7747,1.7706,1.7987,1.7987,3.1701,3.2418,3.3151,3.5132,3.4604,0.0,3.4385,3.3478,3.219,3.1098,2.9762,2.8429,2.7201,2.5544,2.4348,0.0,0.0,0.0,0.0,0.0,0.0,0.0,0.0,0.0,0.0,0.0,0.0,0.0,0.0,1.4327,1.4167,1.3907,1.3779,1.3896,1.3311,1.3281,1.3916,1.3574,1.3574,1.3863,1.3863,1.3769,1.3567,1.5802,1.5982,1.4662,1.6834,1.6848,1.5409,1.5905,1.6091,1.6009,1.513,1.5188,1.5725,1.5816,1.5498,1.5037,1.5439,1.5435,1.5096,1.4003,1.3967,1.4305,1.3873,1.3699,1.3658,1.373,1.3699,1.3552,1.3017,1.2881,1.2881,1.2881,1.2881,1.2881,1.2881,1.2881,1.2881,1.2881,1.2881,1.2881,1.2881,1.2881,1.2881,1.2881,1.2881,1.3104,1.3732,1.4329,1.4926,1.5543,1.6139,1.6522,1.6522,1.6522,1.6522,1.6522,1.6522,1.6522,1.6522,1.6522,1.6522,1.6522,1.6522,1.6522,1.6522,1.6595,1.6837,1.7146,1.7271,1.7229,3.0903,0.0,3.3259,0.0,3.4092,3.3707,0.0,0.0,3.2348,0.0,3.0139,2.8303,2.6708,2.5305,2.4101,0.0,0.0,0.0,0.0,0.0,0.0,0.0,0.0,0.0,0.0,0.0,0.0,0.0,1.3162,1.3133,1.3096,1.3402,1.3401,1.3057,1.3291,1.3301,1.3047,1.2998,1.2998,1.3047,1.3047,1.3213,1.3506,1.4374,1.4446,1.3988,1.5292,1.5448,1.4799,1.4891,1.4937,1.4971,1.5132,1.5594,1.6173,1.6713,1.6518,1.5969,1.5638,1.4857,1.3909,1.3238,1.3065,1.3183,1.3451,1.3303,1.3096,1.3461,1.3303,1.3017,1.2929,1.2881,1.2881,1.2881,1.2881,1.2881,1.2881,1.2881,1.2881,1.2881,1.2881,1.2881,1.2881,1.2881,1.2881,1.2881,1.2881,1.3104,1.3732,1.4329,1.4926,1.5543,1.6139,1.6522,1.6522,1.6522,1.6522,1.6522,1.6522,1.6522,1.6522,1.6522,1.6522,1.6522,1.6522,1.6522,1.6522,1.6951,1.6993,1.6637,1.7076,1.7034,3.0167,3.1115,3.1951,0.0,3.2661,3.2645,3.2466,3.2074,3.1502,3.0514,2.9098,2.7787,2.7066,2.5311,2.3694,0.0,0.0,0.0,0.0,0.0,0.0,0.0,0.0,0.0,0.0,0.0,0.0,0.0,1.3096,1.3232,1.3232,1.3184,1.3184,1.3232,1.3184,1.3066,1.2881,1.2881,1.2881,1.2881,1.2881,1.3105,1.3506,1.3791,1.3781,1.3719,1.5137,1.498,1.3726,1.4291,1.4781,1.5088,1.4535,1.5046,1.6177,1.6025,1.5566,1.5029,1.5239,1.4935,1.4416,1.3779,1.384,1.4074,1.3903,1.3564,1.3271,1.3457,1.3203,1.2881,1.2881,1.2881,1.2881,1.2881,1.2881,1.2881,1.2881,1.2881,1.2881,1.2881,1.2881,1.2881,1.2881,1.3076,1.3154,1.291,1.3076,1.3234,1.3268,1.3826,1.4283,1.4538,1.541,1.6008,1.6008,1.6293,1.6522,1.6522,1.6522,1.6522,1.6522,1.6522,1.6522,1.6522,1.6522,1.6522,1.6522,1.6752,1.671,1.6522,1.6752,1.671,2.9615,0.0,3.0679,3.1351,3.1654,3.179,0.0,0.0,3.0987,0.0,2.8363,2.7345,2.7179,2.509,2.3187,2.2543,0.0,0.0,0.0,0.0,0.0,0.0,0.0,0.0,0.0,0.0,0.0,0.0,1.333,1.3467,1.335,1.3047,1.3027,1.334,1.3047,1.2881,1.2881,1.2881,1.2881,1.2881,1.2988,1.3262,1.3672,1.3779,1.3828,1.389,1.4933,1.4508,1.3106,1.3768,1.4405,1.4915,1.4013,1.4532,1.5812,1.5532,1.5032,1.4556,1.5142,1.5227,1.4976,1.4344,1.445,1.4767,1.4237,1.3838,1.3525,1.3633,1.3281,1.293,1.3145,1.3125,1.3037,1.3037,1.3125,1.3145,1.293,1.2881,1.2881,1.2881,1.2969,1.3008,1.29,1.3232,1.3359,1.2939,1.3154,1.3232,1.292,1.3552,1.3956,1.3815,1.4858,1.5588,1.5588,1.5996,1.6337,1.6479,1.6522,1.6522,1.6522,1.6522,1.6522,1.6522,1.6522,1.6522,1.6522,1.6522,1.6522,1.6522,1.6522,1.6522,0.0,2.9828,0.0,3.142,3.1777,3.1794,0.0,0.0,3.1476,3.0435,2.8721,2.7221,2.6639,2.4477,2.2543,2.1852,0.0,0.0,0.0,0.0,0.0,0.0,0.0,0.0,0.0,0.0,0.0,0.0,1.3496,1.333,1.293,1.2891,1.2891,1.291,1.2891,1.2881,1.2881,1.2881,1.2881,1.2881,1.3281,1.3691,1.4058,1.4531,1.4717,1.4678,1.3929,1.3567,1.3447,1.3116,1.3244,1.3647,1.3945,1.4419,1.5018,1.6038,1.6092,1.5662,1.5804,1.5531,1.4976,1.4344,1.4131,1.4131,1.4131,1.3838,1.3594,1.3941,1.3516,1.3066,1.3857,1.3769,1.3477,1.3477,1.3779,1.3848,1.3047,1.2881,1.2881,1.2881,1.3203,1.335,1.2949,1.3232,1.3359,1.2939,1.29,1.29,1.2881,1.3931,1.4422,1.3862,1.4858,1.5588,1.5588,1.5632,1.5908,1.6466,1.6522,1.6522,1.6522,1.6522,1.6522,1.6522,1.6522,1.6522,1.6522,1.6522,1.6522,1.6522,1.6522,1.6522,0.0,0.0,0.0,2.8181,2.8485,2.89,2.937,2.9567,2.951,2.9204,2.8239,2.702,2.5631,2.3917,2.2498,2.1805,0.0,0.0,0.0,0.0,0.0,0.0,0.0,0.0,0.0,0.0,0.0,0.0,0.0,1.3721,1.3311,1.3027,1.2881,1.2881,1.2881,1.2881,1.2881,1.2881,1.2881,1.2881,1.3037,1.333,1.375,1.417,1.4521,1.4766,1.4463,1.417,1.3916,1.4043,1.449,1.5004,1.4701,1.5083,1.5869,1.5803,1.5535,1.5149,1.5465,1.5104,1.4447,1.4517,1.4365,1.4136,1.4463,1.4062,1.3652,1.4355,1.374,1.3018,1.3584,1.3623,1.3506,1.3506,1.3418,1.3242,1.2939,1.2881,1.2881,1.2881,1.3223,1.3457,1.3311,1.3867,1.4092,1.3389,1.3516,1.3486,1.2949,1.3296,1.3478,1.3238,1.4283,1.5017,1.5017,1.5732,1.6281,1.6479,1.6522,1.6522,1.6522,1.6522,1.6522,1.6522,1.6522,1.6522,1.6522,1.6522,1.6522,1.6522,1.6522,1.6522,2.5871,0.0,0.0,0.0,2.6272,2.6582,2.7581,0.0,2.7987,2.7811,2.7612,2.6917,2.4941,2.3558,2.24,2.1513,2.0868,0.0,0.0,0.0,0.0,0.0,0.0,0.0,0.0,0.0,0.0,0.0,0.0,0.0,1.3535,1.3242,1.3027,1.2881,1.2881,1.2881,1.2881,1.2881,1.2881,1.2881,1.3027,1.3311,1.373,1.416,1.459,1.5,1.5,1.4746,1.4365,1.4502,1.4969,1.5464,1.4998,1.5379,1.6093,1.5584,1.5234,1.5039,1.5312,1.5039,1.459,1.4736,1.4687,1.4561,1.4561,1.417,1.3867,1.458,1.3965,1.3252,1.3965,1.3936,1.375,1.3906,1.3506,1.3164,1.3457,1.3291,1.3096,1.3096,1.3545,1.3887,1.374,1.4316,1.4541,1.3818,1.3902,1.3887,1.3184,1.3273,1.3322,1.3135,1.3884,1.4534,1.4887,1.5527,1.6064,1.6466,1.6522,1.6522,1.6522,1.6522,1.6522,1.6522,1.6522,1.6522,1.6522,1.6522,1.6522,1.6522,1.6522,1.6522,0.0,0.0,0.0,0.0,0.0,0.0,2.6616,0.0,2.7088,2.6507,2.693,2.6819,2.4787,2.3464,2.2273,2.0987,2.0194,0.0,0.0,0.0,0.0,0.0,0.0,0.0,0.0,0.0,0.0,0.0,1.4795,1.4424,1.3584,1.3535,1.333,1.291,1.29,1.2891,1.2881,1.2881,1.2891,1.29,1.3311,1.373,1.4097,1.457,1.5,1.5391,1.5391,1.5166,1.4775,1.4346,1.4414,1.4785,1.4795,1.5049,1.5391,1.5391,1.5391,1.5391,1.5391,1.5381,1.5312,1.4902,1.5039,1.5215,1.4321,1.4068,1.4228,1.4658,1.417,1.3799,1.5049,1.4736,1.4209,1.4678,1.4131,1.373,1.457,1.4111,1.3545,1.3525,1.4199,1.4639,1.4228,1.4502,1.4648,1.4165,1.4097,1.3951,1.3584,1.4043,1.4183,1.3567,1.3695,1.4206,1.5237,1.4931,1.5242,1.6423,1.6522,1.6522,1.6522,1.6522,1.6522,1.6522,1.6522,1.6522,1.6522,1.6522,1.6522,1.6522,1.6522,1.6522,2.4043,0.0,0.0,0.0,0.0,0.0,0.0,0.0,2.474,2.5818,2.6017,2.5578,2.417,2.3223,2.2048,2.0361,1.9901,0.0,0.0,0.0,0.0,0.0,0.0,0.0,0.0,0.0,0.0,0.0,1.4951,1.4678,1.4443,1.4131,1.3769,1.335,1.334,1.3184,1.2881,1.2881,1.3037,1.334,1.3447,1.373,1.4087,1.4204,1.4551,1.4961,1.4961,1.5068,1.5225,1.5107,1.4951,1.4814,1.5117,1.5117,1.4961,1.4961,1.4961,1.4961,1.4961,1.4756,1.4418,1.4355,1.4394,1.4385,1.3848,1.3896,1.4228,1.4658,1.417,1.3662,1.4316,1.3857,1.3486,1.4541,1.4131,1.3574,1.3809,1.416,1.4336,1.4023,1.415,1.4375,1.457,1.4697,1.4746,1.4629,1.4609,1.4453,1.4014,1.4103,1.4103,1.3955,1.4104,1.4499,1.5259,1.5337,1.5688,1.6466,1.6522,1.6522,1.6522,1.6522,1.6522,1.6522,1.6522,1.6522,1.6522,1.6522,1.6522,1.6522,1.6522,1.6522,0.0,0.0,0.0,0.0,0.0,0.0,2.2434,2.2569,2.2899,0.0,2.4629,2.4229,2.2603,2.206,2.1271,1.9534,1.921,1.8964,0.0,0.0,0.0,0.0,0.0,0.0,0.0,1.541,1.541,1.541,1.5186,1.4971,1.4795,1.4365,1.3945,1.3516,1.3506,1.3311,1.2881,1.2881,1.3096,1.3506,1.3506,1.373,1.4077,1.4077,1.4375,1.4785,1.4785,1.5029,1.541,1.541,1.5166,1.4824,1.5244,1.5039,1.4561,1.4912,1.4932,1.4805,1.498,1.4766,1.4375,1.4136,1.4077,1.4,1.3633,1.3528,1.3739,1.4334,1.3936,1.3299,1.3081,1.2654,1.2516,1.3387,1.3177,1.2894,1.3067,1.3886,1.4459,1.414,1.4369,1.4746,1.5,1.5049,1.5049,1.5049,1.5049,1.4893,1.4463,1.4404,1.4503,1.4817,1.4759,1.516,1.6306,1.6362,1.6587,1.7167,1.7225,1.7225,1.7225,1.7225,1.7225,1.7225,1.7225,1.7112,1.6873,1.6635,1.6522,1.6522,1.6522,1.6522,0.0,0.0,0.0,0.0,0.0,0.0,2.2076,2.1762,2.1329,0.0,2.2787,2.2525,2.0532,2.0207,1.9764,1.826,1.7961,1.7772,1.7534,0.0,0.0,0.0,0.0,0.0,1.542,1.5294,1.5294,1.5294,1.5167,1.5013,1.476,1.4263,1.3806,1.3507,1.3439,1.3237,1.2919,1.292,1.3134,1.3488,1.3488,1.371,1.4105,1.4067,1.4334,1.4853,1.4749,1.4906,1.5284,1.5119,1.4945,1.4824,1.5195,1.4883,1.4297,1.501,1.5088,1.4902,1.5225,1.5127,1.4785,1.4346,1.4209,1.4068,1.3539,1.3159,1.3077,1.3635,1.3401,1.2725,1.1766,1.1464,1.1514,1.1909,1.1894,1.1983,1.2397,1.3334,1.4045,1.4007,1.4729,1.5352,1.54,1.5371,1.5361,1.54,1.541,1.5273,1.4902,1.4853,1.5179,1.5909,1.5542,1.5989,1.7741,1.7516,1.7533,1.8157,1.8204,1.8204,1.8204,1.8204,1.8204,1.8204,1.8141,1.7877,1.7388,1.6861,1.6584,1.6522,1.6522,1.6522,0.0,0.0,0.0,0.0,0.0,0.0,1.9628,1.9445,1.9586,0.0,2.0121,1.9576,1.8918,1.81,1.7022,1.5312,1.5141,1.5592,1.6591,0.0,0.0,0.0,0.0,0.0,1.5449,1.4805,1.4451,1.4451,1.3846,1.37,1.4282,1.3611,1.3334,1.3588,1.3195,1.2995,1.2913,1.3237,1.3456,1.357,1.357,1.378,1.4145,1.3835,1.4308,1.5216,1.4231,1.4084,1.4364,1.3521,1.3814,1.4795,1.4873,1.4805,1.4639,1.4453,1.4766,1.5254,1.5,1.5078,1.5215,1.4795,1.4658,1.4402,1.3094,1.2885,1.2905,1.2201,1.1901,1.1783,1.1839,1.1358,1.1168,1.2247,1.2014,1.1597,1.1672,1.2532,1.3323,1.3286,1.4155,1.501,1.5352,1.5127,1.5029,1.5361,1.541,1.5381,1.5293,1.5293,1.5571,1.629,1.6037,1.6361,1.7777,1.7516,1.7533,1.8157,1.8204,1.8204,1.8204,1.8204,1.8204,1.8204,1.7765,1.7488,1.7388,1.7262,1.6974,1.6522,1.6522,1.6522,0.0,0.0,0.0,2.1577,0.0,0.0,0.0,1.8797,1.8204,1.8844,1.8238,1.7333,1.6487,1.5488,1.4341,1.293,1.3026,1.336,1.3451,1.5241,1.6451,0.0,0.0,0.0,1.5373,1.4435,1.3752,1.3623,1.3252,1.3191,1.3606,1.3252,1.3024,1.3012,1.2757,1.256,1.23,1.2361,1.2618,1.2995,1.2845,1.2845,1.3027,1.3044,1.3217,1.36,1.3217,1.321,1.3537,1.299,1.3211,1.3879,1.3942,1.3695,1.3427,1.4189,1.459,1.4805,1.5019,1.5098,1.5002,1.4383,1.4063,1.3645,1.2464,1.2135,1.1973,1.0879,1.0755,1.0918,1.0816,1.0427,1.0225,1.0955,1.0729,1.0354,1.0354,1.1483,1.246,1.2331,1.3495,1.46,1.5029,1.5098,1.5098,1.5098,1.5098,1.5176,1.5381,1.5039,1.5315,1.6869,1.6711,1.71,1.8724,1.8669,1.8685,1.8995,1.9007,1.9007,1.9007,1.9007,1.9007,1.9007,1.848,1.8204,1.8204,1.7928,1.735,1.6522,1.681,1.6948,0.0,0.0,0.0,0.0,0.0,1.9686,0.0,0.0,0.0,1.7027,1.6374,0.0,0.0,0.0,0.0,0.0,0.0,0.0,0.0,1.231,0.0,0.0,0.0,0.0,1.4703,1.351,1.2733,1.2672,1.2321,1.2367,1.2905,1.2717,1.2549,1.2389,1.2317,1.2081,1.1711,1.1589,1.1752,1.2276,1.1955,1.1809,1.189,1.2067,1.2167,1.2125,1.2206,1.2446,1.2757,1.2501,1.2417,1.2482,1.2828,1.2573,1.2226,1.3746,1.4156,1.3978,1.4696,1.4715,1.4326,1.3687,1.3068,1.2458,1.176,1.1265,1.0833,0.9951,0.9953,1.0099,0.986,0.9506,0.9256,0.9613,0.9412,0.9152,0.9316,1.0576,1.1676,1.1674,1.291,1.415,1.459,1.4941,1.5078,1.4824,1.4785,1.4941,1.5361,1.4805,1.5168,1.7379,1.7286,1.7845,1.9658,1.9798,1.9798,1.9798,1.9798,1.9798,1.9798,1.9798,1.9798,1.9798,1.9296,1.8933,1.882,1.8317,1.7576,1.6697,1.7275,1.7488,0.0,0.0,0.0,0.0,1.9543,0.0,0.0,0.0,1.5608,1.4336,0.0,0.0,0.0,0.0,0.0,0.0,0.0,0.0,0.8716,0.9008,0.9678,1.1118,0.0,0.0,0.0,1.1256,1.0857,1.1519,0.9952,1.011,1.258,1.1803,1.156,1.221,1.1869,1.1697,1.1775,1.211,1.2134,1.1835,1.1555,1.1548,1.1829,1.1571,1.1952,1.2825,1.2127,1.1858,1.1873,1.0873,1.0404,1.0572,1.1913,1.2613,1.2855,1.2722,1.2882,1.3134,1.3218,1.3218,1.3193,1.3124,1.233,1.1394,1.0932,1.0379,0.9863,0.9731,0.9717,0.9816,0.9987,0.9659,0.9256,0.9613,0.9259,0.9003,0.962,1.0355,1.1234,1.2174,1.302,1.3711,1.4141,1.4248,1.4394,1.4727,1.4785,1.4941,1.5361,1.5322,1.5857,1.7457,1.7588,1.8163,1.9683,1.9798,1.9798,1.9798,1.9798,1.9798,1.9798,1.9798,1.9798,1.9798,1.9296,1.8794,1.8292,1.7739,1.7413,1.73,1.7852,1.7852,0.0,0.0,0.0,0.0,0.0,0.0,1.5788,0.0,1.4102,0.0,0.0,0.0,0.0,0.0,0.0,0.0,0.7136,0.0,0.0,0.0,0.9024,0.0,0.0,0.0,0.0,0.0,0.0,0.0,1.0577,1.0651,1.1643,1.1417,1.1289,1.1507,1.1309,1.1227,1.1108,1.1102,1.1102,1.1101,1.0784,1.0707,1.084,1.089,1.1067,1.1328,1.1148,1.1108,1.1101,1.0608,1.0374,1.0436,1.1102,1.1496,1.1741,1.2222,1.2521,1.2668,1.2934,1.3009,1.2948,1.2451,1.1682,1.0819,1.0275,1.0027,0.99,0.9733,0.9806,1.0,1.0301,1.006,0.974,0.9693,0.9365,0.9166,0.9703,1.032,1.1065,1.1948,1.2667,1.3281,1.3691,1.418,1.457,1.4756,1.4785,1.4941,1.5361,1.5345,1.5865,1.7456,1.75,1.8061,1.9645,1.9522,1.9484,1.9786,1.9798,1.9798,1.9798,1.9798,1.9798,1.9798,1.9296,1.9058,1.9133,1.8167,1.7557,1.7347,1.7613,1.7601,1.732,0.0,0.0,0.0,0.0,0.0,0.0,0.0,0.0,0.0,0.0,0.0,0.0,0.0,0.0,0.0,0.0,0.5573,0.0,0.6065,0.0,0.0,0.0,0.0,0.0,0.0,0.0,0.0,0.0,1.107,1.1363,1.1476,1.1416,1.1122,1.1109,1.0935,1.0624,1.0347,1.0347,1.0618,1.0254,1.016,1.0241,1.0381,1.0367,1.0247,1.0468,1.0624,1.0624,1.0624,1.0624,1.0624,1.0624,1.0656,1.0748,1.1585,1.1916,1.1947,1.2257,1.2336,1.2274,1.1655,1.1108,1.0544,1.0053,1.0074,1.0194,0.998,1.0074,1.0287,1.0571,1.0281,0.9947,0.9733,0.9399,0.9221,0.9717,1.032,1.1049,1.1867,1.2478,1.3047,1.3584,1.4004,1.4336,1.457,1.4609,1.4756,1.5186,1.543,1.6095,1.7445,1.7624,1.826,1.9684,1.9459,1.9397,1.9773,1.9798,1.9798,1.9798,1.9798,1.9798,1.9798,1.9434,1.9359,1.9585,1.844,1.7668,1.7266,1.7445,1.7409,0.0,0.0,0.0,1.3799,0.0,0.0,0.0,0.0,1.1025,0.0,0.0,0.0,0.0,0.0,0.0,0.0,0.0,0.0,0.0,0.0,0.0,0.0,0.0,0.0,0.0,0.0,0.0,0.0,0.0,0.0,1.2184,1.2004,1.1717,1.1423,1.141,1.1136,1.0631,1.0611,1.0611,1.0618,1.0254,1.0267,1.0598,1.0254,1.0281,1.0611,1.0618,1.0624,1.0624,1.0624,1.0624,1.0624,1.0624,1.0611,1.0598,1.0667,1.0674,1.0674,1.0681,1.0681,1.0688,1.0624,1.0624,1.0618,1.0604,1.0604,1.0611,1.0598,1.0604,1.0611,1.0618,1.0134,0.9693,0.9686,0.9239,0.8969,0.9666,1.032,1.1124,1.2252,1.2695,1.3145,1.3912,1.3467,1.3223,1.4033,1.4107,1.4307,1.4746,1.5808,1.6722,1.7523,1.8251,1.8955,1.9747,1.9786,1.9786,1.9798,1.9798,1.9798,1.9798,1.9798,1.9798,1.9798,1.9786,1.9535,1.8995,1.827,1.7618,1.712,1.7656,1.7335,0.0,0.0,0.3598,0.7942,0.0,0.0,0.0,0.0,0.0,0.0,0.0,0.0,0.0,0.0,0.0,0.0,0.0,0.0,0.0,0.0,0.0,0.0,0.0,0.0,0.0,0.0,0.0,0.0,1.0519,0.0,0.0,1.1734,1.1722,1.0787,1.1171,1.1236,1.0848,1.0719,1.0624,1.0624,1.0517,1.0461,1.0618,1.0454,1.0461,1.0624,1.0624,1.0624,1.0624,1.0624,1.0624,1.0624,1.0624,1.0624,1.0624,1.0624,1.0624,1.0624,1.0624,1.0624,1.0624,1.0624,1.0624,1.0584,1.0327,1.0408,1.0521,1.0321,1.0408,1.0624,1.0624,1.0477,1.0167,0.9773,0.9532,0.9494,0.9754,0.9961,1.0506,1.1802,1.236,1.2861,1.3559,1.3486,1.3486,1.4,1.4385,1.4619,1.4766,1.6245,1.7302,1.7578,1.8377,1.9156,1.9773,1.9798,1.9798,1.9798,1.9798,1.9798,1.9798,1.9798,1.9798,1.9798,1.9798,1.9331,1.8384,1.8044,1.7201,1.584,1.6086,1.5973,-0.4269,-0.3744,0.0,0.2084,0.321,0.0,0.6806,0.0,0.0,0.0,0.0,0.0,0.0,0.0,0.0,0.0,0.0,0.0,0.0,0.2187,0.0,0.0,0.0,0.0,0.0,0.0,0.0,0.9338,1.0607,1.123,0.0,0.0,1.1866,1.0929,1.1326,1.139,1.0995,1.0808,1.0661,1.0624,1.0624,1.0624,1.0624,1.0624,1.0624,1.0624,1.0624,1.0624,1.0624,1.0624,1.0624,1.0624,1.0624,1.0624,1.0624,1.0624,1.0624,1.0624,1.0624,1.0624,1.0624,1.0624,1.0624,1.0584,1.0327,1.0408,1.0521,1.0327,1.0414,1.0624,1.0624,1.047,1.0154,0.9773,0.9599,0.9554,0.9776,1.0203,1.0854,1.1855,1.258,1.319,1.3627,1.373,1.3818,1.4038,1.4375,1.4609,1.4766,1.6189,1.7191,1.7191,1.8007,1.8745,1.9347,1.9423,1.9527,1.9798,1.9798,1.9798,1.9798,1.9798,1.9608,1.9191,1.9325,1.8809,1.7478,1.7283,1.6521,1.5163,1.4821,1.4658]}]]